GFSSW_prec_cloud_003.txt.gz
Cloud_Cover
100 100 100 100 100 100 100 100 100 100 100 100 100 100 100 100 55 48 6 72 24 3 0 24 100 100 49 81 5 32 9 68 100 100 100 100 100 100 100 100 100 100 100 100 100
100 100 100 100 100 100 100 100 100 100 100 100 100 100 100 100 84 0 47 98 26 5 5 57 100 67 34 68 80 96 13 94 73 100 100 100 100 100 100 100 100 100 100 100 100
100 100 100 100 100 100 100 100 100 100 100 100 100 100 100 98 33 36 100 99 80 100 65 98 61 100 81 100 61 33 99 100 100 100 100 100 100 100 100 100 100 100 100 100 100
100 100 100 100 100 100 100 100 100 100 100 100 100 100 100 78 10 72 96 100 100 89 91 100 67 100 100 44 67 92 100 100 100 100 100 100 100 100 100 100 100 100 100 100 100
100 100 100 100 100 100 100 100 100 100 100 100 100 100 16 60 60 74 82 100 98 100 95 86 86 95 87 88 100 96 99 100 100 100 84 100 100 100 100 100 100 100 100 100 100
100 100 100 100 100 100 100 100 100 100 100 100 100 99 24 100 100 100 81 100 100 84 96 95 88 99 88 95 100 100 100 94 90 38 100 100 100 100 100 100 100 100 100 100 100
100 100 100 100 100 100 100 100 100 100 100 100 100 100 100 100 100 100 0 44 100 100 72 100 100 100 100 100 100 92 91 87 100 94 86 4 6 100 100 100 100 100 100 100 100
100 100 100 100 100 100 100 100 100 100 100 100 100 100 100 100 100 19 0 100 100 100 100 100 100 100 100 100 83 31 6 18 87 100 100 86 68 86 93 100 93 95 100 100 100
100 100 100 100 100 100 100 100 100 100 100 100 92 96 100 96 78 100 100 100 100 100 100 100 100 97 90 79 98 100 12 5 5 5 47 64 79 93 92 65 56 32 2 16 61
100 52 49 91 40 100 100 100 100 95 80 54 73 87 54 89 16 40 100 100 88 100 100 100 100 98 100 96 50 2 1 3 5 4 5 5 5 5 5 5 1 0 0 0 0
87 2 56 100 14 76 78 98 19 5 2 67 58 99 7 74 5 5 92 5 89 13 88 95 100 100 70 5 0 5 3 3 5 23 5 5 5 5 1 0 0 0 0 5 5
5 4 60 19 46 97 90 20 4 2 20 100 99 11 5 8 58 100 11 1 4 5 24 2 0 0 8 73 11 5 2 2 0 5 3 3 0 1 8 15 42 51 20 29 36
12 5 23 10 100 76 5 0 0 0 5 18 1 1 1 0 1 0 0 1 0 0 0 0 2 2 20 34 4 5 3 4 4 18 62 83 73 15 80 94 27 4 4 5 23
1 0 33 78 40 4 3 0 0 0 0 0 0 0 0 0 0 0 0 0 0 1 0 0 0 0 0 5 64 76 18 5 55 42 16 52 76 42 2 0 0 0 21 92 73
24 60 14 6 5 2 4 5 4 0 0 0 0 0 0 0 0 4 3 2 5 16 2 5 5 5 6 58 42 6 5 0 0 0 0 0 0 0 0 0 0 29 100 22 96
44 3 88 38 8 0 5 4 0 0 1 3 0 2 5 6 5 5 4 4 0 0 0 0 2 0 0 0 0 0 0 0 0 0 0 0 0 0 0 11 98 97 89 40 99
34 98 61 5 0 2 5 4 0 5 16 8 5 11 6 5 3 2 1 0 0 0 0 0 0 0 0 0 0 0 0 0 0 2 0 0 2 0 1 11 49 94 25 31 21
100 96 58 1 0 5 5 5 5 9 21 34 43 7 4 0 0 0 0 0 0 0 0 0 0 0 0 0 0 0 0 0 0 2 0 0 0 0 0 4 5 5 4 20 94
100 29 5 5 6 24 10 17 2 34 78 36 6 10 5 1 0 0 0 0 0 0 0 0 0 0 1 2 2 0 0 0 0 0 0 0 0 0 0 0 0 2 5 5 4
58 8 52 22 28 66 46 34 22 53 70 62 25 5 5 0 0 0 0 0 0 2 4 5 5 1 0 0 0 0 0 0 0 0 0 0 0 0 0 2 5 5 4 1 3
5 22 36 38 73 46 43 100 76 14 85 50 43 5 2 0 0 0 0 0 2 4 1 0 0 0 0 0 0 0 0 0 0 2 2 4 0 0 3 2 3 5 5 5 51
5 66 10 76 29 25 77 96 84 91 61 44 8 5 5 5 0 0 4 0 0 0 0 0 0 0 0 4 4 0 0 0 0 0 10 5 1 0 0 0 3 5 5 22 24
56 55 56 84 75 71 66 64 89 89 30 8 5 1 0 5 2 0 2 0 0 0 0 0 2 5 6 5 5 0 0 0 0 4 0 1 0 0 0 0 3 3 5 14 5
16 29 56 39 21 35 62 60 96 60 56 12 5 5 1 5 4 5 5 4 3 1 2 5 5 5 5 4 0 3 3 0 0 0 0 0 0 0 0 0 0 1 1 5 5
90 98 99 88 99 96 78 100 99 76 50 96 42 5 5 5 5 5 4 5 5 5 5 5 5 1 0 0 0 0 0 0 0 0 4 4 2 0 0 0 0 0 1 5 5
94 100 100 80 15 7 62 63 95 91 100 69 5 5 5 5 5 5 4 5 5 5 5 1 36 1 0 0 0 0 0 0 5 5 5 5 5 0 0 0 0 0 3 5 57
83 100 100 41 90 88 88 74 70 100 79 5 5 5 5 62 14 5 5 5 5 5 5 10 27 5 5 8 5 5 5 5 5 5 5 5 5 5 5 5 5 5 5 6 95

GFSSW_prec_cloud_006.txt.gz
Cloud_Cover
100 100 100 100 100 100 100 100 100 100 100 100 100 100 100 100 73 45 5 0 3 3 11 100 100 96 99 71 29 5 5 6 67 100 100 100 100 100 100 100 100 100 100 100 100
100 100 100 100 100 100 100 100 100 100 100 100 100 100 100 100 79 4 0 3 1 4 54 55 83 100 100 63 90 75 81 89 100 99 100 100 100 100 100 100 100 100 100 100 100
100 100 100 100 100 100 100 100 100 100 100 100 100 100 100 99 29 0 3 8 14 68 67 53 89 100 100 52 96 34 92 99 84 100 98 100 100 100 100 100 100 100 100 100 100
100 100 100 100 100 100 100 100 100 100 100 100 100 100 100 91 0 0 66 100 100 69 42 100 100 100 98 32 81 99 99 100 100 100 100 100 100 100 100 100 100 100 100 100 100
100 100 100 100 100 100 100 100 100 100 100 100 100 100 55 100 18 52 50 100 100 100 97 100 100 97 98 100 100 100 98 100 100 100 100 100 100 100 100 100 100 100 100 100 100
100 100 100 100 100 100 100 100 100 100 100 100 100 99 29 99 99 96 96 100 100 100 100 100 100 100 100 100 100 100 98 100 100 100 100 100 100 100 100 100 100 100 100 100 100
100 100 100 100 100 100 100 100 100 100 100 100 100 100 82 98 74 100 99 100 100 100 97 100 99 100 100 92 100 100 94 99 89 92 96 100 100 100 100 100 100 100 100 100 100
100 100 100 100 100 100 100 100 100 100 100 100 100 95 42 63 100 92 16 51 100 100 100 100 100 98 89 100 100 90 84 100 98 100 100 88 86 95 98 96 98 100 100 100 100
100 100 100 100 100 100 100 100 100 100 100 100 99 40 99 98 100 100 56 100 100 98 100 100 100 62 100 100 93 56 82 82 92 72 16 5 5 20 22 24 48 50 45 16 5
100 100 100 100 100 100 100 100 100 98 100 97 16 49 100 100 100 100 100 100 100 100 100 100 100 100 100 98 100 51 24 8 23 43 22 7 18 8 5 6 14 83 90 78 39
100 99 72 76 100 100 99 80 30 27 5 57 15 13 26 41 96 26 94 100 80 100 99 67 69 100 100 85 15 5 5 61 5 2 5 20 44 38 24 19 5 5 5 5 5
81 83 50 98 100 100 100 98 5 26 90 82 100 65 72 99 36 0 4 45 73 100 100 98 88 100 100 100 47 0 0 2 5 5 4 3 5 5 5 25 50 16 8 18 13
98 36 26 98 100 95 74 61 7 5 63 99 97 100 100 100 100 92 39 68 90 99 100 65 88 96 53 1 21 4 2 3 3 4 2 0 4 16 53 88 32 41 96 86 65
73 3 29 100 62 100 25 1 2 27 35 83 30 86 36 23 80 96 79 16 26 55 15 8 0 0 1 5 3 1 3 5 3 4 20 59 14 7 8 11 12 16 16 6 5
67 0 27 9 14 5 0 0 0 5 2 0 0 0 0 0 0 4 4 5 5 0 0 2 0 0 0 0 0 0 4 52 55 61 41 5 4 0 0 0 0 0 0 5 5
3 0 92 91 65 0 0 0 0 0 0 0 0 0 2 0 0 0 0 0 0 0 2 2 0 1 5 5 5 4 4 3 1 0 0 0 0 0 0 0 3 5 5 5 5
3 22 95 14 1 0 0 3 0 0 0 0 0 0 0 2 5 5 5 5 5 5 7 9 5 5 5 0 0 0 0 0 0 2 0 0 0 0 0 0 2 5 5 5 0
1 73 97 6 0 0 0 0 0 0 4 5 39 5 5 5 5 5 5 3 5 3 0 0 0 0 0 0 0 0 0 0 0 5 0 0 0 0 0 0 0 4 1 0 4
66 98 28 6 5 0 0 0 0 1 5 5 17 4 0 1 0 0 0 0 0 0 0 0 0 0 0 0 0 0 0 0 0 0 0 0 0 0 0 0 0 0 0 5 33
9 100 43 52 1 5 2 0 0 5 5 5 2 3 0 0 0 0 0 0 0 0 0 0 0 0 0 0 0 0 0 0 0 0 0 0 0 0 0 0 0 0 0 2 0
18 98 6 6 6 5 5 7 35 43 5 5 5 4 0 0 0 0 0 0 0 0 0 0 0 0 0 0 0 0 0 0 0 1 2 1 0 0 0 0 0 0 0 5 5
65 72 5 5 66 5 5 56 49 5 5 5 5 5 5 37 2 0 0 0 0 0 0 1 1 0 0 0 0 0 0 0 0 0 14 5 1 0 0 0 0 0 0 4 5
25 16 8 36 11 5 41 59 36 44 5 5 5 14 5 5 32 0 4 0 0 0 0 0 0 0 5 2 2 4 0 0 0 0 0 4 0 0 0 0 0 0 0 4 5
5 5 10 6 5 6 24 63 49 29 5 19 50 5 5 5 5 1 5 0 0 0 0 0 0 0 5 5 5 2 0 0 0 0 0 1 0 0 5 5 3 4 5 5 5
0 7 100 15 14 74 100 68 61 58 85 64 20 5 5 5 5 5 0 2 0 0 0 1 4 5 5 4 2 4 0 0 0 2 3 0 0 5 5 5 5 5 2 3 5
5 72 100 24 8 40 86 69 66 100 68 14 39 5 74 5 5 5 22 13 7 21 52 6 40 4 0 2 5 5 5 5 5 5 8 5 5 5 5 5 5 5 5 6 5
27 98 99 9 5 48 64 97 93 76 24 6 5 15 6 25 56 37 97 91 80 76 34 5 12 5 5 5 40 99 5 6 12 75 6 42 11 5 20 64 70 91 100 100 100

GFSSW_prec_cloud_009.txt.gz
Cloud_Cover
100 100 100 100 100 100 100 100 100 100 100 100 100 100 100 100 83 63 9 0 5 5 4 0 41 100 70 100 46 100 100 99 59 60 100 92 100 100 100 100 100 100 100 100 100
100 100 100 100 100 100 100 100 100 100 100 100 100 100 100 100 50 4 1 0 4 5 5 5 97 100 100 100 100 100 100 100 97 93 100 100 100 100 100 100 100 100 100 100 100
100 100 100 100 100 100 100 100 100 100 100 100 100 100 100 98 32 0 0 0 2 3 5 2 93 100 100 100 100 100 100 100 100 100 99 100 100 100 100 100 100 100 100 100 100
100 100 100 100 100 97 100 100 100 100 100 100 100 100 100 91 0 0 0 3 58 9 5 5 96 100 100 100 93 96 100 100 100 100 100 100 100 100 100 90 65 100 100 100 100
100 100 100 100 100 100 100 100 100 100 100 100 100 100 59 25 31 1 0 71 100 100 5 57 100 100 98 76 100 100 100 100 100 100 100 100 98 100 100 100 100 99 94 99 100
100 100 100 100 100 100 100 98 100 100 100 100 100 100 99 6 92 15 20 99 100 100 100 100 100 100 57 100 100 96 100 100 100 100 100 100 100 99 74 100 100 100 100 100 100
100 100 100 100 100 100 100 100 100 100 100 100 100 98 51 87 99 32 100 99 100 99 82 98 100 100 100 96 100 100 93 100 100 100 100 99 100 100 100 100 100 100 100 100 100
100 100 100 100 100 100 100 100 100 100 100 100 100 100 12 18 46 100 62 100 100 77 93 100 100 73 88 100 100 100 100 100 100 98 70 93 100 100 100 100 100 100 100 100 100
100 100 100 100 100 100 100 100 100 100 100 100 77 79 100 45 85 100 47 100 100 100 100 100 100 92 100 100 100 100 100 65 94 100 100 100 100 100 100 63 86 96 100 100 97
100 100 100 100 100 100 100 100 100 100 94 94 70 37 94 53 90 100 81 100 100 100 100 100 100 100 100 100 100 84 100 100 100 100 100 94 56 88 98 100 100 98 96 69 51
100 100 100 100 100 100 57 99 99 64 87 5 82 94 100 99 100 51 100 100 100 100 100 100 100 100 100 100 37 100 100 99 16 11 5 5 5 5 12 64 86 71 80 71 86
100 100 100 100 100 100 89 100 28 43 32 100 100 59 100 98 100 100 55 100 100 93 100 81 98 91 100 100 100 56 76 70 5 2 1 1 5 5 5 5 5 5 7 75 77
61 58 99 100 100 65 69 18 6 26 16 100 98 63 68 23 22 5 5 59 100 85 38 100 100 100 100 100 97 100 84 5 3 4 25 23 15 9 10 3 2 5 5 5 5
3 27 100 100 43 36 7 33 16 5 24 100 63 100 100 100 100 100 13 30 93 68 100 89 23 15 95 100 62 6 5 4 5 18 29 8 63 79 13 3 5 8 8 19 37
1 50 100 0 10 0 3 5 5 24 34 35 58 90 88 100 100 100 100 99 92 98 97 73 89 20 5 3 0 5 5 32 4 27 44 6 5 0 0 4 5 2 0 0 0
9 56 100 40 81 7 5 0 6 56 26 17 12 0 1 0 0 0 0 1 3 3 1 0 3 4 3 0 2 3 5 25 7 26 5 5 1 0 0 0 0 0 0 0 1
29 56 98 16 0 4 0 0 3 34 0 0 0 5 1 0 0 0 0 0 0 0 1 0 2 0 0 0 2 5 13 53 45 2 0 0 0 0 0 0 0 0 0 1 5
46 98 100 11 4 0 0 0 3 0 0 0 0 0 0 0 0 0 0 0 0 0 0 2 5 5 5 2 0 0 0 0 0 0 0 0 0 0 0 0 0 0 0 0 0
94 100 78 26 5 0 0 0 0 0 0 0 0 1 0 4 5 5 5 4 2 0 0 0 0 0 0 0 0 0 0 0 0 0 0 0 0 0 0 0 0 0 0 3 4
32 45 17 97 4 1 1 2 0 0 0 0 5 5 5 4 0 0 0 0 0 0 0 0 0 0 0 0 0 0 0 0 0 0 0 0 0 0 0 0 0 0 0 0 0
0 29 5 100 1 5 4 0 0 3 5 4 5 0 0 0 0 0 0 0 0 0 0 0 0 0 0 0 0 0 0 0 0 0 0 0 0 0 0 0 0 0 4 5 0
0 97 21 100 5 5 5 3 5 5 5 2 0 0 0 0 0 0 0 0 0 0 0 0 5 0 0 0 0 0 0 0 0 0 2 0 0 0 0 0 3 5 5 5 0
5 94 5 96 36 10 29 13 5 5 5 5 0 0 0 5 17 2 0 0 0 0 0 0 3 0 0 0 0 0 1 0 0 0 0 1 0 0 2 5 17 5 5 0 5
5 46 4 41 13 10 12 73 5 5 5 5 1 0 2 3 5 44 5 11 0 0 0 0 0 0 0 0 4 5 1 0 0 0 0 5 6 6 6 5 5 5 4 5 12
14 5 94 69 15 52 10 6 5 7 5 5 5 4 5 5 5 5 5 5 5 0 3 0 0 0 4 5 5 5 5 4 5 5 5 5 5 75 10 5 5 5 5 63 95
61 93 100 54 9 67 62 32 5 31 6 19 21 5 5 5 5 5 5 5 5 5 6 5 5 5 5 5 5 54 23 3 5 5 5 5 5 4 5 5 5 11 89 42 79
100 90 100 19 5 8 58 84 42 80 13 51 5 5 5 5 5 5 5 11 9 16 13 30 14 5 67 29 55 100 27 5 5 5 5 6 5 5 5 23 88 100 28 45 30

GFSSW_prec_cloud_012.txt.gz
Cloud_Cover
100 77 100 100 100 100 100 100 100 87 100 100 100 100 100 79 43 0 0 50 9 73 41 5 5 5 9 100 88 100 59 79 91 74 96 80 97 100 100 100 100 100 94 100 100
100 79 100 91 100 100 100 100 100 95 100 100 100 100 100 77 0 0 0 10 20 5 7 49 16 0 26 100 96 100 72 100 99 94 98 100 99 100 100 100 100 100 100 90 100
89 96 34 62 96 100 90 100 100 100 100 100 100 100 35 48 0 0 0 0 5 5 24 50 6 5 100 100 100 100 100 100 100 100 100 97 100 98 100 100 100 100 100 100 100
100 100 100 100 100 100 100 100 100 94 100 100 100 100 98 4 1 0 0 0 0 5 100 5 10 5 100 100 100 100 100 100 100 100 100 100 99 98 75 97 85 100 100 100 100
98 49 100 100 100 100 100 100 100 90 100 100 100 100 5 7 6 46 0 0 8 63 86 55 29 80 100 100 100 100 100 100 100 100 100 100 96 74 100 88 41 30 94 96 98
100 100 100 100 100 100 84 100 95 99 100 100 100 97 3 64 14 22 5 90 100 98 86 97 94 100 100 100 100 100 100 100 100 100 100 100 100 100 100 100 100 100 99 77 95
100 100 100 100 100 100 59 92 76 100 100 100 100 9 4 19 12 95 30 81 99 15 63 100 100 100 100 100 100 100 100 100 100 100 100 100 100 100 100 100 100 100 100 100 100
66 100 100 100 100 100 67 76 59 100 100 92 98 79 7 8 14 100 71 99 99 38 100 100 100 100 100 100 100 100 100 100 100 100 99 100 100 100 100 100 100 100 100 100 100
15 100 100 100 100 100 95 64 98 100 100 99 52 44 6 2 18 100 100 99 50 99 100 100 100 100 100 100 100 100 100 100 95 100 100 100 100 100 100 100 100 100 100 100 99
22 100 100 100 100 100 97 74 100 99 80 31 13 6 57 74 60 100 46 61 98 51 78 100 100 100 100 100 100 100 97 100 100 100 99 99 100 100 87 98 100 55 64 92 79
36 100 100 100 100 100 57 0 10 26 5 2 4 100 100 97 39 100 94 85 100 97 100 100 100 100 100 100 100 100 100 100 100 100 98 90 100 100 92 55 39 37 45 93 100
78 100 100 100 100 95 14 0 0 2 2 10 5 100 86 100 100 90 61 54 100 100 100 100 100 100 100 100 100 100 100 100 100 94 45 64 61 63 33 14 14 89 94 66 8
97 100 100 100 100 65 0 0 0 0 3 4 66 84 28 100 95 100 76 99 100 100 100 100 100 100 100 100 100 100 80 100 82 67 6 5 2 1 1 2 5 70 50 39 11
100 46 100 100 27 0 0 0 0 4 1 5 5 17 5 44 82 89 13 100 100 99 100 94 100 100 100 100 100 100 96 90 81 32 24 5 71 2 0 1 5 5 5 5 5
100 98 100 1 0 0 0 0 0 0 3 26 56 39 96 51 50 79 100 93 100 100 87 92 100 100 46 100 100 64 17 8 5 5 5 5 2 4 1 5 20 41 6 4 0
100 73 100 68 3 0 0 0 0 0 5 5 57 72 45 100 100 100 100 100 100 100 100 92 91 15 57 51 5 3 5 5 65 16 0 2 4 61 60 12 0 0 0 0 0
100 40 100 2 0 0 3 0 0 2 5 5 10 9 5 5 9 87 73 100 100 87 47 7 26 9 3 5 4 5 5 5 5 3 5 6 1 0 0 0 0 0 0 0 0
100 97 100 1 0 0 0 0 0 2 0 5 2 0 0 0 0 0 0 0 1 0 0 1 0 3 5 2 1 3 5 16 5 3 0 0 0 0 0 0 0 0 0 1 5
100 100 100 4 0 8 0 0 0 0 0 0 0 0 0 0 0 0 0 0 0 0 1 0 0 0 5 20 69 57 6 0 0 0 0 0 0 0 0 0 0 1 3 0 5
100 86 2 0 4 5 5 0 0 0 0 0 0 0 0 0 0 2 2 3 4 5 5 2 3 3 0 0 0 0 0 0 0 0 0 0 0 0 0 0 3 0 0 4 6
4 0 16 4 4 27 5 0 0 0 0 0 0 0 5 5 6 5 5 2 1 0 0 0 0 0 0 0 0 0 0 0 0 0 0 0 2 2 0 0 1 4 5 55 26
0 2 9 5 1 97 3 5 3 0 5 0 5 5 5 7 1 0 0 0 0 0 0 0 0 0 0 0 0 0 0 0 5 5 0 0 5 3 0 0 5 5 6 21 5
1 18 13 5 13 100 10 5 5 5 5 5 5 1 4 0 0 0 0 0 0 0 0 0 0 1 1 0 0 0 2 5 5 5 5 28 0 0 4 5 5 5 5 2 5
24 63 1 4 20 94 15 5 5 8 5 5 4 0 0 0 4 5 0 0 0 0 0 0 0 0 3 5 5 5 8 39 5 5 2 0 1 5 5 5 8 12 5 5 5
40 27 0 73 17 88 6 5 7 68 47 5 5 0 0 3 5 5 5 0 4 4 5 4 5 5 5 5 6 45 88 6 5 4 0 5 2 5 39 11 97 5 5 5 17
12 59 6 77 100 68 8 48 93 63 32 5 5 5 5 5 3 3 5 5 5 5 5 8 38 43 40 5 45 100 59 5 5 1 5 5 5 5 5 26 6 5 5 5 100
82 100 13 18 82 5 78 100 100 52 8 5 5 5 5 2 0 0 3 5 5 5 5 15 5 5 5 9 97 100 25 5 5 2 5 5 5 6 9 5 6 5 14 100 100

GFSSW_prec_cloud_015.txt.gz
Cloud_Cover
65 100 85 0 66 3 2 0 82 100 98 100 94 6 98 100 51 0 0 0 9 3 22 31 69 80 100 94 83 100 100 100 96 14 98 66 14 10 4 2 91 100 96 100 84
4 100 100 55 46 3 72 22 71 100 92 79 100 13 44 99 0 0 0 0 5 1 58 100 84 53 100 62 19 100 100 100 28 81 100 31 88 36 95 10 50 94 100 91 100
5 100 100 100 100 29 63 66 45 100 100 100 81 25 67 49 2 0 0 0 0 0 9 100 100 41 94 31 87 100 91 100 93 100 96 68 18 46 35 100 100 84 100 87 65
5 9 100 100 100 32 25 9 100 100 100 100 0 2 87 8 3 0 0 0 0 0 58 97 51 51 62 94 100 100 100 94 100 100 100 57 96 100 96 100 100 100 100 100 97
0 4 100 100 100 100 44 7 100 98 80 97 34 51 70 5 0 4 5 0 0 3 100 100 12 80 100 100 100 100 100 98 100 100 100 100 100 100 90 99 100 100 100 100 95
1 5 100 100 100 100 100 69 100 64 90 100 75 9 46 0 40 19 22 1 2 42 54 100 74 92 100 95 100 100 100 100 100 100 97 100 100 100 100 36 26 31 18 100 86
5 3 100 64 100 100 100 100 100 34 96 96 31 5 0 5 2 85 87 57 100 89 95 100 100 96 93 100 100 100 100 100 100 100 100 100 100 100 97 100 62 99 100 100 100
4 5 69 100 100 100 98 100 99 54 0 93 16 0 56 40 2 56 5 73 68 99 94 100 64 92 100 100 100 100 100 100 100 100 100 100 100 100 99 89 78 99 69 100 100
5 10 0 100 100 100 100 80 5 14 0 0 5 0 1 8 7 5 14 100 58 18 91 100 40 99 100 100 100 100 100 100 100 100 100 100 100 100 96 66 100 100 100 100 100
5 3 5 100 100 100 100 54 1 28 13 0 0 0 0 57 36 90 31 84 34 92 71 98 100 100 100 100 100 100 100 100 100 100 82 100 100 100 50 40 100 85 93 100 100
5 5 5 85 98 97 57 4 3 4 0 0 0 0 98 66 0 55 100 71 100 100 100 100 100 100 100 100 100 100 100 100 99 99 100 100 100 94 100 100 97 100 100 100 80
10 5 85 53 100 100 20 5 5 5 0 0 0 0 5 86 100 26 100 92 100 99 100 100 100 100 100 100 100 100 100 100 100 99 100 100 100 86 66 78 74 74 68 64 42
94 5 96 100 100 75 52 11 5 2 0 0 0 3 5 5 76 76 100 100 100 100 100 100 100 100 100 100 100 100 100 100 100 100 83 100 87 64 76 32 5 4 3 5 5
5 93 100 100 100 100 100 79 5 4 1 0 0 0 0 5 49 100 16 76 100 100 100 97 100 100 100 100 100 100 100 100 94 36 29 7 97 68 4 3 4 5 5 4 4
37 100 100 100 100 100 100 100 5 5 5 56 5 2 0 1 4 36 10 9 100 100 100 100 100 100 100 100 99 100 99 99 100 15 100 40 2 97 100 5 6 5 3 12 70
100 100 100 100 100 100 100 100 31 5 36 3 0 3 1 5 0 4 27 38 90 100 77 100 99 99 97 97 100 100 100 99 28 99 58 26 87 100 89 95 52 6 4 1 0
100 100 100 100 100 100 100 100 5 5 2 0 0 5 2 4 6 87 100 100 88 81 93 90 96 100 100 95 100 100 96 64 62 100 17 86 21 84 100 49 4 0 0 0 0
100 100 100 100 100 100 100 100 75 5 17 0 0 0 5 5 0 15 90 100 100 100 100 100 100 100 97 46 98 8 93 30 100 86 100 65 3 3 0 0 0 0 0 0 0
100 100 100 100 80 100 100 100 98 10 5 0 0 0 4 3 5 5 5 96 36 6 100 92 100 99 18 5 5 83 5 4 32 43 1 0 16 20 0 0 0 5 0 0 0
93 100 100 100 100 100 100 100 86 5 2 0 0 0 5 1 0 0 5 71 4 4 4 29 89 5 5 7 5 5 8 3 0 0 3 84 47 29 0 0 0 0 0 0 0
100 100 100 100 100 100 100 100 32 0 0 0 0 0 5 5 0 1 77 2 0 2 5 5 9 16 5 4 8 4 0 0 1 9 4 0 10 0 0 0 0 0 1 0 3
100 100 100 100 100 100 100 100 5 5 0 0 0 0 0 5 4 5 14 5 5 12 5 4 2 4 2 1 0 0 5 4 0 0 0 0 1 0 5 3 0 5 1 5 8
100 100 100 100 100 100 100 65 4 5 0 0 0 0 5 7 13 5 5 3 4 0 0 0 0 5 5 0 0 0 0 0 0 0 4 24 4 3 5 0 4 18 21 16 8
100 100 100 100 100 74 5 5 5 2 5 3 4 5 86 61 33 5 5 0 0 0 0 0 0 2 5 92 11 0 3 5 5 5 5 0 0 0 2 5 8 5 2 0 2
100 97 100 100 31 87 5 5 4 1 5 5 4 68 56 6 5 5 5 0 0 0 0 0 0 2 5 1 3 6 19 52 5 5 5 0 0 0 5 5 5 5 5 5 5
57 69 52 11 5 92 11 3 5 9 5 3 23 98 51 5 4 9 4 5 3 0 0 0 5 2 0 1 9 48 32 5 3 5 5 0 5 5 5 5 5 5 5 6 5
96 86 94 100 6 34 6 5 16 53 4 5 76 100 11 5 5 4 4 2 5 5 5 5 4 5 5 5 5 85 5 5 0 0 0 5 5 5 2 3 5 5 5 5 10

GFSSW_prec_cloud_018.txt.gz
Cloud_Cover
5 5 5 100 41 99 1 28 2 0 2 8 57 95 5 34 50 0 0 0 0 0 0 0 99 93 100 100 100 70 73 100 100 99 100 98 100 100 9 59 5 28 100 100 100
5 5 3 100 100 100 100 69 89 0 90 85 81 32 10 57 0 21 5 0 0 0 0 0 61 100 100 86 18 42 96 69 73 100 100 100 100 100 54 68 6 97 100 100 100
18 5 5 87 100 100 92 8 0 49 49 78 53 0 0 2 0 40 2 0 0 0 0 0 5 100 37 78 92 83 73 99 96 99 100 100 100 100 75 33 77 92 99 100 100
35 5 5 0 99 100 100 7 29 16 50 100 47 0 0 0 0 0 0 0 0 0 2 62 93 100 58 100 84 93 100 100 100 100 100 100 95 100 99 53 100 100 100 100 100
100 57 5 5 98 96 100 100 97 64 100 10 11 0 0 0 0 0 2 5 0 0 44 100 89 100 85 100 97 99 91 98 92 100 100 100 100 100 78 87 100 100 100 100 100
94 5 4 0 63 100 100 100 84 90 84 0 0 0 0 0 4 0 4 25 2 1 5 100 79 99 93 98 83 98 100 100 100 100 100 100 100 29 100 100 100 100 100 88 100
27 19 5 5 51 100 98 100 31 69 2 0 0 0 0 4 4 0 5 6 100 98 31 100 77 59 79 100 92 100 100 100 100 100 100 100 100 49 96 84 92 100 100 100 100
100 87 5 5 6 86 61 100 62 24 1 0 0 0 0 0 0 0 1 12 100 92 57 97 85 100 87 98 100 100 100 100 100 100 100 100 100 7 21 14 10 40 99 100 100
100 99 70 16 12 70 53 0 0 5 0 0 0 0 0 0 39 0 3 82 8 99 18 34 70 91 68 82 100 100 100 100 100 100 100 100 98 100 63 100 100 97 88 68 7
100 100 100 100 56 5 9 0 4 0 0 0 0 0 0 0 0 0 2 79 5 51 3 62 77 95 100 100 100 100 100 100 100 34 85 96 100 100 90 100 100 10 8 32 99
100 100 100 100 52 45 19 4 1 5 0 1 5 0 1 5 44 3 68 18 18 77 5 44 97 100 100 100 100 100 100 100 100 76 100 100 100 100 81 100 100 58 76 59 83
100 100 100 100 95 100 72 4 8 3 5 5 4 0 0 0 0 12 4 6 70 80 100 98 91 100 100 100 100 100 100 100 100 81 84 96 76 100 100 99 100 37 56 72 7
100 100 100 100 100 98 65 5 5 5 29 18 2 0 0 0 0 43 15 79 95 77 100 99 84 100 100 100 100 100 100 97 82 99 100 100 100 98 90 36 49 62 47 5 8
100 100 100 99 100 80 5 5 16 66 63 42 0 0 0 0 0 44 79 73 99 100 100 91 100 98 100 100 100 100 80 79 100 96 99 92 100 100 97 88 59 3 1 0 48
100 100 100 82 100 53 24 23 8 67 7 5 5 0 0 0 0 3 23 74 99 50 100 98 97 100 100 100 86 96 96 20 100 78 100 100 51 91 96 100 99 5 5 5 0
100 100 100 100 88 5 5 24 51 100 86 5 14 0 4 1 3 56 9 0 43 98 72 99 79 100 93 100 100 76 37 59 68 100 100 99 96 94 53 100 100 96 30 9 15
100 100 100 100 40 95 9 35 38 100 12 41 5 5 4 5 5 3 23 0 46 100 57 100 100 96 100 100 80 64 96 69 100 100 99 81 100 99 94 88 100 100 100 25 0
100 100 100 100 100 100 100 98 43 100 6 44 5 5 5 94 5 0 5 0 37 100 99 99 99 75 76 100 100 85 96 100 100 100 100 16 92 92 58 60 49 100 28 0 0
100 100 100 100 100 100 100 75 100 100 23 61 6 5 5 100 5 8 6 47 100 100 55 100 86 100 100 100 100 14 100 84 92 93 60 48 66 20 5 4 3 3 0 0 0
100 100 100 100 100 93 93 64 100 100 100 96 5 5 24 80 4 5 48 4 63 99 99 100 100 66 57 34 18 13 42 5 5 5 17 93 34 99 35 19 0 0 0 0 0
100 89 100 100 83 86 37 100 100 95 97 100 5 17 5 82 2 2 28 86 79 99 62 100 100 100 32 81 6 8 5 5 5 61 22 2 6 4 0 0 0 0 3 1 0
100 100 100 97 60 59 86 100 100 100 100 54 25 51 3 100 5 5 70 97 22 5 5 27 66 66 61 89 6 7 78 20 6 1 0 0 0 0 0 0 0 0 0 0 0
97 90 94 100 53 52 100 100 100 100 99 80 4 6 3 91 91 5 10 5 1 3 3 5 5 5 7 68 6 4 0 0 84 2 0 25 0 0 0 0 0 0 0 0 0
98 28 100 87 88 86 100 100 100 91 96 85 10 5 5 2 5 5 26 48 31 38 5 5 3 0 0 9 71 93 0 1 1 0 0 0 0 2 0 0 0 0 0 1 5
87 15 78 99 60 99 100 100 100 100 100 89 7 0 4 0 5 15 33 55 32 3 1 0 0 0 1 21 68 96 37 41 4 0 0 0 0 0 1 1 0 0 5 14 2
100 100 97 100 100 100 100 100 100 100 99 28 39 5 5 5 5 6 94 7 4 0 0 0 0 0 0 0 4 4 0 0 0 3 5 0 3 0 0 2 5 5 5 5 5
49 100 100 100 100 100 100 100 100 100 100 5 5 40 19 78 59 14 15 99 6 5 4 4 4 1 0 5 5 5 0 0 3 5 1 5 5 5 0 5 4 2 5 6 29

GFSSW_prec_cloud_021.txt.gz
Cloud_Cover
71 100 100 100 86 100 100 100 0 0 0 0 0 20 0 1 0 0 0 0 0 0 0 0 0 0 56 100 100 100 100 100 93 100 79 77 100 100 100 100 6 3 7 78 100
87 100 100 100 98 100 100 100 22 0 0 0 0 1 0 0 4 0 0 0 0 0 0 0 0 1 81 100 100 100 100 74 73 72 100 100 100 100 91 92 7 100 100 100 100
100 100 100 100 100 85 100 100 66 2 0 0 2 4 0 0 0 0 0 0 0 0 0 0 0 16 100 100 100 100 100 100 59 100 100 100 100 100 87 5 54 100 100 100 100
100 100 100 100 100 92 100 100 100 100 24 0 0 0 0 0 0 0 0 0 16 0 0 5 0 68 100 100 100 100 100 91 70 100 100 100 100 100 53 52 29 100 100 100 100
100 100 100 100 100 56 100 100 100 45 77 8 0 0 2 0 0 0 0 0 14 1 0 96 57 66 100 100 95 100 100 89 100 100 100 100 100 70 100 14 44 100 100 100 100
100 100 100 100 100 86 36 100 100 0 3 0 0 0 16 0 0 0 0 0 24 3 2 81 65 80 100 100 100 100 100 89 100 100 100 100 100 100 100 87 57 100 100 100 100
100 100 100 100 100 100 79 36 99 0 0 0 0 0 0 0 0 0 0 0 100 96 60 11 73 100 90 92 100 82 99 100 100 100 100 100 100 100 100 91 95 78 100 100 100
100 100 100 100 100 100 64 10 0 0 0 0 0 0 1 0 0 0 0 8 14 6 13 8 100 100 62 61 100 100 100 100 100 100 41 81 100 100 90 81 63 80 100 100 100
100 100 100 100 100 100 61 10 2 2 0 0 0 0 4 0 0 0 0 3 0 11 24 10 13 25 58 100 36 100 100 100 100 100 93 46 88 100 89 98 100 100 100 100 100
100 100 100 100 100 100 82 5 5 0 0 0 0 0 0 0 0 0 1 1 1 2 4 30 64 62 100 60 98 100 100 100 100 100 100 79 98 100 98 100 100 100 100 97 100
100 100 100 100 100 100 93 55 5 5 0 3 0 0 0 0 0 0 0 0 1 60 48 5 19 61 92 100 100 100 100 100 100 79 100 88 90 94 92 100 100 100 100 100 100
100 100 100 100 100 100 100 6 37 1 0 14 2 0 0 0 0 0 0 0 2 4 1 6 50 69 78 99 82 100 98 100 100 90 13 100 100 100 99 99 100 100 100 100 100
100 100 100 100 100 100 99 8 22 0 0 8 2 0 0 0 0 0 0 6 4 98 87 80 46 100 100 97 90 100 66 100 100 100 92 46 100 100 64 100 75 100 100 81 77
100 100 100 100 100 100 88 100 1 5 1 94 2 0 0 0 0 0 3 10 6 78 19 42 40 73 99 62 39 75 99 90 62 66 95 22 76 81 100 100 100 49 95 25 6
100 100 100 100 100 100 99 5 0 35 5 42 3 0 0 0 1 0 14 100 6 45 18 98 100 94 96 80 6 98 82 100 100 97 99 46 97 100 100 95 99 47 11 18 9
100 100 100 100 100 65 46 36 56 68 72 5 4 0 0 0 5 0 3 9 3 50 45 28 100 100 100 99 100 88 91 82 96 99 100 73 70 100 90 16 49 79 90 11 5
100 100 100 100 100 82 100 86 18 63 11 4 2 5 5 2 7 4 79 0 24 67 28 80 100 99 100 100 80 100 92 80 83 94 95 70 100 100 94 75 37 90 100 69 62
100 100 100 100 86 100 100 48 99 5 80 2 5 4 5 0 1 5 100 3 0 0 99 100 72 100 100 100 100 83 83 96 89 100 100 87 83 53 22 78 7 100 100 75 65
100 100 100 100 100 100 100 98 4 100 72 6 5 6 2 3 8 4 17 10 2 0 13 84 12 96 100 100 100 100 61 96 100 100 100 100 97 5 4 5 4 50 100 97 6
100 100 100 100 100 100 96 35 36 100 99 17 15 46 5 5 28 92 3 0 0 0 6 41 26 4 100 99 43 100 98 76 44 99 100 90 39 5 10 33 22 4 4 70 100
100 100 100 100 48 99 74 56 100 98 8 16 24 30 6 31 74 13 1 46 28 98 74 89 83 100 100 95 25 50 29 16 3 5 32 20 24 6 5 2 0 0 0 0 0
100 100 100 100 69 71 71 36 100 84 16 81 64 47 39 91 99 14 0 100 98 8 100 100 100 65 95 36 6 48 27 94 5 5 6 5 37 20 0 0 0 0 0 0 0
100 100 100 100 84 17 19 31 100 65 99 100 100 100 8 100 98 30 3 23 97 90 82 5 97 100 98 8 5 6 12 77 73 32 5 4 0 0 0 0 0 0 0 0 0
100 100 100 97 80 66 91 77 100 46 80 99 100 83 75 100 100 58 1 54 5 5 4 3 4 36 8 5 10 71 8 21 17 3 1 0 0 0 0 0 0 0 0 0 0
100 96 98 100 70 9 54 100 98 5 96 100 100 100 96 13 100 100 32 1 5 5 26 36 10 6 5 1 6 12 5 90 62 2 1 0 0 0 0 1 0 4 0 1 49
100 66 92 48 87 0 13 100 100 100 100 69 100 83 5 71 3 5 2 5 5 5 5 5 5 0 0 0 0 4 4 3 5 0 3 1 1 0 0 0 5 0 5 5 5
100 96 100 15 19 0 1 96 98 100 100 100 100 100 42 4 1 1 3 1 39 20 20 4 0 1 0 0 0 0 0 0 0 0 0 0 0 1 0 3 5 5 9 2 0

GFSSW_prec_cloud_024.txt.gz
Cloud_Cover
100 100 100 100 100 93 100 100 100 100 0 0 0 3 1 0 0 0 0 0 0 0 0 0 0 0 0 0 9 100 100 100 98 40 55 8 38 100 100 60 74 76 13 97 100
100 100 100 100 100 89 87 82 100 100 40 0 0 1 0 1 2 0 0 0 0 0 0 0 0 0 0 8 46 100 100 100 47 79 100 86 92 100 100 84 87 100 100 100 100
100 100 100 100 100 100 100 100 100 100 74 20 8 0 0 0 6 0 0 0 0 0 0 0 0 0 1 16 99 100 100 100 40 58 60 100 100 100 11 100 100 90 100 100 100
100 100 100 100 100 100 100 100 100 100 36 0 7 0 0 0 0 0 0 0 0 0 0 2 2 4 21 48 100 100 98 84 63 99 100 100 100 100 100 100 100 100 100 100 100
100 100 100 100 100 100 100 100 100 100 14 3 13 0 0 0 0 0 0 0 3 3 0 11 8 81 62 93 100 100 79 98 100 100 100 100 100 99 72 72 100 100 100 100 100
100 100 100 100 100 100 100 100 98 68 5 2 4 0 0 0 0 0 0 0 3 3 5 0 34 5 100 100 100 51 81 100 100 100 100 100 100 95 76 99 100 100 100 100 100
100 100 100 100 100 100 100 100 100 51 5 5 5 0 0 0 0 0 0 0 2 0 5 2 41 5 100 100 100 99 91 100 100 100 100 100 100 90 100 100 100 100 100 100 100
100 100 100 100 100 100 100 100 100 12 5 5 5 2 0 0 0 0 0 0 0 0 0 0 42 53 98 100 100 100 100 100 100 100 100 59 6 48 100 100 100 100 100 100 100
100 100 100 100 100 100 100 100 100 28 7 5 5 0 0 0 0 0 0 0 0 0 0 4 3 100 61 99 50 100 100 100 100 100 100 100 100 100 99 15 73 100 100 100 100
100 100 100 100 100 100 100 99 100 69 11 5 5 1 0 2 0 0 0 0 0 0 0 4 3 100 100 78 100 91 100 100 100 100 100 100 100 100 100 98 64 22 98 100 100
100 100 100 100 100 100 100 82 99 7 94 5 5 0 5 2 0 0 0 0 0 0 0 4 5 5 68 98 99 100 32 99 100 96 100 100 100 100 100 100 100 79 100 100 100
100 100 100 100 100 100 100 100 100 100 54 31 5 0 5 3 0 0 0 0 0 0 0 1 2 5 100 64 99 85 50 100 100 100 88 98 100 100 100 100 100 69 100 90 91
100 100 100 100 100 100 100 100 100 100 97 12 2 0 2 0 0 0 0 0 0 0 2 7 95 92 82 73 78 31 100 100 100 99 71 54 100 97 100 100 100 100 80 29 54
100 100 100 100 100 100 100 100 100 90 100 98 4 5 0 0 0 0 0 0 0 0 5 91 99 58 100 99 100 100 100 97 80 100 100 100 24 33 97 95 100 100 100 100 100
100 100 100 100 100 100 100 100 100 100 100 44 5 2 0 0 0 0 0 0 0 5 51 92 5 66 100 72 97 82 100 91 100 100 78 38 45 20 78 94 71 96 100 99 97
100 100 100 100 100 100 100 100 100 100 100 8 5 0 2 0 0 0 0 0 1 4 24 27 78 36 100 100 91 13 34 66 98 100 20 17 48 11 69 100 42 100 100 98 56
100 100 100 100 100 100 100 100 100 100 91 5 5 0 1 0 0 0 1 0 3 3 74 3 12 64 47 60 48 97 99 96 78 92 80 80 67 76 89 29 5 85 39 6 56
100 100 100 100 100 100 100 100 100 100 72 5 5 3 5 2 5 0 0 0 5 1 7 32 16 50 90 89 52 36 100 100 89 16 5 18 56 100 96 72 60 65 0 1 5
100 100 100 100 100 100 100 100 100 100 100 12 3 0 34 4 4 0 0 0 0 0 0 31 13 23 10 61 94 90 41 5 45 9 5 24 5 96 31 15 26 4 4 1 0
100 100 100 100 98 100 100 100 100 100 86 1 0 0 1 0 4 0 0 0 0 0 0 70 77 98 96 16 90 95 28 72 73 100 5 11 6 53 70 21 8 3 0 0 0
100 100 100 100 96 100 100 100 100 100 22 3 0 0 5 0 3 2 0 0 0 0 0 19 87 4 31 52 53 77 83 18 88 44 5 10 9 49 100 5 5 5 5 0 0
100 100 96 100 100 85 100 100 100 100 84 2 0 5 5 5 5 5 2 0 2 5 4 60 2 78 92 98 49 43 68 12 6 1 8 34 0 0 3 5 54 0 0 0 0
100 100 100 55 100 51 76 72 100 100 6 2 4 11 5 53 40 5 24 0 0 0 4 6 82 84 61 3 85 6 11 5 3 36 5 1 0 6 0 0 0 2 4 0 0
100 100 100 98 38 92 100 100 100 100 38 5 18 100 6 78 100 6 3 5 5 20 88 77 92 50 82 94 10 79 8 5 36 5 5 5 0 3 0 0 0 0 0 0 0
100 100 92 100 95 95 100 100 100 40 7 67 31 81 63 100 94 4 2 3 5 4 70 51 80 25 96 6 56 28 45 2 5 5 0 0 0 0 0 0 0 2 0 0 0
100 80 93 100 100 80 97 100 100 100 100 100 97 100 91 75 5 5 88 3 68 29 31 80 5 5 5 20 3 1 0 0 3 90 46 4 0 0 6 5 5 0 2 5 5
100 99 92 67 52 93 81 100 100 100 97 86 100 20 43 94 20 5 43 93 86 6 1 0 5 3 0 0 0 0 0 0 0 70 35 5 5 5 0 0 3 5 5 3 0

GFSSW_prec_cloud_027.txt.gz
Cloud_Cover
100 100 100 100 100 100 100 100 100 100 100 100 81 72 38 0 3 0 0 0 0 0 0 0 0 0 0 0 0 0 12 100 95 100 77 100 98 59 98 100 100 100 97 74 100
100 100 100 100 100 100 99 100 100 100 100 100 98 100 6 5 37 0 0 0 0 0 0 0 0 0 0 0 0 2 12 100 92 100 86 100 95 100 100 100 100 100 99 100 100
100 100 100 100 100 100 100 100 100 100 100 100 74 98 5 2 10 0 0 0 0 0 0 0 0 0 0 2 4 3 78 99 56 100 98 100 100 100 100 94 100 100 100 81 100
100 100 100 100 100 100 100 100 100 100 100 100 100 100 31 13 0 0 0 0 0 0 0 0 0 0 96 94 58 6 100 100 84 100 100 100 100 100 100 59 96 100 98 100 100
100 100 100 100 100 100 92 64 100 100 100 100 100 100 6 1 2 0 0 0 0 0 0 0 1 0 5 5 58 100 99 100 100 100 100 100 100 100 100 96 100 100 100 100 100
100 100 100 100 100 100 100 60 100 100 100 100 100 100 5 5 2 0 0 0 0 0 0 0 1 4 0 5 100 88 100 100 100 100 100 100 100 100 100 100 100 100 100 100 100
100 100 100 100 100 100 100 100 100 100 100 100 100 94 5 6 4 0 0 0 0 0 0 0 2 63 5 89 99 100 100 100 100 100 100 100 87 100 100 100 100 100 100 100 100
100 100 100 100 100 100 100 100 100 100 100 100 100 15 55 18 4 0 0 0 0 0 0 0 0 70 68 93 88 100 100 100 100 100 100 100 100 100 100 100 100 100 100 100 100
100 100 100 100 100 100 100 97 100 100 100 100 93 5 60 12 5 0 0 0 0 0 0 0 0 12 47 100 82 88 100 100 100 100 100 100 92 100 100 100 100 100 100 100 100
100 100 100 100 100 100 100 50 100 100 100 100 100 5 22 14 4 0 0 0 0 0 0 0 0 24 18 29 100 100 100 100 100 100 100 100 100 94 100 100 100 100 100 100 100
100 100 100 100 100 100 66 100 86 98 100 100 91 5 5 5 5 5 0 0 0 0 0 0 0 4 100 28 88 99 100 100 100 100 100 100 97 100 100 100 100 100 100 100 100
100 100 100 100 100 100 99 99 100 100 100 100 86 81 48 5 5 3 0 0 0 0 0 0 0 0 5 63 32 100 100 100 100 98 100 98 78 99 63 98 97 100 100 100 100
100 100 100 100 98 100 89 100 100 100 100 100 100 100 67 7 5 5 0 0 0 0 0 0 3 12 100 100 96 100 100 100 100 100 100 100 95 100 99 10 5 94 99 92 100
50 100 100 100 99 100 100 100 100 100 100 100 99 100 100 50 41 5 0 0 0 0 0 0 0 52 100 86 78 100 97 100 100 100 100 100 100 100 99 71 69 20 6 49 23
7 30 100 100 100 100 100 100 100 100 100 88 100 100 100 26 40 5 0 0 0 0 0 0 1 50 71 86 89 63 100 53 92 12 62 91 78 100 100 98 38 59 35 72 100
100 100 100 100 100 100 100 100 100 100 99 100 100 94 100 22 30 2 0 0 0 0 0 5 0 5 22 82 81 100 100 47 29 85 92 47 75 46 91 100 78 77 80 8 21
100 100 100 100 100 100 100 100 100 100 100 100 100 92 100 55 5 5 1 0 0 0 1 5 1 2 5 75 66 75 95 100 100 83 35 32 6 27 56 99 62 72 100 40 6
100 100 100 100 94 86 100 100 100 100 100 100 100 99 53 5 4 3 0 0 0 2 34 5 4 0 7 52 95 41 60 100 100 70 78 72 34 93 57 44 99 51 60 44 99
95 66 100 100 96 83 99 100 100 100 100 100 100 100 99 5 5 0 0 0 0 0 4 2 4 5 5 7 24 93 100 77 79 36 50 41 5 14 37 98 7 5 40 40 40
86 68 100 100 100 100 81 100 100 100 100 100 100 100 82 5 0 0 0 0 0 0 0 0 4 5 5 5 25 94 40 30 20 13 5 45 51 5 26 5 5 18 4 5 5
98 98 100 100 100 99 88 90 100 100 100 100 100 100 38 5 1 0 0 0 0 0 0 0 0 4 5 99 79 100 12 75 64 56 5 10 49 6 5 5 4 5 3 5 5
100 93 100 100 100 92 100 100 100 100 55 100 100 100 72 5 5 0 5 5 2 0 0 0 0 0 18 66 8 5 10 34 6 3 5 4 4 2 5 87 97 95 5 5 5
100 100 100 100 100 100 100 100 100 100 99 40 76 94 98 52 26 5 5 0 0 2 5 0 0 0 1 4 65 5 4 5 1 0 5 1 0 5 5 6 54 71 5 0 0
100 100 100 87 100 100 100 100 100 100 100 100 95 69 93 59 30 8 5 2 0 4 5 5 0 0 2 5 60 6 36 4 5 5 23 5 3 96 81 74 96 3 5 4 0
100 98 36 100 100 100 100 100 100 100 100 68 13 91 100 64 78 70 5 0 1 0 5 4 1 13 75 100 32 1 4 6 6 10 5 3 1 0 2 25 1 5 5 1 0
100 92 100 89 100 28 100 100 100 100 100 100 100 100 74 100 100 98 5 0 0 1 5 5 5 28 95 6 5 4 5 6 5 33 3 0 0 0 0 0 0 0 0 0 5
100 100 96 100 100 99 87 100 100 100 100 100 100 100 100 100 96 29 5 2 18 0 42 33 4 5 5 4 0 5 82 78 19 0 0 0 0 0 0 0 0 0 0 0 0

GFSSW_prec_cloud_030.txt.gz
Cloud_Cover
100 100 100 100 100 100 100 100 100 99 100 100 100 100 100 100 100 93 30 0 0 0 0 0 0 0 0 0 0 0 6 79 70 100 64 100 100 100 100 100 100 70 100 90 100
88 100 100 100 100 100 100 100 100 100 100 100 100 100 100 100 100 100 33 0 0 0 0 0 0 0 0 0 0 0 99 98 100 100 100 100 100 100 100 100 100 100 100 100 100
100 100 100 100 100 100 100 100 100 100 100 46 100 100 100 100 100 100 2 0 0 0 0 0 0 0 0 0 3 4 100 100 100 100 100 100 100 100 100 100 100 100 100 100 100
100 100 100 84 94 100 100 100 100 100 86 100 100 100 100 100 100 81 5 0 0 0 0 0 0 0 0 0 4 65 100 100 100 100 84 100 100 100 100 100 100 100 100 100 100
100 100 100 100 100 99 100 100 100 100 100 100 100 100 100 100 100 30 2 0 0 0 0 0 0 0 0 1 28 61 98 99 96 100 100 100 100 100 100 100 100 100 98 98 100
100 100 100 100 100 94 100 81 100 100 100 97 100 100 100 100 100 22 0 0 0 0 0 0 1 4 1 6 13 92 100 57 100 100 100 100 100 100 100 100 100 100 99 100 100
100 100 100 100 100 100 100 100 100 100 90 99 100 100 100 96 5 0 0 0 0 0 0 0 0 5 5 100 90 100 100 100 100 100 100 100 100 100 100 100 100 100 100 100 100
100 100 100 100 100 100 100 100 100 100 100 100 95 100 100 92 9 5 1 0 0 0 0 0 0 4 5 100 17 55 100 99 100 100 100 100 100 100 100 100 100 100 100 100 100
100 100 100 100 100 100 100 100 100 100 100 100 99 100 100 73 13 5 5 0 0 0 0 0 0 0 3 94 100 97 100 98 100 96 99 98 100 100 100 100 100 100 100 100 100
94 98 100 100 100 100 100 100 100 100 100 100 50 100 100 97 24 5 3 0 0 0 0 0 0 0 0 71 100 98 85 57 84 56 99 64 93 100 100 100 100 100 100 100 100
98 100 91 100 100 100 100 100 100 100 100 100 100 100 100 100 100 57 2 0 0 0 0 0 0 0 0 5 22 100 100 100 100 100 88 84 100 100 100 100 100 100 100 100 100
100 100 100 81 100 98 100 100 100 100 100 100 100 100 100 100 100 95 3 0 0 0 0 0 0 0 0 2 35 60 100 73 100 100 37 94 100 100 100 100 100 100 100 100 100
100 100 100 100 100 99 99 100 100 100 47 95 100 100 100 78 100 100 28 0 0 0 0 0 0 0 30 100 94 18 89 100 100 100 58 49 100 100 100 100 100 100 100 100 100
100 100 100 100 100 100 100 100 100 100 87 100 100 100 100 30 100 100 41 5 5 0 0 0 0 0 61 5 49 100 48 99 100 99 99 19 73 100 82 100 100 100 100 100 100
100 99 100 100 100 100 100 100 84 99 100 90 55 94 100 36 100 36 47 5 5 0 0 0 5 4 5 4 2 8 5 77 100 100 100 96 75 8 5 77 86 100 100 100 100
100 58 89 100 100 96 89 100 55 95 100 62 63 100 100 99 100 76 86 5 4 0 0 0 2 5 0 0 5 17 6 11 75 100 94 100 100 58 5 5 20 34 36 58 41
100 93 57 100 100 27 96 99 98 88 100 100 100 100 100 27 78 97 72 5 4 0 0 0 2 1 5 4 0 87 11 23 57 100 100 100 100 21 52 34 11 9 5 9 5
100 95 15 100 100 22 42 100 98 60 100 100 100 99 96 17 88 100 100 8 5 0 2 2 0 0 0 5 15 8 6 5 8 80 57 94 100 100 100 19 32 5 5 5 21
100 100 6 100 100 100 69 99 71 100 100 94 100 100 24 8 100 100 100 7 5 0 0 2 2 3 3 5 5 5 5 5 6 5 5 5 14 64 100 100 63 16 6 9 5
100 100 67 97 100 100 100 59 100 100 100 100 100 100 100 99 88 100 100 90 6 4 0 0 2 5 13 59 10 5 3 69 70 5 6 5 5 19 92 100 100 100 100 100 88
100 100 22 97 100 100 97 86 100 100 100 100 100 100 100 57 100 100 100 44 5 0 0 0 0 4 5 35 63 6 5 5 5 57 34 59 92 7 9 26 90 100 100 99 44
100 100 2 100 100 100 100 100 100 100 100 100 100 100 100 100 74 99 100 59 5 4 2 0 0 0 0 8 74 5 91 43 5 31 28 35 100 91 12 16 92 27 11 36 7
100 100 30 75 99 96 100 100 100 100 100 100 100 100 100 100 39 100 100 94 60 5 3 0 0 0 0 0 2 4 86 6 5 6 9 2 4 5 5 5 60 100 98 34 5
100 100 61 69 0 22 100 100 100 100 100 100 100 100 100 100 77 95 58 37 21 5 3 25 4 0 0 0 3 2 5 5 12 24 5 5 2 0 1 9 88 92 5 5 2
84 100 96 100 94 21 98 100 100 100 100 100 100 100 100 100 100 100 50 24 7 2 4 16 8 5 1 0 6 0 3 2 0 5 33 16 5 6 97 52 100 95 5 0 0
100 90 69 93 63 56 100 100 100 100 100 100 100 100 100 100 99 100 100 61 40 5 5 49 3 5 5 5 1 4 5 6 5 5 54 6 44 4 4 0 0 0 0 0 0
76 67 58 64 100 100 54 100 100 100 100 100 100 100 100 100 100 100 100 100 66 6 2 4 0 4 5 73 59 8 72 10 10 6 4 14 88 0 0 0 2 2 0 0 5

GFSSW_prec_cloud_036.txt.gz
Cloud_Cover
100 100 100 100 100 99 100 81 100 100 100 94 92 79 42 96 100 74 5 5 5 1 0 0 0 0 0 0 0 0 1 5 33 67 52 23 100 100 100 73 100 71 100 98 100
100 100 100 100 100 100 95 78 98 98 100 100 94 78 46 100 93 5 5 5 5 5 0 0 0 0 0 0 0 0 4 5 5 16 32 99 100 100 100 100 100 100 100 100 100
93 100 100 98 100 100 78 98 100 93 100 100 99 72 98 99 52 2 5 18 5 2 0 0 0 0 0 0 0 0 54 5 3 80 89 100 100 100 100 100 100 100 100 100 100
16 4 100 100 93 100 100 28 97 99 100 100 100 88 100 100 9 5 5 78 5 0 0 0 0 0 0 0 0 0 5 3 6 100 57 100 22 60 100 100 100 100 100 100 100
3 0 56 100 100 100 100 100 100 100 100 100 100 100 38 6 5 11 67 16 5 0 0 0 0 0 0 0 0 0 5 40 82 78 53 71 75 87 100 100 100 100 100 100 100
6 4 6 98 100 100 100 100 100 100 100 100 81 100 41 8 89 86 44 5 3 0 0 0 0 0 0 0 2 1 0 16 5 99 97 100 100 19 74 100 100 100 100 100 95
100 94 92 8 92 100 100 100 100 100 100 56 98 57 47 100 100 5 5 5 0 0 0 0 0 0 0 0 0 5 6 11 48 97 100 94 100 100 100 100 100 99 100 100 100
100 99 76 64 91 100 96 100 100 100 100 99 100 100 100 79 30 4 4 5 2 0 5 2 0 0 0 0 1 5 32 100 100 76 86 69 92 99 100 100 100 100 100 100 100
100 100 84 87 91 99 100 100 81 100 100 100 100 100 100 80 6 4 4 3 0 2 11 5 3 0 0 0 5 8 100 98 61 100 92 39 96 87 97 100 100 100 100 100 100
100 100 100 72 84 99 100 96 99 95 98 89 100 100 92 100 57 60 5 5 4 0 5 5 0 0 0 0 78 100 100 99 100 24 61 99 63 63 100 100 100 100 100 100 100
100 100 100 85 99 92 41 95 92 60 8 29 98 31 5 88 58 12 46 5 5 0 2 3 2 3 0 2 3 1 8 98 76 5 100 100 100 96 100 100 100 100 100 100 100
100 100 100 16 6 94 77 82 96 100 100 36 14 100 6 42 87 58 84 45 33 92 25 3 5 1 5 4 0 0 3 56 79 73 88 100 88 82 82 100 100 100 100 100 100
100 100 100 100 99 99 100 100 100 100 100 100 90 100 7 41 100 94 98 100 100 65 9 1 5 5 5 4 0 0 6 5 91 74 100 87 97 73 100 91 97 92 100 98 100
100 100 100 100 67 100 98 100 100 100 100 100 100 98 20 91 100 100 100 100 100 31 5 4 5 5 4 1 1 6 1 0 5 100 100 80 100 69 92 99 100 100 100 100 73
100 100 100 100 100 100 100 100 100 100 100 100 100 100 100 100 100 100 100 100 95 100 5 26 5 5 5 2 0 39 5 5 5 62 100 100 100 100 44 100 100 100 100 100 100
100 100 100 94 100 100 100 100 100 100 100 100 100 100 100 95 100 100 100 100 52 5 80 6 5 26 5 4 4 0 2 5 5 79 100 100 100 100 55 69 78 100 100 100 100
100 100 100 100 100 100 97 84 98 97 100 100 100 100 100 100 100 100 100 100 80 5 5 80 5 42 5 4 4 1 5 88 98 93 100 98 82 100 51 45 6 38 77 52 94
98 100 99 100 100 100 100 100 6 78 100 100 100 100 100 100 100 100 100 100 100 98 5 5 5 5 5 7 6 0 74 92 100 49 94 17 100 89 20 74 5 40 5 7 27
0 86 100 100 100 100 100 96 4 100 100 100 100 100 100 100 100 100 100 100 100 100 100 5 5 5 5 10 18 5 4 51 5 5 5 92 100 53 33 100 99 82 85 10 7
20 64 100 77 90 100 100 70 15 100 100 100 100 100 100 100 100 100 100 100 100 100 100 50 5 3 5 10 5 6 16 2 5 42 66 65 100 70 5 5 87 54 43 100 100
84 100 93 100 21 100 100 16 0 28 100 100 100 100 100 100 100 100 100 100 100 100 100 70 5 16 5 5 4 5 1 4 45 21 96 100 100 100 8 33 8 54 61 58 100
32 100 96 99 100 100 73 1 0 1 5 6 37 100 100 99 100 100 100 100 100 82 100 55 5 6 5 12 7 95 98 13 5 64 4 5 100 100 54 21 100 33 100 100 100
82 100 100 100 100 99 2 2 42 43 5 2 2 100 100 100 100 100 100 100 100 100 90 47 93 6 5 6 5 5 5 5 2 0 0 20 100 100 8 42 33 5 9 95 100
96 100 100 100 12 52 0 0 75 99 34 5 5 90 26 100 48 100 100 100 100 100 100 34 94 66 39 5 66 4 4 5 16 4 0 3 92 78 91 21 2 1 2 60 98
100 97 60 100 82 2 0 0 1 46 6 87 41 5 5 83 100 100 100 100 100 100 91 100 96 99 10 5 12 5 1 13 5 0 5 4 5 16 5 4 5 5 7 75 8
100 65 89 10 73 5 4 3 2 24 6 4 12 5 95 100 100 100 100 100 100 99 100 100 98 100 51 8 5 5 0 5 5 0 0 0 1 5 3 5 5 40 44 87 91
74 63 94 16 61 82 2 5 4 5 5 4 5 100 100 100 100 100 100 100 100 100 100 97 100 100 99 5 8 92 4 3 5 3 0 0 4 4 4 1 4 8 5 4 12

GFSSW_prec_cloud_039.txt.gz
Cloud_Cover
100 100 100 100 95 20 44 100 100 99 100 100 50 91 87 26 55 84 100 8 5 0 0 0 0 0 0 0 0 0 6 98 100 47 99 48 74 100 98 100 71 98 73 99 100
35 44 12 53 100 98 100 100 100 100 100 74 41 100 66 29 99 79 72 5 1 2 1 0 0 0 0 0 0 0 90 97 19 48 4 52 100 100 54 100 64 100 100 100 100
58 0 18 0 0 2 45 100 100 100 100 99 72 23 80 100 100 86 6 5 4 5 0 0 0 0 0 0 0 3 96 62 78 69 29 100 55 96 100 49 88 86 100 100 100
4 0 1 0 0 0 17 100 100 100 100 16 31 80 100 100 100 62 5 15 79 5 0 0 0 0 1 4 1 0 18 79 5 80 99 72 79 98 49 95 11 70 100 98 100
18 7 5 4 0 4 28 100 100 100 100 100 100 100 100 100 100 5 44 100 48 0 0 0 0 0 5 1 1 2 9 2 3 98 17 92 38 40 40 88 84 96 100 100 80
100 65 4 99 20 1 4 72 100 100 100 100 100 100 88 44 9 68 100 43 5 0 3 0 0 0 1 0 10 10 0 21 1 2 18 100 94 4 40 72 94 92 100 100 100
65 100 98 24 97 5 5 38 100 100 100 100 100 98 68 93 98 99 32 0 0 0 5 0 0 0 0 1 0 0 10 85 82 28 82 100 97 100 100 100 43 96 99 100 100
98 67 100 85 97 53 5 5 100 100 100 100 100 98 90 100 100 100 4 3 15 0 5 3 0 0 0 0 0 0 4 76 96 3 99 100 100 14 100 100 97 100 100 100 100
100 100 100 100 100 100 51 20 35 100 100 100 100 100 100 100 100 100 100 14 15 4 5 4 0 0 0 0 35 9 100 79 55 6 95 90 100 17 23 100 100 100 100 100 100
100 100 100 100 44 90 86 67 18 85 100 100 97 45 100 100 100 100 45 50 5 5 5 5 5 5 2 8 98 100 97 93 24 89 6 96 56 76 49 99 100 100 100 100 100
100 100 100 100 15 93 87 86 10 29 87 100 91 6 100 96 5 5 99 71 5 5 5 5 5 4 16 37 76 100 80 100 48 100 96 97 66 99 100 23 100 100 100 100 100
100 100 100 100 99 84 40 73 30 8 81 99 99 6 6 5 5 5 29 69 98 3 100 32 5 5 49 5 5 8 100 74 78 2 41 42 97 100 86 72 99 100 100 99 88
65 100 100 100 100 86 74 29 89 84 37 58 97 100 22 5 26 5 5 91 100 92 63 74 44 33 5 4 5 79 100 100 51 88 5 85 97 90 96 61 100 100 100 100 100
2 100 100 100 89 24 66 51 97 100 42 97 8 92 70 31 81 36 5 28 100 95 34 72 5 5 5 5 10 98 23 28 5 4 99 30 92 100 98 94 100 100 99 88 100
95 83 100 96 82 100 58 100 78 63 5 12 92 100 100 100 100 100 53 60 99 45 100 35 18 50 6 5 50 99 98 5 14 100 97 51 43 89 84 73 91 77 46 100 99
5 44 100 91 70 100 100 100 100 100 15 5 79 100 100 100 100 100 100 100 79 100 100 100 10 23 31 16 21 75 46 51 30 44 99 70 89 75 100 50 94 97 75 100 100
100 100 94 100 86 100 100 100 100 98 24 95 100 100 100 100 100 100 100 100 100 100 100 94 99 86 7 51 5 8 94 92 88 100 84 92 8 42 100 88 100 86 82 10 46
35 65 78 99 100 100 100 100 90 5 100 96 100 100 100 100 100 100 100 100 100 100 100 100 100 100 100 57 73 5 91 100 100 96 100 80 18 48 69 15 6 8 20 16 56
99 17 29 16 100 100 100 100 2 88 100 100 100 100 100 100 100 100 100 100 100 100 100 100 100 100 100 100 24 96 90 60 100 6 12 86 33 18 5 4 5 5 5 5 7
96 90 54 41 64 82 100 54 46 7 100 100 100 100 100 100 100 100 100 100 100 100 100 100 100 100 100 100 51 14 100 95 88 72 80 53 100 100 76 22 4 2 5 5 5
100 100 58 8 91 99 100 35 58 100 100 65 100 100 100 100 100 100 100 100 100 100 100 100 100 100 100 100 14 5 17 59 100 100 92 98 100 100 33 4 5 49 5 5 5
100 100 94 90 100 100 100 6 0 49 100 60 100 100 100 100 100 100 100 100 100 100 100 100 100 100 100 97 21 99 42 99 100 100 53 7 2 100 48 5 5 98 27 4 2
100 100 99 99 100 85 5 5 0 0 2 92 100 100 100 100 100 100 100 100 100 100 100 100 100 100 100 99 23 97 98 100 100 100 92 100 2 100 5 54 9 5 5 5 3
100 100 100 100 30 73 5 1 0 0 0 22 84 100 100 100 100 100 100 100 100 100 100 100 100 100 100 100 87 64 100 63 95 100 35 35 65 100 84 99 81 27 36 5 3
100 91 41 100 79 7 86 6 4 5 14 4 15 38 99 100 100 100 100 100 100 100 100 100 100 100 100 100 99 100 100 82 100 97 99 9 100 71 89 87 78 88 38 1 0
100 86 80 6 98 84 92 44 5 1 5 27 5 4 98 100 100 100 100 100 99 97 98 99 100 100 100 100 83 99 100 95 90 100 66 27 93 97 100 7 5 3 12 5 5
100 100 100 99 84 86 27 5 5 2 5 16 23 88 2 57 100 100 100 86 49 72 94 80 89 100 100 100 100 59 100 53 49 5 17 29 5 24 53 21 3 2 0 1 2

GFSSW_prec_cloud_042.txt.gz
Cloud_Cover
5 5 3 67 97 61 25 5 0 68 32 31 100 82 81 100 100 10 5 5 30 95 1 3 3 0 0 0 0 0 1 60 66 80 99 11 43 100 100 54 100 100 100 100 100
58 21 3 5 4 2 0 4 6 18 12 5 65 100 100 92 5 38 5 6 100 14 0 13 1 0 0 0 0 0 29 100 42 16 99 6 85 100 100 86 63 100 100 100 100
72 17 22 5 5 5 0 0 34 47 1 19 7 78 75 96 13 65 60 99 62 5 99 76 0 0 0 1 0 2 43 84 6 3 100 14 100 100 63 98 100 100 100 100 97
100 59 100 100 98 45 0 0 20 56 6 23 40 95 5 5 23 100 100 99 4 60 100 2 0 0 0 5 68 0 2 32 5 10 81 9 99 100 97 85 100 100 99 75 100
100 100 100 100 100 80 5 5 0 4 6 11 28 100 24 16 39 100 73 18 79 100 10 0 0 0 1 94 4 31 10 5 7 0 27 83 32 46 37 9 32 95 82 100 100
100 98 99 100 100 100 58 0 5 3 0 6 100 100 83 100 88 99 29 100 53 0 0 0 0 2 0 2 4 84 6 0 23 0 100 94 100 100 100 42 58 74 68 77 100
100 100 100 100 100 100 98 3 6 5 0 27 23 100 100 100 66 22 100 98 98 39 0 0 5 5 2 3 53 0 0 12 100 99 100 100 100 100 82 95 27 67 5 100 100
100 100 100 100 100 100 100 2 26 19 5 16 47 100 100 100 100 99 100 100 100 82 4 5 5 5 5 0 1 0 0 5 95 17 54 99 100 100 33 100 100 99 43 98 100
100 100 100 100 100 100 100 94 15 46 45 64 80 100 100 100 82 100 100 100 100 100 36 4 5 60 39 4 0 24 3 54 32 27 3 60 100 100 100 96 55 100 100 83 99
100 100 100 100 100 100 100 56 48 12 99 98 54 100 100 100 100 100 100 100 97 5 5 13 5 61 5 5 4 100 50 100 53 57 28 74 94 100 100 71 58 100 100 100 100
100 100 100 100 100 100 100 100 15 19 74 80 8 100 100 100 5 87 100 89 5 5 90 5 5 5 63 5 5 62 90 69 45 21 19 42 94 97 98 87 66 100 100 100 100
100 100 100 100 100 100 100 100 21 5 5 30 63 83 90 100 100 69 100 97 5 17 11 6 27 5 5 5 5 8 12 86 94 87 0 1 20 94 33 100 100 100 100 100 100
100 100 100 100 100 100 70 86 5 25 20 33 96 5 40 99 88 15 11 6 4 5 5 8 78 65 32 16 5 8 5 34 75 100 19 0 2 88 36 28 98 100 100 100 100
100 100 100 100 100 100 100 45 6 5 1 99 49 6 5 92 99 86 20 4 3 5 5 31 50 76 5 16 5 49 5 84 45 73 8 97 24 10 94 13 88 100 100 74 100
100 100 100 100 100 74 84 82 100 30 2 4 26 100 10 12 100 35 59 12 49 100 100 100 34 9 34 8 5 16 9 55 4 5 30 93 47 100 6 8 77 85 61 9 67
100 100 62 100 100 100 100 100 50 61 4 4 8 100 41 88 100 42 19 54 100 100 100 100 98 100 100 95 100 85 9 71 38 0 2 5 76 100 90 92 100 90 60 55 34
100 66 41 98 96 100 100 87 5 0 2 5 1 79 100 47 58 9 63 85 100 100 100 100 100 100 100 100 100 97 76 18 5 76 24 35 100 95 75 100 100 38 27 36 3
100 100 24 86 100 100 100 100 2 2 5 3 0 3 100 100 98 100 66 43 100 100 100 100 100 100 100 99 100 100 100 67 10 57 93 100 75 57 4 84 16 5 6 51 49
100 99 98 47 98 100 94 100 0 2 2 5 6 100 100 100 100 100 100 100 100 100 100 100 100 100 99 100 100 100 100 100 85 98 94 89 74 20 15 1 2 0 3 5 5
100 100 100 100 20 52 100 100 92 86 20 4 30 100 100 100 100 100 100 100 100 100 100 100 100 100 100 100 100 100 100 100 100 99 83 43 18 75 55 100 42 1 0 1 0
100 100 93 100 98 100 100 4 16 75 91 3 5 100 100 100 100 100 100 100 100 100 100 100 100 100 100 100 100 100 100 100 100 97 77 4 19 6 100 71 99 5 4 1 0
100 100 98 100 100 100 100 0 0 4 6 100 80 54 100 100 100 100 100 100 100 100 100 100 100 100 100 100 100 100 100 100 100 38 16 8 19 88 100 91 99 98 0 4 0
100 100 100 100 97 100 100 5 0 0 0 0 0 5 62 100 100 100 100 100 100 100 100 100 100 100 100 100 100 100 100 100 100 15 25 78 45 32 5 0 0 0 0 0 0
100 100 100 100 12 15 76 5 3 5 4 0 7 2 2 100 100 100 100 100 100 100 100 100 100 100 96 100 100 94 98 100 100 100 99 29 14 0 56 29 62 100 30 5 4
100 100 38 100 90 8 83 9 5 5 4 4 12 73 1 100 100 100 100 100 100 100 100 100 100 100 100 100 100 100 100 100 100 100 97 15 27 6 5 23 20 100 100 62 5
100 96 63 63 88 85 75 5 50 5 5 2 0 0 5 2 100 100 100 100 100 100 100 100 100 100 100 100 100 82 100 100 100 100 100 86 5 59 47 76 68 100 100 77 0
100 60 100 12 100 99 24 5 0 59 98 9 0 0 22 30 7 100 100 100 100 100 100 100 100 100 100 100 100 66 100 100 100 100 100 100 100 94 5 99 100 100 22 1 0

GFSSW_prec_cloud_045.txt.gz
Cloud_Cover
5 5 3 92 100 100 63 47 1 30 45 25 0 0 4 2 6 65 97 100 70 0 77 100 6 6 48 0 0 0 0 5 8 98 90 6 4 98 61 100 100 100 100 100 100
77 6 19 2 88 81 40 57 1 11 100 48 5 0 0 0 4 4 35 11 5 5 100 36 2 96 14 0 0 0 0 4 100 100 91 33 5 79 100 100 100 100 100 100 100
100 96 86 6 70 100 99 59 5 5 98 39 23 2 0 0 12 29 3 5 35 93 41 4 92 100 0 0 0 0 1 5 44 95 3 5 3 97 100 100 100 100 99 100 100
100 100 100 100 85 100 100 62 63 79 100 2 12 2 0 5 69 72 8 16 12 66 5 100 97 0 0 0 1 5 0 3 31 2 3 47 90 18 100 100 100 69 94 90 100
100 100 100 100 94 100 84 98 100 100 100 57 12 10 14 18 50 100 87 48 5 6 91 70 0 0 0 5 1 45 1 1 0 20 4 8 26 100 100 100 100 100 93 100 80
100 100 100 100 100 100 100 35 100 100 100 100 93 18 6 1 81 87 26 7 38 100 100 52 5 0 2 5 5 0 5 0 0 19 99 58 100 100 100 92 100 25 90 81 100
100 100 100 100 100 100 100 100 99 100 100 100 100 73 37 3 81 100 67 7 100 100 100 100 100 33 5 4 5 0 0 0 2 5 7 5 66 100 98 83 79 84 48 87 100
100 100 100 100 100 100 100 100 100 100 100 100 100 98 26 2 100 100 96 68 100 100 100 100 100 73 5 1 5 5 0 0 21 100 4 5 5 100 94 30 25 100 100 100 99
100 100 100 100 100 100 100 100 100 100 100 100 100 100 5 5 98 100 100 81 100 100 100 100 78 2 3 5 5 5 1 2 11 12 96 5 8 96 20 98 5 100 99 94 100
100 100 100 100 100 100 100 100 100 100 100 100 100 94 0 8 47 100 45 87 100 100 100 100 90 5 5 5 5 5 5 21 92 71 14 27 1 23 97 84 77 100 100 100 100
100 100 100 100 100 100 100 100 100 100 100 100 100 100 26 6 9 100 100 100 98 98 100 82 7 6 5 5 29 6 4 9 98 78 74 5 3 0 99 7 83 98 96 100 100
100 100 100 100 100 100 100 100 77 82 89 100 100 100 9 6 5 40 100 100 98 100 6 28 5 5 49 17 26 93 5 3 99 58 68 58 0 5 3 62 100 99 12 99 89
100 100 100 100 100 100 100 100 100 100 100 100 100 100 59 1 55 5 34 100 100 100 51 5 63 4 5 15 5 5 7 4 42 63 11 20 16 47 8 4 66 54 16 28 99
100 100 100 100 100 100 100 100 100 100 100 100 100 100 48 13 43 43 5 8 92 100 3 7 30 2 51 97 100 88 50 35 6 40 4 5 3 90 3 5 5 12 66 4 17
100 100 100 100 100 100 100 100 100 100 100 100 100 100 100 2 7 8 5 0 22 46 5 37 6 4 89 99 100 100 100 24 2 0 0 3 5 10 88 5 1 30 21 100 60
100 100 100 100 100 100 100 100 100 100 100 100 100 100 100 26 5 30 5 4 4 0 5 9 5 5 60 83 100 100 100 93 5 5 5 0 88 75 80 98 83 4 24 32 100
100 100 100 100 100 100 100 100 99 100 100 96 93 100 100 33 5 2 37 8 74 3 62 31 12 2 33 100 100 100 100 100 70 46 72 3 2 3 82 100 24 28 79 8 6
100 100 100 100 100 100 100 100 94 100 99 100 100 42 100 97 100 80 9 13 5 69 47 9 37 98 78 100 100 100 100 100 100 79 100 5 15 52 93 100 8 0 2 0 0
100 100 100 100 100 100 100 100 100 100 100 100 100 17 90 100 40 100 78 71 72 87 97 66 37 94 5 82 100 100 100 33 97 76 100 94 99 96 11 82 7 5 5 5 0
100 100 100 98 80 100 100 90 100 100 100 97 100 63 5 64 52 55 100 45 85 100 100 100 100 92 83 100 100 99 100 88 44 100 100 100 99 100 99 65 76 5 4 29 0
100 100 98 100 100 99 100 37 68 45 57 84 98 100 16 62 98 100 36 100 100 100 100 100 100 100 100 100 100 100 100 98 100 100 100 90 100 100 93 12 98 76 83 68 13
100 100 58 100 100 86 100 23 5 5 5 5 29 89 96 27 94 20 99 100 65 100 100 100 100 100 100 100 100 100 100 90 63 100 100 100 100 99 87 7 53 100 34 1 19
100 100 100 51 100 100 66 22 5 5 3 5 5 4 39 5 63 5 5 99 100 100 100 100 100 100 100 100 100 100 100 100 58 91 100 92 100 45 98 43 90 91 62 1 0
100 100 100 100 12 37 100 83 46 5 3 0 0 0 1 5 24 5 10 100 100 100 100 100 100 100 100 100 100 100 100 100 89 26 100 100 100 40 12 100 54 59 83 5 16
100 100 99 99 100 100 82 5 33 66 13 1 0 0 0 0 6 14 92 100 100 100 100 100 100 100 100 100 100 100 100 100 96 48 40 100 100 100 59 77 81 5 5 17 73
100 100 96 6 100 100 100 25 5 5 4 0 0 0 2 0 0 0 68 100 100 100 100 100 100 100 100 100 100 100 100 100 100 100 100 100 100 100 100 100 100 60 88 3 72
100 88 100 100 100 94 68 5 5 5 2 82 5 0 0 0 0 0 0 61 92 100 100 100 100 100 100 100 100 99 100 100 100 98 99 100 100 100 99 75 100 99 6 82 54

GFSSW_prec_cloud_048.txt.gz
Cloud_Cover
34 3 100 88 5 5 5 1 93 100 100 100 100 32 7 2 40 0 0 5 0 2 92 92 39 5 4 6 17 0 0 0 0 3 66 98 45 85 87 100 100 100 100 100 98
100 99 97 100 100 88 75 4 2 100 100 100 63 13 10 37 8 0 0 4 0 0 39 20 4 38 2 95 26 0 0 0 0 5 75 21 3 41 94 100 100 100 100 100 100
100 100 100 100 100 100 98 100 15 4 82 100 5 5 11 62 0 0 0 2 0 0 5 6 16 6 83 21 0 0 0 0 0 8 20 8 12 54 100 100 81 100 100 100 100
100 100 100 100 100 100 100 100 100 79 100 100 100 98 14 100 0 0 0 5 5 4 8 98 7 69 8 0 0 4 0 0 0 3 0 0 1 11 100 61 98 66 90 95 100
100 100 100 100 100 100 100 100 92 100 100 100 100 94 97 100 61 24 1 3 5 5 8 58 99 77 2 4 10 0 4 2 0 0 0 5 76 100 78 15 6 17 16 64 91
100 100 100 100 100 100 100 100 100 100 100 100 100 58 100 100 100 66 0 2 5 5 4 100 100 95 100 99 76 0 0 0 0 5 5 5 22 99 24 4 8 6 10 26 39
100 100 100 100 100 100 100 100 100 100 100 100 100 89 100 92 100 100 1 3 4 5 42 100 100 100 100 89 4 2 4 2 0 5 5 5 12 97 51 5 5 5 55 20 96
100 100 100 100 100 100 100 100 100 100 100 100 100 100 100 100 100 100 4 6 28 5 100 100 100 100 100 10 5 6 10 5 5 32 3 4 4 5 10 10 55 2 100 88 97
100 100 100 100 100 100 100 100 98 99 100 100 100 100 100 60 100 100 33 42 75 8 100 100 100 100 100 100 5 5 5 18 5 1 11 4 1 3 0 4 100 4 13 92 97
100 100 100 100 100 100 100 100 32 97 99 100 100 100 100 100 100 100 48 72 99 87 82 100 100 100 100 96 5 5 5 25 5 3 96 24 0 4 0 4 10 16 97 100 100
100 100 100 100 100 100 100 100 64 90 95 100 100 100 100 100 100 100 100 8 100 100 100 100 100 100 100 18 5 5 74 45 2 15 63 3 0 0 0 2 45 40 100 100 100
100 100 100 100 100 100 100 100 100 9 100 100 100 100 100 84 100 100 100 9 6 40 93 100 100 24 16 50 10 5 5 29 30 5 78 74 3 5 0 0 57 36 96 100 96
100 100 100 100 100 100 100 100 53 100 100 88 100 100 100 20 100 100 100 23 5 5 48 100 93 48 36 5 8 6 50 100 100 22 7 12 4 3 0 0 5 34 95 74 94
100 100 100 100 100 100 100 100 100 100 61 100 35 100 100 78 98 100 100 43 4 5 5 100 14 98 89 5 5 5 74 100 100 6 15 34 5 3 0 0 0 4 31 94 80
100 100 100 100 100 100 100 99 72 100 100 100 100 91 100 100 100 100 100 88 100 74 2 93 2 5 17 39 13 58 36 100 100 100 5 24 5 83 2 6 25 38 5 88 99
100 99 100 100 100 100 100 100 100 98 80 100 100 100 100 100 100 100 100 100 100 92 9 55 5 5 5 3 5 5 20 89 100 100 17 5 7 5 17 0 5 5 9 31 2
100 100 100 100 100 94 100 100 100 100 88 95 100 100 100 100 100 100 100 100 100 100 95 55 5 5 34 5 5 5 24 8 100 100 46 5 5 5 32 2 0 3 2 99 21
100 100 100 100 100 100 100 100 98 100 100 100 90 69 100 100 100 100 100 100 100 93 51 6 5 10 98 11 100 54 5 41 100 100 99 5 5 5 2 5 0 1 0 0 0
100 100 100 100 100 100 100 100 100 100 100 100 100 79 44 100 100 100 100 100 33 10 7 35 44 100 5 86 58 24 5 27 100 100 99 34 6 5 0 3 1 0 0 0 0
100 100 100 100 85 100 100 100 100 100 100 100 100 100 95 20 96 100 100 100 91 91 100 99 5 99 100 64 5 5 5 8 100 100 100 99 5 5 3 1 0 1 29 3 0
100 100 96 99 93 94 100 100 100 100 100 100 100 100 100 100 63 33 100 100 100 100 95 94 8 98 54 5 20 89 21 56 100 100 100 98 12 49 49 27 39 68 52 61 5
100 100 66 98 100 100 70 100 100 100 100 99 90 100 100 100 100 100 100 100 100 50 92 99 98 38 15 94 87 100 100 100 100 100 88 7 100 18 20 5 35 46 5 4 4
100 100 100 21 100 100 95 19 78 42 97 100 100 100 100 100 100 100 93 99 99 100 100 99 16 39 70 4 6 89 100 100 100 100 98 6 100 2 66 20 26 5 5 33 86
100 100 100 100 43 94 100 100 100 69 5 8 55 55 100 100 100 100 100 100 100 100 100 100 98 82 91 100 100 100 100 100 100 100 100 6 100 53 33 99 56 49 92 76 24
100 100 92 100 100 100 100 86 90 100 96 4 5 96 87 100 48 14 83 100 100 100 100 100 100 100 100 100 100 100 100 100 100 100 100 100 90 100 98 36 16 100 100 100 98
100 100 100 81 100 100 100 56 100 98 87 26 4 0 0 2 4 0 3 8 100 100 100 57 99 100 100 100 100 100 100 100 100 100 100 100 100 100 100 98 39 98 100 100 74
100 100 100 96 100 100 84 77 100 100 67 5 4 5 0 0 2 0 2 3 7 5 52 99 100 100 93 100 100 100 100 100 100 100 100 100 100 100 100 99 62 34 57 100 100

GFSSW_prec_cloud_051.txt.gz
Cloud_Cover
89 60 83 6 8 0 0 1 11 5 20 5 8 59 100 68 82 0 0 0 0 0 5 0 3 20 100 61 5 5 11 5 0 0 0 0 0 0 97 100 100 100 100 100 100
100 100 100 100 54 5 23 31 98 49 5 43 19 1 100 100 45 0 0 0 0 0 3 0 4 15 84 22 33 5 4 0 0 0 0 0 0 0 100 100 100 100 100 100 100
100 100 100 99 100 100 100 100 100 63 5 12 95 6 78 100 96 1 3 0 3 0 5 0 5 9 51 82 9 8 0 5 0 0 0 0 1 5 96 100 88 100 100 100 100
94 100 100 100 100 100 100 100 100 100 7 100 100 99 94 100 100 2 5 5 5 5 5 5 7 100 57 40 23 0 42 1 0 0 0 0 2 5 94 31 100 97 100 97 100
84 100 100 100 100 100 100 100 100 100 86 45 96 100 100 100 100 40 5 5 10 0 5 42 7 6 7 100 16 81 46 0 0 0 0 0 5 0 10 13 76 100 99 100 73
96 69 93 100 100 100 100 100 68 100 100 99 60 100 100 100 100 100 60 5 80 5 2 43 5 3 86 100 100 100 5 1 2 0 0 0 1 2 2 98 32 18 100 100 100
64 100 96 100 100 100 100 100 98 94 75 74 13 100 100 100 100 100 83 0 100 43 5 5 5 29 74 100 100 43 77 5 0 2 2 0 0 0 0 55 93 84 40 100 100
50 100 100 100 100 100 100 100 100 37 100 44 53 100 100 100 100 100 35 12 100 19 5 6 5 12 56 100 100 100 18 2 3 6 4 4 0 0 0 1 22 33 44 100 100
100 100 100 100 100 100 100 100 99 5 100 77 85 99 100 100 100 100 100 88 100 100 5 21 37 59 100 99 100 100 49 4 5 5 5 5 0 0 0 6 35 28 88 57 86
100 100 100 100 100 100 100 100 100 23 72 47 99 100 100 100 100 100 100 70 100 100 97 62 8 99 94 45 91 23 6 5 5 5 5 0 0 0 0 0 17 0 6 20 92
100 100 100 100 100 100 100 100 100 73 99 46 87 100 100 100 100 100 100 100 100 100 100 5 85 100 100 100 99 24 14 5 5 52 42 3 4 0 0 0 0 0 8 58 100
100 100 100 100 100 100 100 100 100 100 79 57 100 100 100 98 100 100 100 100 100 100 100 99 99 100 100 100 15 5 5 5 7 53 99 6 4 4 0 0 0 0 5 5 5
100 100 100 100 100 100 100 90 98 100 99 100 100 100 100 98 100 100 100 100 100 100 100 99 17 96 77 66 96 64 7 5 69 98 100 100 5 0 0 0 0 0 0 4 49
100 100 100 100 100 100 100 100 100 100 100 100 94 93 100 99 100 100 84 100 100 100 100 99 6 66 32 74 20 79 30 13 67 61 100 100 48 5 1 0 0 0 0 0 13
100 100 100 100 100 100 100 100 100 100 96 100 100 100 100 86 100 100 98 8 44 100 100 100 14 2 15 87 5 82 5 9 10 48 96 100 100 10 5 5 0 0 3 0 0
100 100 100 98 100 100 100 100 96 98 100 100 100 100 100 100 100 100 98 94 92 94 100 100 100 58 100 28 5 35 6 27 3 58 6 55 100 93 4 5 3 3 2 4 0
100 100 100 100 97 100 100 100 100 97 100 100 98 100 100 100 100 100 100 100 100 96 100 100 100 80 36 70 60 80 2 5 54 80 5 97 100 33 34 5 5 1 0 0 0
33 100 100 100 100 100 98 77 100 90 100 100 100 100 100 100 100 100 89 100 100 100 100 100 100 100 100 100 12 4 43 5 5 94 5 95 100 42 82 34 5 4 0 0 0
45 100 100 100 100 83 100 100 100 100 100 100 100 100 100 100 100 100 100 100 100 100 100 100 100 100 100 58 5 5 5 5 4 62 27 100 100 10 56 83 5 5 2 0 0
94 100 100 79 98 100 100 100 100 100 62 100 100 100 100 100 100 100 100 100 100 100 100 100 100 100 100 68 5 5 17 5 5 5 20 96 100 100 60 14 34 33 5 5 0
100 100 100 100 100 100 100 100 100 100 100 68 100 100 100 100 100 100 100 100 100 100 100 100 100 100 91 4 60 84 48 14 5 5 46 93 100 100 90 5 5 12 5 5 35
100 100 100 73 100 100 100 100 100 100 100 100 99 100 100 98 100 100 100 100 100 100 100 100 100 100 71 100 32 5 36 57 11 17 99 68 100 100 100 40 5 5 5 70 7
100 100 100 99 100 100 100 100 100 100 100 100 100 100 100 100 71 100 100 100 100 100 100 100 100 100 100 88 26 83 100 92 74 5 99 100 100 100 94 40 7 5 5 5 5
100 100 100 100 63 69 100 100 98 100 100 100 100 100 100 100 100 100 100 100 100 100 100 100 100 100 100 100 93 76 100 95 46 5 56 100 100 100 100 20 5 5 5 73 95
100 100 97 100 100 100 99 100 100 100 72 100 100 100 100 100 100 100 100 100 100 100 100 100 100 100 100 100 100 100 100 99 57 36 56 93 100 100 100 32 93 9 94 100 100
100 100 100 100 100 100 100 69 100 100 100 85 41 97 79 100 100 100 100 100 100 100 100 100 100 100 100 100 100 99 100 100 100 91 45 98 100 100 100 100 100 33 49 100 95
100 99 100 100 97 100 100 100 98 100 79 5 5 5 5 64 41 73 98 100 100 100 62 14 65 100 100 100 100 100 100 100 100 100 100 76 100 100 100 100 59 74 100 79 97

GFSSW_prec_cloud_054.txt.gz
Cloud_Cover
5 2 5 56 52 25 9 32 0 0 0 2 2 0 3 2 97 0 12 5 2 0 0 0 0 0 0 0 35 100 56 22 8 0 0 0 0 0 2 51 100 100 65 100 100
13 5 5 5 5 42 100 100 93 1 3 0 30 84 5 11 100 16 93 28 3 0 4 0 0 0 0 3 6 21 30 47 1 7 0 0 0 0 3 6 83 100 79 100 100
5 5 5 12 59 78 70 100 100 100 65 76 97 100 95 60 41 4 85 99 5 0 5 2 5 3 0 14 92 28 6 4 66 5 0 0 0 0 5 5 4 100 100 100 100
0 0 5 80 56 78 100 99 100 100 100 100 100 100 100 100 100 14 4 99 10 2 5 4 5 2 0 63 100 4 1 60 86 3 3 0 0 0 0 4 3 59 100 100 71
0 0 0 5 76 7 54 100 100 100 100 100 100 100 100 100 100 94 79 100 51 11 5 0 5 0 1 5 5 2 32 100 96 5 2 0 0 0 0 0 2 5 84 77 100
0 0 0 14 96 84 15 100 100 100 100 100 93 100 100 100 100 16 100 100 100 7 5 5 5 4 5 2 2 59 85 97 26 5 0 0 0 0 0 0 0 2 13 32 99
0 0 0 5 37 78 59 100 100 100 100 100 100 100 100 100 100 94 100 100 100 42 5 0 48 5 0 2 4 86 100 70 4 5 0 0 5 0 0 0 0 8 91 100 100
0 0 8 6 37 45 57 61 100 100 100 100 100 100 100 100 100 100 83 100 97 97 4 83 95 4 5 5 4 91 100 81 5 5 0 0 2 5 0 20 11 18 52 100 100
0 2 28 49 84 94 79 79 100 100 100 100 100 100 100 100 100 100 100 100 98 62 30 18 100 5 10 5 8 6 93 5 5 4 3 5 0 0 0 8 2 28 96 72 100
5 85 22 92 100 100 98 100 100 100 100 100 100 100 100 100 100 100 100 100 100 67 26 100 100 14 34 98 14 99 16 16 5 2 5 15 4 0 3 24 2 3 30 79 66
26 38 100 100 100 100 100 100 100 100 100 100 100 100 100 100 100 100 100 100 100 100 89 100 100 100 100 99 54 100 54 79 5 5 5 11 5 5 1 0 3 12 0 0 8
21 86 76 100 93 100 100 100 100 100 100 100 100 100 100 100 98 100 100 100 100 100 100 100 100 100 100 46 75 96 19 17 11 5 20 8 7 6 5 1 0 0 0 0 1
40 100 100 100 100 100 100 100 100 100 100 100 100 100 100 96 97 100 100 100 100 100 100 100 100 100 67 87 100 50 5 5 98 7 53 38 6 100 5 7 1 0 0 0 0
35 100 100 100 79 96 97 100 100 100 100 100 90 100 100 33 99 100 95 100 100 100 100 100 100 100 100 100 68 42 78 39 21 12 5 24 5 68 5 15 14 0 0 0 0
6 82 100 100 76 89 100 67 96 100 100 100 100 100 100 100 96 100 100 100 100 100 100 97 100 100 99 100 23 43 84 5 26 5 5 17 10 0 5 68 51 6 2 0 0
5 41 100 100 100 30 100 24 95 98 100 100 100 100 100 100 100 100 100 100 100 100 100 44 100 100 100 100 100 97 23 5 2 4 94 12 95 74 11 28 11 6 9 0 0
3 5 19 100 100 42 44 100 87 96 100 100 100 100 100 100 100 100 100 100 100 100 100 100 100 100 100 100 100 99 5 5 32 74 20 67 100 100 12 96 10 5 28 12 3
5 9 5 74 100 100 97 100 100 62 100 100 100 100 100 100 100 100 100 100 100 84 88 100 100 100 100 100 100 100 9 46 100 32 37 94 99 100 36 100 74 5 5 10 5
5 5 16 53 100 100 100 100 96 5 96 89 100 100 100 100 100 100 100 100 100 100 100 100 100 100 100 100 100 100 59 100 86 100 6 99 86 71 43 100 100 6 5 5 5
32 38 7 5 100 100 100 98 30 72 76 100 78 100 100 100 100 100 100 100 100 100 100 100 100 100 100 94 65 98 100 100 30 62 17 25 87 81 13 100 100 100 87 5 5
53 86 15 5 97 100 100 99 75 100 100 100 98 89 100 100 100 100 100 100 100 100 81 99 100 100 100 100 100 100 100 100 100 14 5 92 100 70 7 100 100 100 100 70 5
100 100 47 80 100 100 100 99 56 100 100 100 100 99 100 100 100 100 100 72 100 100 100 100 39 100 100 100 100 100 100 100 100 66 42 97 99 60 5 11 100 100 100 100 94
100 100 94 100 100 100 100 95 56 89 100 100 100 100 100 100 100 100 99 99 100 100 100 82 90 100 100 100 100 100 100 100 100 86 6 74 95 100 22 5 55 100 100 100 100
100 100 100 100 100 92 100 91 92 5 31 100 100 100 100 100 92 100 100 100 100 100 100 100 93 100 100 100 99 100 100 100 98 42 94 100 100 100 100 87 58 79 72 100 100
100 100 98 100 100 100 81 83 100 70 26 25 100 100 100 100 93 67 100 100 100 100 100 93 100 97 100 100 100 78 100 93 42 82 47 100 87 88 99 56 5 57 40 100 98
100 100 100 100 43 100 100 86 94 91 100 94 23 83 100 100 100 100 100 100 100 100 100 100 99 100 100 100 100 100 100 5 7 5 74 37 100 100 100 98 76 100 100 100 5
100 100 100 94 100 100 88 60 100 100 100 100 100 35 33 100 100 100 100 100 100 97 100 100 100 100 100 100 100 100 100 20 58 94 61 5 54 100 90 100 100 100 100 100 7

GFSSW_prec_cloud_057.txt.gz
Cloud_Cover
52 99 40 0 5 0 0 0 0 0 2 5 3 0 1 4 8 5 5 8 0 0 0 0 0 0 0 0 0 0 0 100 62 5 0 0 0 0 0 5 5 5 23 99 100
100 32 23 4 2 5 4 5 5 4 4 3 6 79 1 1 25 8 5 100 4 0 0 0 0 0 0 0 0 0 0 23 5 0 5 3 0 0 0 4 5 5 6 99 99
100 67 72 5 6 0 5 5 5 5 5 18 5 100 100 10 21 58 75 100 75 1 4 0 0 0 1 0 0 0 8 59 3 4 13 6 0 0 0 0 5 4 0 82 95
5 4 24 3 4 0 0 5 16 5 15 33 9 100 100 100 100 100 100 100 100 46 4 5 0 0 2 5 5 0 74 39 0 52 92 7 1 0 0 0 2 0 0 82 71
5 5 2 1 0 0 0 0 21 32 91 8 9 100 100 100 100 100 100 100 100 100 4 5 3 0 5 5 3 0 11 7 36 100 13 6 0 0 0 0 0 0 0 33 98
60 5 0 0 0 0 0 0 5 5 51 14 12 96 100 100 100 100 100 100 100 100 28 5 5 1 4 4 5 0 4 45 100 67 15 18 0 0 1 0 0 0 10 58 87
3 0 0 0 0 0 0 0 1 5 7 100 93 100 100 100 100 100 100 100 100 100 100 36 5 5 5 2 5 3 0 64 100 34 100 7 0 0 0 0 0 0 1 6 38
0 0 0 0 0 0 0 78 1 5 91 27 88 100 100 100 100 100 100 100 100 100 92 100 52 6 5 1 5 5 3 19 100 26 65 2 0 0 3 1 0 0 28 80 20
1 1 0 0 0 0 0 3 4 28 87 89 58 100 100 100 100 100 100 100 100 100 28 100 82 98 8 5 5 5 5 59 100 53 5 4 0 0 4 4 0 0 0 9 17
5 5 2 0 1 0 0 3 94 76 100 41 91 100 100 100 100 100 100 100 100 100 61 100 100 100 22 6 25 50 74 99 53 5 5 71 3 5 5 2 0 0 0 0 1
30 5 0 0 5 5 1 5 100 100 100 100 100 100 100 100 100 100 100 100 100 86 81 100 100 100 11 28 27 96 100 62 5 29 10 44 4 5 5 5 1 0 0 0 0
5 5 0 4 5 5 1 36 100 100 100 100 100 100 100 100 100 100 100 100 100 100 100 10 99 100 5 5 73 100 84 28 5 89 99 7 63 5 43 4 1 2 0 0 0
4 0 0 5 5 5 16 80 83 100 100 100 100 100 100 100 100 100 100 100 100 99 94 92 100 100 5 6 100 100 76 49 28 96 100 99 62 5 22 24 5 1 0 0 0
0 0 4 5 5 5 24 45 100 100 100 100 100 100 100 100 100 100 100 100 100 96 100 84 100 100 92 62 100 100 12 90 5 20 46 96 81 5 28 43 7 5 5 5 0
0 0 4 5 58 28 14 11 100 100 100 100 100 100 100 100 100 100 86 100 100 100 100 100 100 100 100 99 99 100 100 36 5 5 5 43 100 16 92 5 8 4 5 5 2
0 0 5 5 93 42 12 5 100 100 100 100 100 100 100 100 100 100 100 100 100 100 100 100 100 100 100 97 64 100 84 100 6 5 54 7 100 100 2 0 6 4 4 5 5
5 5 5 16 85 100 40 5 66 100 100 100 100 100 100 100 100 100 100 100 100 100 82 100 100 100 100 100 92 100 100 100 5 5 30 88 86 100 4 0 8 15 78 5 5
5 47 5 5 25 99 83 63 97 99 100 100 100 100 100 100 100 100 100 100 100 100 100 100 100 100 100 100 100 100 100 46 56 12 70 33 98 100 23 5 5 96 34 22 8
2 5 11 5 18 76 100 100 5 13 85 100 100 100 100 100 100 100 100 100 100 100 100 100 100 100 100 100 100 62 98 100 97 90 67 100 100 100 28 5 5 6 100 99 5
35 52 4 0 14 96 100 94 30 78 12 100 100 100 100 100 100 100 100 100 100 100 100 100 100 93 100 100 100 14 90 89 42 34 100 100 100 100 23 34 7 2 29 67 69
50 93 2 3 88 100 100 100 96 16 97 100 100 100 100 100 100 100 100 100 100 100 100 100 98 100 100 100 94 100 70 11 11 9 87 100 100 100 5 39 8 1 1 52 100
100 99 76 55 100 100 100 100 7 5 7 16 100 100 100 100 100 100 100 100 100 100 100 100 100 100 100 100 100 100 79 67 80 66 99 100 100 100 100 5 5 5 5 7 95
100 78 92 79 100 100 98 97 100 0 5 97 35 100 100 100 100 100 100 100 100 100 100 100 100 100 100 100 100 100 100 96 100 100 100 100 100 100 100 60 42 5 6 6 10
100 96 100 100 71 86 88 87 73 5 5 100 53 97 100 100 100 100 100 100 100 100 100 100 99 100 100 100 100 100 98 83 58 69 100 100 100 100 100 100 94 90 99 15 99
100 100 22 100 100 100 92 71 67 27 26 100 89 27 100 99 100 100 100 100 100 100 100 100 96 100 100 100 92 86 99 20 5 78 100 100 100 100 100 100 39 80 40 50 91
100 100 100 96 96 97 100 88 5 47 85 100 70 100 100 46 83 100 100 45 97 100 100 100 100 100 100 100 100 100 100 100 100 100 74 5 55 100 100 100 100 97 100 83 37
100 100 100 20 12 100 100 25 13 99 100 100 100 100 100 94 52 45 40 100 99 100 100 100 100 100 100 100 100 100 100 100 100 100 100 92 44 87 14 100 100 100 100 100 100

GFSSW_prec_cloud_060.txt.gz
Cloud_Cover
100 100 100 100 100 23 72 20 81 46 1 10 5 0 0 0 5 2 0 0 6 5 2 3 5 0 0 0 0 0 0 0 0 0 5 0 0 0 0 0 0 5 3 1 5
100 100 100 100 100 100 100 11 0 0 0 0 0 0 0 0 2 99 14 0 4 5 5 5 4 0 0 0 2 0 0 0 0 0 5 0 5 4 0 0 0 0 0 0 5
100 100 100 100 100 100 100 100 3 0 4 0 1 0 2 0 34 40 99 5 84 5 99 5 0 0 0 0 5 5 1 2 0 0 4 1 79 5 0 0 0 0 0 0 0
100 100 100 100 100 100 83 100 11 1 0 0 3 5 5 5 60 100 59 99 100 88 100 100 38 2 1 5 40 5 5 2 0 2 59 32 90 0 0 0 0 0 0 0 0
100 100 100 100 100 100 60 12 0 0 0 0 0 5 5 7 93 100 94 98 100 100 74 100 44 5 5 5 8 5 5 3 0 0 31 74 10 5 0 0 0 0 0 0 0
100 100 100 89 24 32 3 3 0 0 0 0 0 5 5 8 96 99 100 100 100 100 5 100 92 5 4 5 5 5 5 5 0 0 39 50 5 2 0 0 0 0 0 0 0
100 100 97 100 11 0 0 0 0 0 0 0 5 2 2 11 8 69 100 100 100 100 65 91 100 5 5 5 5 5 5 7 0 34 100 100 17 5 0 0 0 0 0 0 0
100 96 18 5 2 0 0 0 0 0 0 0 19 5 1 5 5 100 100 100 100 99 99 98 100 45 99 37 7 82 30 5 2 37 100 39 5 0 0 0 0 0 0 0 0
61 67 14 5 2 0 0 0 0 0 0 2 37 6 62 5 36 100 100 100 100 100 78 58 99 100 100 62 18 100 23 36 36 6 95 62 5 2 0 0 0 0 0 0 0
83 14 5 4 0 0 0 0 0 0 2 21 12 5 64 5 100 100 100 100 100 100 100 56 100 100 100 100 100 7 60 41 35 5 100 53 5 5 4 0 0 3 0 0 0
68 21 5 4 4 5 1 0 0 0 30 0 81 99 5 31 100 55 100 100 100 100 100 100 100 100 100 100 36 91 99 100 6 5 100 72 12 5 5 1 3 14 4 0 0
28 56 83 100 17 3 7 32 44 50 99 0 100 100 60 91 100 100 100 100 100 100 100 81 97 100 100 100 99 96 99 100 22 5 100 56 77 26 50 7 3 61 7 4 0
77 89 100 99 5 7 11 39 5 5 64 27 31 100 100 100 100 100 100 100 100 100 100 97 100 100 100 100 93 92 100 93 100 14 100 100 91 52 66 95 0 2 5 5 0
7 79 19 9 46 6 94 12 3 9 68 90 49 100 100 100 100 100 100 100 100 100 100 85 100 100 87 99 100 100 100 100 72 47 100 100 100 5 23 12 5 0 0 0 5
54 6 5 6 29 73 39 5 3 76 3 100 92 86 100 100 100 100 100 100 100 100 100 100 100 100 100 100 92 100 97 100 100 19 100 100 99 99 12 6 5 0 0 1 5
45 11 5 33 52 8 13 3 16 58 23 100 100 97 100 100 100 100 100 100 100 97 100 100 100 100 100 100 100 100 98 98 22 75 100 92 52 26 14 94 5 0 0 0 5
10 5 5 50 84 5 16 15 22 0 8 100 100 100 100 100 100 100 100 100 100 100 96 100 100 100 100 91 68 99 100 89 97 54 100 18 28 100 30 9 5 3 0 0 5
100 24 5 48 69 49 54 46 4 0 5 100 100 100 100 100 100 100 100 100 100 100 100 100 100 100 100 100 100 100 100 98 92 99 77 70 100 100 47 5 84 5 0 0 0
9 10 61 22 5 34 55 54 0 5 4 71 100 100 100 100 100 100 100 100 100 100 100 100 100 100 100 100 100 100 100 99 96 99 82 87 100 100 100 100 100 5 0 1 0
43 66 90 10 5 58 70 25 5 4 6 5 100 100 100 100 100 100 100 100 100 100 100 100 100 100 100 100 99 97 78 100 93 60 100 100 100 100 100 100 100 72 5 0 0
61 93 98 34 17 89 100 78 16 5 6 4 69 100 100 100 100 100 99 100 100 100 100 100 100 100 100 100 100 100 84 80 89 92 100 100 100 100 100 22 98 96 5 0 0
66 94 15 38 69 58 100 83 75 32 2 5 6 100 100 100 100 100 100 100 100 100 100 100 100 100 100 100 100 100 100 100 100 100 100 95 100 100 100 100 100 100 100 4 0
94 100 72 47 87 84 90 86 85 14 98 55 5 23 86 96 100 100 100 100 100 100 100 100 100 100 100 87 100 100 100 100 100 99 95 89 100 100 100 100 100 100 92 98 97
82 78 40 86 90 98 97 55 92 5 78 100 86 54 84 97 96 100 100 100 100 100 100 100 100 100 100 100 100 100 100 100 100 67 87 52 96 99 100 100 100 100 100 100 90
100 76 92 98 65 86 94 90 100 100 55 96 84 5 62 100 100 99 100 84 100 100 100 100 100 100 100 100 100 100 100 100 100 100 93 100 98 100 100 100 100 100 100 100 100
96 73 80 12 91 99 100 28 75 100 83 88 6 41 23 80 100 100 100 60 100 100 100 100 100 100 100 100 100 100 100 100 100 100 100 100 88 69 98 100 100 100 100 100 100
96 78 98 35 70 70 41 36 12 14 72 52 91 99 86 75 100 100 100 100 92 100 100 100 100 100 100 100 100 100 100 100 100 100 97 95 91 96 56 100 100 100 100 100 100

GFSSW_prec_cloud_063.txt.gz
Cloud_Cover
100 100 100 100 100 100 100 100 100 100 100 100 99 100 5 5 15 0 0 0 0 0 0 0 0 0 0 0 1 0 1 4 0 0 0 0 0 0 0 0 0 0 0 0 0
100 100 100 100 100 100 100 100 100 100 100 100 100 45 65 5 3 5 0 0 0 0 0 0 0 0 0 0 0 1 0 1 5 3 0 0 0 0 0 4 3 3 0 0 0
100 100 100 100 100 100 100 100 100 100 100 100 100 100 100 5 0 3 0 0 5 3 2 4 3 0 0 0 28 1 0 0 5 5 0 0 0 0 4 5 43 6 5 0 0
100 100 100 100 100 100 100 100 100 100 100 100 88 5 0 0 0 0 0 5 7 78 100 100 37 4 11 5 100 1 2 0 5 5 1 1 0 0 91 14 0 0 0 0 0
100 100 100 100 100 100 100 100 100 69 35 52 5 5 4 0 0 2 3 5 5 58 100 100 86 94 64 10 42 100 2 0 5 0 5 4 0 2 10 4 1 0 0 0 0
92 38 100 100 100 100 100 100 95 100 87 70 5 2 0 0 0 0 5 30 6 91 49 100 100 100 100 14 61 100 0 0 2 5 5 5 0 5 4 1 0 0 0 0 0
100 100 100 100 93 100 100 100 100 97 77 5 38 3 0 0 0 0 3 98 79 99 99 39 100 79 100 22 100 100 1 0 5 1 5 5 3 80 5 0 0 0 0 0 0
100 100 100 100 100 100 95 68 8 56 46 4 7 0 0 0 0 0 3 53 86 100 100 98 100 100 100 98 100 100 1 1 4 8 11 5 18 100 8 5 1 0 0 0 0
87 75 100 100 87 98 100 67 66 17 0 2 5 0 0 0 0 2 2 5 79 100 100 81 100 96 99 100 100 100 84 1 8 37 72 4 81 100 8 3 2 2 0 1 0
17 94 99 99 100 100 100 86 83 5 4 0 0 1 0 0 0 5 5 5 100 100 100 100 100 100 100 100 100 100 96 4 47 94 69 0 51 100 5 4 5 3 2 1 0
13 27 96 72 100 100 39 5 5 5 2 0 0 0 0 0 47 24 5 57 100 100 100 100 100 97 100 100 100 100 100 100 69 100 45 5 5 34 9 5 3 34 6 0 0
39 63 54 100 54 100 79 28 6 31 34 0 0 0 0 7 100 97 34 64 100 100 100 100 100 100 100 100 100 76 76 81 94 100 10 8 5 44 24 3 5 89 83 0 0
100 5 93 100 83 100 15 36 24 100 29 2 0 0 0 30 100 100 97 100 100 100 100 100 100 100 100 100 100 99 97 100 100 100 82 27 5 5 28 1 5 38 48 16 0
90 5 8 6 34 63 37 8 57 100 41 0 0 0 0 5 100 100 100 100 100 100 100 100 100 100 100 100 100 100 100 100 100 100 98 93 92 5 6 11 5 4 16 8 0
6 24 6 42 12 51 68 35 73 100 6 0 0 0 0 57 63 100 100 100 100 100 100 100 100 100 100 100 100 100 100 100 100 100 40 100 100 17 5 7 5 14 5 4 0
22 77 22 14 25 75 57 48 100 93 2 0 0 0 0 65 75 100 100 100 100 100 100 100 100 100 100 100 100 100 99 100 100 100 77 100 100 93 87 15 39 5 1 0 0
23 100 94 100 63 98 68 43 47 3 0 0 0 0 0 16 100 100 100 100 100 100 100 100 100 100 100 100 100 100 100 100 100 100 100 100 100 100 100 36 5 5 0 1 0
100 100 100 100 100 99 88 61 20 1 5 5 0 0 0 10 100 100 100 100 100 100 100 100 100 100 100 100 100 100 100 100 100 100 100 100 100 100 93 78 6 30 4 5 6
99 62 94 100 100 100 97 94 82 5 2 96 4 0 0 71 96 100 100 100 100 100 100 100 100 100 100 100 100 100 99 100 100 100 100 100 100 100 84 80 95 25 5 31 100
80 99 85 96 100 93 100 32 10 5 5 5 5 0 0 100 18 100 100 100 100 100 100 100 100 100 100 100 100 100 100 100 100 100 100 100 100 100 100 98 92 94 5 17 100
52 100 65 95 70 100 88 43 100 5 5 5 1 4 0 64 56 74 97 100 100 100 100 100 100 100 100 100 100 100 100 100 100 100 100 100 100 100 100 100 100 100 84 2 74
84 98 52 10 78 76 78 93 75 50 5 5 3 5 5 9 100 79 99 100 100 100 100 100 100 100 100 100 100 100 100 100 100 100 100 100 100 100 100 100 100 97 86 71 94
81 78 23 87 98 98 98 86 44 30 5 5 5 5 8 9 84 100 100 100 100 100 100 100 100 100 100 100 100 100 100 100 100 100 100 100 100 100 100 100 100 100 98 100 97
96 97 86 29 49 87 100 97 100 70 27 6 29 13 43 39 57 98 100 100 100 100 100 100 100 100 100 100 100 100 100 100 100 100 100 100 100 100 100 100 100 100 100 79 95
94 67 100 96 90 92 95 100 100 100 89 90 100 75 100 99 90 100 100 100 100 100 100 100 100 100 100 100 100 100 100 100 100 100 100 100 100 100 100 100 100 100 100 76 100
80 93 33 74 99 100 100 100 100 100 100 100 100 100 100 100 100 100 100 99 100 100 100 100 100 100 100 100 100 100 100 100 100 100 100 100 100 100 100 100 100 100 100 100 99
60 80 76 100 100 100 99 76 86 100 100 100 100 100 100 100 98 77 68 87 99 100 100 100 100 100 100 100 100 100 100 100 100 100 100 100 100 84 79 100 100 100 100 100 100

GFSSW_prec_cloud_066.txt.gz
Cloud_Cover
100 100 100 100 100 100 100 100 100 100 100 100 100 100 100 100 100 100 100 100 87 6 3 0 0 0 0 0 0 0 0 0 0 0 2 78 1 0 0 0 0 0 0 0 0
100 100 100 100 100 100 100 100 100 100 100 100 100 100 100 100 100 100 100 51 5 5 4 0 0 0 0 0 0 0 0 0 5 0 5 42 18 0 0 0 2 1 10 5 0
100 100 100 100 100 100 100 100 100 100 100 100 100 100 100 100 100 63 5 4 5 5 5 0 0 0 0 0 0 0 0 68 5 1 0 0 8 3 0 0 0 4 2 13 0
100 100 100 100 98 100 100 100 100 100 100 100 100 100 95 99 82 12 56 47 0 0 0 0 2 10 82 66 100 25 30 86 27 5 0 0 0 5 0 0 0 4 5 0 0
100 100 100 100 99 100 66 36 87 96 100 100 100 98 65 10 4 1 0 0 1 2 2 3 5 77 91 100 100 88 100 100 98 45 1 0 0 0 0 5 5 6 4 0 0
100 100 100 100 100 100 100 99 80 74 76 95 65 100 96 9 58 5 6 8 0 0 1 5 6 99 100 100 87 100 100 100 100 100 5 0 0 0 0 39 6 51 6 0 0
32 54 96 9 100 100 100 100 100 92 71 50 97 77 100 100 41 2 5 1 0 0 1 43 14 61 100 96 100 100 86 96 36 100 8 0 3 5 0 5 25 47 5 1 0
100 96 92 56 8 91 100 100 100 100 70 97 100 94 96 11 4 0 0 0 0 1 47 40 22 93 59 89 18 100 100 84 100 100 99 2 77 5 1 3 5 86 7 1 0
100 100 100 100 92 26 5 49 90 100 100 100 100 100 100 23 1 0 0 0 0 3 5 22 90 99 100 99 100 100 91 100 100 100 100 68 77 5 4 5 67 39 45 6 1
96 100 100 100 69 5 5 5 25 70 13 13 29 14 13 2 0 0 0 0 0 4 5 70 99 97 100 100 61 100 100 100 100 100 100 100 51 6 13 31 40 8 5 93 35
29 49 100 5 9 22 38 4 21 5 7 5 5 5 2 2 0 0 0 0 0 5 74 99 60 84 96 100 100 100 100 100 62 100 100 100 60 21 7 39 80 36 5 6 100
100 96 10 60 48 100 73 36 16 13 21 54 88 52 26 0 0 0 0 0 3 29 95 77 96 100 100 100 100 100 100 100 100 100 100 100 96 95 7 81 74 80 7 22 100
61 80 100 70 100 100 100 78 47 68 54 87 69 5 5 1 0 0 0 4 52 66 88 93 100 100 100 100 100 100 100 100 100 100 100 100 100 100 44 5 20 6 5 19 97
100 100 100 100 100 100 100 100 98 100 73 5 63 34 5 5 0 0 0 23 100 58 100 89 100 100 100 100 100 100 100 100 100 100 86 100 55 100 58 77 68 29 6 5 14
100 100 100 100 100 63 100 17 100 99 97 0 0 19 5 5 0 0 0 100 100 100 100 100 100 100 100 100 100 100 100 100 100 100 100 100 100 99 12 92 37 45 5 5 5
100 100 66 5 68 48 98 12 94 100 38 5 4 5 6 4 0 0 0 100 100 100 100 100 100 100 100 100 100 100 100 100 100 100 70 100 100 100 94 83 99 94 98 5 5
82 19 26 43 5 100 28 70 92 40 78 10 59 27 5 0 7 2 0 100 100 100 100 100 100 100 100 100 100 100 100 100 100 100 94 100 100 100 100 98 94 98 76 45 5
100 100 100 100 100 100 100 100 55 64 100 99 100 55 5 2 17 55 11 100 100 100 100 100 100 100 100 100 100 100 100 100 100 100 100 100 100 100 100 100 100 75 55 5 5
69 23 44 81 95 100 100 100 100 100 100 93 100 100 67 4 0 54 86 100 100 100 100 100 100 100 100 100 100 100 100 100 100 100 100 100 100 100 100 100 100 65 58 17 5
58 85 62 11 100 82 100 70 100 100 59 45 38 27 54 26 3 87 99 86 100 100 100 100 100 100 100 100 100 100 100 100 100 97 100 100 100 100 100 100 99 72 50 89 18
55 83 2 82 80 42 96 72 13 14 98 100 86 42 5 5 5 40 99 24 100 100 100 94 100 100 100 100 100 100 100 100 100 100 100 100 100 100 100 100 100 97 80 98 95
98 96 7 94 92 88 100 76 30 31 67 14 11 96 52 5 41 5 34 98 100 100 100 100 100 100 100 100 100 100 100 100 100 100 100 100 100 100 100 100 100 97 100 98 98
99 46 42 100 99 17 92 97 75 100 68 57 100 100 100 10 23 6 10 99 100 100 100 100 100 100 100 100 100 100 100 100 100 100 100 100 100 100 100 100 100 99 81 89 98
100 67 5 73 64 80 100 76 100 99 100 100 100 100 100 9 8 18 98 100 100 100 100 100 100 100 100 100 100 100 100 100 100 100 100 98 100 100 100 100 100 100 100 98 80
100 48 76 98 23 60 95 100 100 88 94 99 100 85 83 87 86 89 78 19 100 100 100 100 100 100 100 100 100 99 100 100 100 100 100 100 100 100 100 100 100 100 100 100 52
99 81 6 100 100 98 20 24 79 100 81 100 97 68 100 72 78 87 100 84 67 99 100 100 100 100 100 100 100 100 100 100 100 100 100 100 100 100 100 100 100 100 100 100 100
100 41 100 8 26 100 100 54 88 100 94 91 100 64 77 100 22 5 5 7 15 27 96 100 100 100 100 100 100 100 100 100 100 100 100 100 100 100 100 100 97 100 100 100 100

GFSSW_prec_cloud_069.txt.gz
Cloud_Cover
100 98 94 99 100 100 100 100 100 100 100 100 100 100 100 100 100 100 100 100 100 100 100 100 100 82 52 0 0 0 0 0 0 0 0 1 21 71 2 0 0 0 0 0 0
100 100 80 62 100 100 100 100 100 95 100 100 100 100 100 100 100 100 100 100 100 100 98 8 35 5 0 0 2 0 0 0 0 0 0 17 98 100 0 0 0 0 0 0 0
99 100 100 100 100 94 100 100 100 97 28 81 70 89 64 100 100 100 100 100 100 10 97 97 38 4 0 0 0 0 0 0 0 0 0 7 100 100 1 0 0 0 0 0 0
93 100 100 100 100 100 100 100 100 100 100 100 87 100 71 84 74 92 95 10 74 59 77 63 0 0 0 0 0 0 0 0 1 68 5 2 15 94 4 0 0 0 0 0 0
53 100 100 100 100 100 100 91 100 99 100 100 100 100 41 46 100 100 100 100 100 100 97 58 2 0 5 1 0 0 0 0 99 100 34 36 98 8 2 2 0 5 0 2 0
100 100 99 100 100 100 100 99 100 98 100 100 100 100 100 68 32 71 100 78 40 13 6 5 5 3 5 3 0 0 1 60 99 100 82 44 100 9 99 5 3 5 4 4 5
100 100 90 98 100 100 97 100 92 98 96 5 60 98 100 100 100 98 100 100 86 100 100 1 0 0 2 4 5 2 1 34 100 38 43 100 100 50 95 5 25 5 5 5 5
100 100 100 100 82 100 45 14 43 93 71 13 18 43 19 57 100 97 98 99 90 78 25 2 0 0 6 11 3 0 5 5 99 100 100 73 84 100 100 5 53 5 5 4 5
100 100 99 56 100 100 83 59 5 5 40 80 76 22 9 4 2 30 19 62 36 4 0 0 0 1 75 100 85 78 64 32 100 100 100 89 100 100 89 49 72 5 5 27 38
100 100 100 100 100 100 100 100 100 100 16 11 7 96 4 4 4 0 4 4 4 0 0 0 2 4 100 98 8 95 69 88 100 100 100 100 100 100 87 99 32 5 5 98 8
100 100 100 100 100 100 100 100 100 100 100 5 0 9 4 48 16 3 5 10 2 0 0 0 5 5 100 100 100 100 59 74 100 100 100 98 100 90 98 100 6 5 5 88 38
100 100 100 100 88 100 100 100 100 100 100 89 35 36 52 98 74 5 6 85 12 0 4 3 5 5 60 97 49 97 86 82 100 100 86 84 100 100 95 100 46 11 12 68 38
100 100 100 100 100 100 100 100 100 87 85 98 100 97 82 24 5 6 5 6 5 6 12 82 9 48 71 72 94 99 100 100 100 100 40 58 100 100 100 100 100 5 11 10 22
100 100 100 100 100 100 100 100 99 100 100 88 100 100 100 96 42 9 1 52 97 4 5 5 57 93 62 63 100 100 100 100 100 100 80 98 95 100 82 100 100 10 5 24 46
100 100 100 100 100 100 100 100 100 100 100 100 100 100 69 5 8 36 0 3 6 3 3 0 94 67 74 100 100 100 100 100 99 21 99 100 100 100 100 100 100 65 6 5 37
100 100 100 100 100 100 100 100 100 100 100 82 7 19 5 0 4 5 2 9 12 5 5 5 88 98 100 100 100 100 73 100 98 100 64 100 100 100 100 100 100 84 95 64 6
22 100 100 100 100 100 100 100 77 100 64 6 5 83 6 0 4 5 2 4 4 4 4 13 100 100 100 100 100 100 90 100 100 100 100 100 88 100 100 100 100 100 95 100 30
100 100 100 100 100 100 100 98 100 100 100 100 15 5 6 5 5 1 5 39 0 0 0 100 100 96 100 100 100 100 100 100 100 100 100 100 42 100 99 100 100 100 100 77 71
5 39 95 28 80 100 80 100 87 100 100 100 100 100 100 95 12 96 100 71 35 5 3 100 100 98 94 100 100 100 100 100 100 100 100 100 100 100 100 100 100 100 100 93 21
5 5 4 0 6 65 100 51 38 76 96 72 100 100 100 94 74 37 38 32 80 84 34 100 100 100 92 100 100 100 100 100 100 100 100 100 100 100 100 100 100 100 100 100 70
5 39 0 11 94 95 89 35 4 2 100 99 51 19 11 99 94 93 98 28 44 86 100 100 100 100 100 100 100 100 100 100 100 100 100 100 100 100 100 100 100 100 100 100 99
7 86 2 34 88 100 84 2 5 2 100 92 90 48 84 98 38 59 81 43 55 45 5 100 100 100 100 100 100 100 100 100 100 100 100 100 100 100 100 100 100 100 100 100 100
99 96 0 5 100 100 53 5 1 0 85 99 98 95 100 100 75 63 90 18 5 5 4 100 100 100 100 100 100 100 100 100 100 100 100 100 100 100 100 100 100 100 89 100 100
100 94 5 5 5 96 100 5 5 2 0 100 100 100 100 92 94 95 100 88 100 49 3 100 100 100 100 100 100 100 100 100 100 100 100 100 100 100 100 100 100 90 87 100 100
100 67 38 83 75 42 100 76 100 64 5 75 100 100 100 100 100 100 100 96 96 23 5 100 100 100 100 100 100 100 100 100 100 100 100 100 100 100 100 100 100 100 94 95 100
94 96 6 93 21 100 86 5 100 100 100 23 100 100 100 100 100 100 99 92 5 5 6 100 100 100 100 100 100 100 100 100 100 100 100 100 100 100 100 100 100 100 100 99 100
63 50 99 61 94 100 100 14 8 98 100 98 100 100 100 100 100 100 100 83 83 5 10 100 100 100 100 100 100 100 100 100 100 100 100 100 100 100 100 100 100 100 100 100 100

GFSSW_prec_cloud_072.txt.gz
Cloud_Cover
100 99 60 96 39 100 100 90 93 96 94 100 98 90 100 100 100 100 100 100 100 100 100 100 100 100 100 78 95 34 0 0 0 4 0 0 0 0 22 40 2 0 0 0 0
100 100 100 87 10 76 100 100 96 92 95 90 69 63 96 100 100 78 100 100 100 100 100 100 100 59 62 100 21 2 0 0 0 0 0 0 0 0 0 82 0 0 0 0 0
100 100 100 100 100 29 33 100 100 88 100 98 58 100 100 71 30 53 37 5 5 53 100 57 100 89 32 56 9 0 1 4 3 0 0 4 4 0 2 3 0 0 0 0 0
24 100 100 100 100 100 100 100 100 100 100 100 100 100 100 100 97 99 100 90 44 82 50 97 100 78 5 6 29 6 1 1 0 0 0 0 5 0 0 0 6 0 0 0 0
100 100 100 100 100 100 100 49 78 100 100 100 100 100 100 100 99 100 100 100 100 100 83 100 95 81 100 100 96 9 1 0 1 0 0 0 1 0 0 22 100 3 0 0 2
100 100 100 100 100 100 100 100 86 100 100 100 100 100 100 100 100 100 100 100 100 100 100 100 100 55 28 17 5 0 2 0 0 0 0 0 0 0 15 100 100 0 3 0 5
100 100 100 100 100 100 100 100 100 100 100 100 100 100 100 95 35 7 42 6 7 7 49 29 36 94 14 36 2 0 0 0 0 0 0 36 2 0 100 100 69 5 6 1 5
100 100 100 100 100 100 100 100 100 100 100 100 100 100 99 94 91 21 23 7 5 0 2 3 1 3 0 0 1 0 0 0 0 0 10 100 2 89 100 99 7 54 5 5 5
100 100 100 100 100 100 100 100 86 94 97 80 78 96 100 95 100 80 84 7 16 1 0 0 0 0 0 0 0 0 0 2 0 1 88 100 84 100 100 100 40 94 5 52 5
100 100 100 100 100 100 100 100 100 100 100 100 100 98 99 100 100 100 100 99 3 1 0 0 0 0 0 0 0 4 5 5 3 77 100 100 84 100 52 4 76 99 18 61 5
100 100 100 100 100 100 100 100 100 100 100 100 100 100 100 100 100 100 100 67 5 1 0 0 0 5 0 2 5 5 5 5 5 98 2 0 40 100 47 3 98 5 62 100 7
100 100 100 100 100 100 100 100 100 100 100 100 100 100 100 100 100 100 100 14 5 34 57 5 5 4 0 5 5 24 14 38 6 100 4 0 7 24 96 62 100 34 82 100 8
100 100 100 100 100 100 100 100 100 100 100 100 100 100 100 100 100 100 14 10 22 33 63 10 3 4 0 9 97 65 61 59 98 100 0 3 40 6 61 100 100 47 90 91 53
100 100 100 100 100 100 100 100 100 100 100 100 100 100 100 100 100 100 98 100 96 5 5 23 4 5 5 5 45 5 86 85 100 90 1 29 29 5 88 100 100 100 99 70 79
12 100 100 100 100 100 97 100 100 100 100 100 100 100 100 100 100 100 100 100 82 8 3 4 2 0 5 5 92 40 100 100 100 50 4 97 96 100 100 100 100 100 100 85 99
78 87 84 100 100 100 100 100 98 100 91 100 100 100 100 100 100 100 100 100 20 5 2 0 0 2 1 20 100 100 100 100 100 98 39 69 100 100 100 100 100 100 100 35 90
100 100 45 9 36 100 100 100 100 100 100 100 100 100 100 100 100 100 100 55 5 79 2 5 0 0 1 88 100 100 100 100 100 97 52 100 100 100 100 100 100 100 100 100 97
100 100 100 100 98 21 54 100 68 100 100 100 100 100 100 100 100 100 100 65 5 1 2 83 0 0 5 100 100 100 100 100 99 43 100 100 100 100 100 92 100 100 100 100 100
12 3 43 10 90 94 59 92 74 5 7 100 100 100 100 100 100 100 77 53 5 5 5 6 3 10 23 100 100 100 100 100 98 58 100 100 100 100 100 99 99 100 100 100 11
8 4 2 0 22 98 95 15 3 1 1 64 100 100 100 100 100 54 82 68 8 5 5 5 56 4 23 100 100 100 100 100 100 100 100 100 100 100 98 87 100 34 100 100 100
4 12 2 5 27 93 88 58 0 0 0 77 100 100 83 100 100 100 99 100 97 100 100 7 48 15 100 100 100 100 100 100 100 100 100 100 100 100 100 100 100 84 100 100 100
15 42 42 91 90 62 85 5 2 1 0 36 100 100 100 100 100 100 100 93 100 100 79 51 88 5 100 100 100 100 100 100 100 98 100 100 100 100 100 52 50 99 99 100 100
98 64 5 86 89 85 11 16 77 6 0 0 100 100 100 100 100 100 86 99 79 29 80 5 5 55 23 100 100 100 100 100 100 100 100 100 100 100 100 100 79 100 100 100 100
96 63 5 12 3 12 83 90 96 56 6 5 26 100 100 100 100 100 100 91 5 33 5 3 5 5 19 100 100 100 100 100 100 100 100 100 100 100 100 100 84 96 100 99 100
100 50 6 66 100 95 94 37 100 100 61 56 18 96 100 100 100 100 99 100 48 55 24 5 3 4 5 100 100 100 100 100 100 100 100 100 100 100 100 100 100 95 88 100 100
100 79 19 5 5 9 6 31 91 100 100 100 50 14 100 100 82 100 100 94 95 91 40 22 5 5 5 100 100 100 100 100 100 100 100 100 100 100 100 100 100 100 100 100 98
90 98 96 54 73 39 68 90 100 100 100 100 100 73 90 100 100 100 100 100 11 48 79 7 51 14 87 100 100 100 100 100 100 100 100 100 100 100 100 100 100 100 100 100 100

GFSSW_prec_cloud_075.txt.gz
Cloud_Cover
5 5 2 5 90 9 6 5 7 41 13 100 92 100 100 100 86 83 100 94 98 100 100 100 96 92 100 89 100 100 100 95 66 94 97 100 22 0 0 0 0 1 8 0 0
2 3 6 6 4 3 39 29 17 19 28 50 98 96 99 67 54 77 100 47 85 87 58 80 69 6 26 99 61 30 4 5 56 98 86 36 4 0 0 0 0 0 2 0 0
82 10 5 5 5 5 5 4 97 96 46 19 78 100 90 100 90 51 99 91 21 5 33 22 32 27 5 3 5 5 6 16 85 13 4 1 1 5 0 0 0 0 0 0 0
100 96 13 5 5 8 5 5 5 60 98 100 95 64 100 100 98 81 100 100 100 92 90 95 71 13 27 78 28 1 11 98 75 57 5 57 98 88 2 0 0 0 0 0 18
100 99 100 86 6 7 5 23 5 15 83 100 100 100 80 95 100 100 100 100 100 100 100 100 100 100 100 23 34 62 85 53 13 22 68 100 90 0 0 5 2 0 0 75 100
100 100 90 100 57 53 64 64 100 76 95 100 100 100 100 100 100 100 100 100 100 100 100 100 100 54 56 18 4 0 0 0 1 36 10 0 0 0 0 0 0 0 19 100 100
51 96 19 59 96 97 100 100 100 72 100 100 100 100 100 100 99 100 100 100 100 100 100 100 96 11 20 5 0 3 0 0 2 0 0 0 0 0 0 0 0 0 86 100 100
99 90 98 70 90 78 100 100 99 33 100 100 100 100 100 100 80 100 100 100 100 100 100 69 5 5 2 2 0 0 0 0 0 0 0 0 0 0 0 0 0 18 99 100 100
68 97 100 87 74 99 94 100 100 100 100 100 100 100 100 100 100 100 100 100 100 100 100 100 100 100 93 1 0 0 0 0 0 0 0 0 0 0 0 2 2 100 75 100 100
54 99 100 100 100 100 100 100 100 100 100 100 100 100 100 100 100 100 100 100 100 100 100 100 100 100 67 1 1 0 0 0 0 0 4 1 0 0 19 50 20 9 49 100 96
99 84 100 100 100 100 100 100 100 100 100 100 100 100 100 100 100 100 100 100 100 100 100 100 100 100 77 5 1 5 5 0 0 0 5 5 0 0 21 0 4 21 100 80 100
100 100 100 100 100 100 100 100 100 100 100 100 100 100 100 100 100 100 100 100 100 100 100 100 85 6 3 2 2 5 1 1 0 2 8 5 0 0 6 0 42 100 100 100 99
100 100 100 99 100 96 100 100 100 100 100 100 100 100 100 100 100 100 100 100 100 100 100 100 98 5 5 0 0 0 5 5 3 5 83 12 0 5 2 0 67 100 93 100 100
100 98 48 6 5 56 94 100 100 100 100 100 100 100 100 100 100 100 100 100 100 100 100 100 91 92 5 5 2 5 5 5 5 19 5 62 4 96 4 7 82 100 89 99 100
100 100 100 100 92 35 78 99 100 70 96 100 100 100 100 100 100 100 100 100 100 100 100 100 100 100 5 4 4 41 5 81 79 25 85 8 56 66 2 100 100 100 100 100 100
100 97 100 100 100 100 94 5 8 100 71 100 100 100 100 100 100 100 100 100 100 100 100 100 100 68 69 11 5 44 43 11 48 98 97 100 17 9 59 100 100 100 100 100 100
17 37 81 68 82 100 72 91 86 66 99 100 100 93 100 100 100 100 100 100 100 100 100 100 100 56 5 5 5 27 96 98 100 100 60 100 52 93 100 100 100 100 100 100 100
6 36 6 0 0 18 86 5 76 6 73 97 100 100 100 100 100 100 100 100 100 100 100 100 60 52 5 5 8 11 60 100 100 86 100 100 96 100 100 100 100 98 100 100 100
1 3 0 0 1 1 38 36 8 96 14 22 92 99 100 95 65 100 100 100 100 100 100 100 99 68 18 1 30 99 100 100 100 100 57 92 100 100 99 100 100 100 100 100 100
5 10 1 0 1 5 83 5 0 0 1 82 99 90 100 100 81 100 100 100 100 100 100 100 88 82 5 5 20 90 89 100 100 100 88 88 100 100 100 24 6 85 100 100 100
5 4 2 5 5 44 94 23 1 0 0 0 13 97 100 100 97 62 60 100 100 100 100 99 76 8 10 5 30 88 100 100 100 100 93 100 100 100 96 37 28 80 100 100 100
5 24 5 5 74 84 37 11 4 2 0 4 0 54 100 100 100 100 7 100 100 100 100 100 96 8 8 5 12 92 100 100 100 100 94 100 100 100 46 9 35 100 100 100 100
20 5 62 100 86 82 44 90 100 13 11 50 80 56 100 100 100 100 100 100 100 100 100 100 100 78 85 7 28 94 100 100 100 100 100 100 100 100 100 88 100 100 100 100 100
78 58 7 61 51 78 21 24 11 89 8 94 62 6 98 100 100 100 76 94 99 80 95 98 100 23 71 88 100 100 100 100 100 100 100 100 100 100 100 100 100 100 100 100 100
100 45 5 74 100 100 100 77 47 5 23 99 10 100 100 100 100 100 100 100 100 100 100 26 87 97 5 9 7 7 94 100 100 100 100 100 100 100 100 100 100 100 100 100 100
100 98 9 5 5 62 100 5 32 100 94 100 71 5 58 100 100 100 100 100 96 100 100 65 97 69 5 4 10 11 12 100 100 100 100 100 100 100 100 100 100 100 100 100 100
99 100 88 50 14 18 12 5 25 67 97 90 91 100 91 94 100 100 100 82 23 72 100 100 100 100 60 4 4 4 5 92 100 100 100 100 100 100 100 100 100 100 100 100 100

GFSSW_prec_cloud_078.txt.gz
Cloud_Cover
33 5 5 3 0 25 71 27 4 1 0 0 3 1 5 9 45 5 71 63 100 100 100 100 100 76 100 100 67 94 100 88 77 48 24 92 99 100 0 0 0 0 0 0 0
56 95 48 35 5 27 100 100 91 5 0 0 0 4 5 33 5 6 4 31 100 100 100 100 60 78 100 63 53 59 28 24 5 5 39 11 41 97 4 4 5 0 0 0 0
34 100 100 100 92 5 5 53 100 100 83 10 4 2 5 29 97 25 5 26 43 80 38 99 91 99 62 40 91 58 72 83 69 4 0 4 2 8 3 5 0 0 0 0 0
100 100 100 100 100 100 18 70 93 10 52 100 100 30 5 6 100 100 100 55 97 100 100 100 58 66 64 6 6 5 9 8 8 3 3 16 1 5 4 0 0 2 0 2 32
100 100 100 100 100 100 100 91 87 98 100 100 100 95 100 93 100 65 100 100 65 87 100 100 100 100 100 100 100 99 98 100 100 89 37 37 11 5 0 4 16 1 2 1 0
67 98 99 16 98 100 100 48 68 100 100 100 100 100 96 100 78 100 100 100 100 100 100 100 100 100 100 100 100 100 100 100 100 100 68 10 26 1 2 5 0 0 0 0 0
100 100 5 34 80 5 76 71 99 97 87 100 100 100 99 100 44 100 100 100 100 100 71 100 100 100 100 100 100 100 100 99 80 11 30 4 0 0 6 3 0 0 0 0 0
92 81 100 6 5 18 53 77 5 64 22 96 100 100 100 100 89 77 99 100 100 100 100 100 100 100 100 100 87 84 58 58 5 2 3 0 2 0 0 0 0 0 0 0 0
5 6 6 8 5 12 83 13 37 5 5 58 89 99 100 100 100 97 97 100 100 100 100 100 100 100 100 100 79 60 5 2 43 14 5 0 0 0 2 0 0 0 0 0 12
6 8 5 18 5 82 10 19 6 40 100 100 100 100 100 100 100 100 100 100 100 100 100 100 100 100 100 100 97 55 100 93 89 57 1 0 0 0 4 0 0 0 0 0 81
65 100 100 100 100 83 21 94 63 79 100 100 100 100 100 100 100 100 100 100 100 100 100 100 100 100 100 100 100 100 100 100 68 4 1 0 0 0 0 0 0 0 0 19 75
80 98 100 99 8 22 5 100 99 51 100 100 100 100 100 100 100 100 100 100 100 100 100 100 100 100 100 98 100 100 100 100 44 2 0 0 0 0 0 0 0 0 0 84 100
100 65 12 5 5 34 100 100 100 98 70 94 100 99 100 100 100 100 100 100 100 100 100 100 100 100 100 100 100 100 93 8 0 0 0 0 1 0 0 0 0 0 16 100 100
100 82 35 73 68 100 100 100 100 88 35 46 100 100 100 100 100 100 100 100 100 100 100 94 100 100 100 100 100 100 16 5 5 24 5 2 17 0 0 0 0 2 100 100 100
100 100 93 100 100 100 100 100 100 100 71 60 70 100 100 100 100 100 100 100 100 100 100 100 100 100 100 100 100 100 100 12 5 6 23 5 5 5 3 0 0 100 100 100 100
100 100 100 90 100 100 100 100 100 88 99 100 100 98 93 100 100 100 100 100 100 100 100 100 100 100 100 100 100 98 99 22 22 63 98 4 5 96 94 83 63 100 100 100 100
99 15 21 88 80 17 2 21 12 5 4 2 82 96 79 53 100 100 100 100 100 100 100 100 99 100 100 100 100 100 82 50 98 100 83 44 37 100 100 90 100 100 100 100 100
100 85 11 13 5 0 0 3 0 0 0 0 2 99 10 10 9 100 100 100 100 100 100 100 100 100 100 100 100 100 90 61 70 97 41 69 96 100 100 100 100 100 100 100 100
78 36 3 0 0 0 3 37 0 16 9 0 0 2 81 74 30 8 96 100 100 100 100 100 100 100 100 100 100 100 100 84 99 100 94 78 100 100 100 99 100 100 94 100 100
3 0 0 0 0 4 5 4 0 3 0 0 3 41 88 90 78 10 99 100 100 100 100 100 100 100 100 100 100 94 100 99 100 96 100 100 100 100 100 100 100 100 84 100 100
0 5 4 5 5 4 37 5 3 0 0 0 3 1 0 20 100 98 95 100 100 100 100 100 89 100 100 100 100 99 100 100 100 100 46 100 100 100 100 100 100 100 100 100 100
4 5 63 85 24 98 71 5 5 3 0 5 4 0 17 74 100 100 100 100 100 100 100 100 100 100 100 100 98 100 100 89 100 100 82 99 100 100 100 100 100 100 100 100 100
5 15 4 63 77 91 68 58 32 1 5 9 14 70 58 42 100 100 100 100 100 100 100 98 100 100 100 100 100 100 100 100 90 100 96 100 100 100 100 100 100 100 100 100 100
45 62 7 62 72 100 89 14 5 3 0 5 5 4 4 6 100 100 100 100 93 99 100 100 100 100 100 100 100 91 100 99 100 100 100 100 100 100 100 100 100 100 100 100 100
91 54 8 82 93 98 93 21 6 17 5 52 9 14 12 27 100 100 100 100 100 100 100 100 100 100 96 14 92 18 20 20 64 54 100 100 100 100 100 100 100 100 100 100 100
76 78 22 5 6 5 92 5 5 54 62 47 100 97 88 99 74 100 100 100 100 100 100 100 100 100 100 32 18 100 95 4 5 5 100 100 100 100 100 100 100 100 100 100 100
53 98 56 52 5 8 5 5 5 5 1 32 64 45 10 35 56 100 100 100 100 100 72 100 100 100 100 85 5 80 31 37 13 30 82 100 100 100 100 100 100 100 100 100 100

GFSSW_prec_cloud_081.txt.gz
Cloud_Cover
70 98 94 100 43 26 28 65 74 93 12 24 5 5 9 42 15 5 4 1 1 30 5 6 66 97 100 99 100 100 100 100 100 100 100 100 73 75 96 2 0 0 0 0 0
6 83 59 62 79 13 9 51 43 90 93 100 97 4 4 5 88 6 5 1 0 1 0 5 5 89 100 100 100 100 100 100 100 100 55 37 14 38 17 4 2 2 0 0 0
22 100 100 100 87 100 100 98 22 20 99 100 100 100 13 4 6 5 5 6 6 5 5 5 0 5 82 100 100 100 100 100 100 100 96 19 79 42 5 1 0 0 0 0 0
100 34 17 31 6 100 100 100 80 100 100 100 90 100 100 99 74 51 100 100 99 22 42 5 5 13 7 96 99 100 100 100 100 97 87 69 5 4 4 0 3 5 0 0 0
100 100 100 100 100 100 100 100 100 100 100 100 100 100 100 100 100 100 43 98 100 100 17 10 68 6 9 51 70 78 100 94 84 83 29 7 40 46 41 87 100 52 1 0 0
100 100 100 100 74 100 100 100 100 100 75 93 100 100 100 100 100 100 100 86 88 100 100 91 98 19 100 100 100 100 100 100 100 100 100 100 100 100 100 97 17 2 0 0 0
100 100 100 100 84 27 100 100 95 6 5 60 100 99 100 99 13 5 17 91 100 100 100 100 100 100 100 100 99 100 100 100 100 100 100 100 100 29 10 2 0 0 0 0 0
100 100 94 61 51 3 4 2 5 5 2 95 100 100 99 50 38 50 100 100 100 100 100 99 100 95 100 100 100 100 100 100 100 100 100 100 100 59 10 2 0 0 0 0 0
76 5 4 0 86 100 5 35 94 95 100 100 44 49 5 53 65 44 100 100 100 100 100 81 85 100 100 100 100 100 100 100 100 100 100 59 5 9 20 0 0 0 0 0 0
7 4 49 86 83 100 100 100 99 17 100 31 12 47 2 5 17 8 100 100 100 100 100 100 97 100 100 100 100 100 100 99 100 100 18 4 2 4 18 1 0 0 0 0 0
92 100 45 100 32 100 100 100 72 15 78 43 5 4 81 29 10 100 100 100 100 100 100 100 94 100 100 100 100 100 100 100 100 100 12 6 3 5 5 5 0 0 0 0 0
100 96 12 82 100 100 92 8 12 61 97 46 4 5 62 6 56 100 96 100 100 100 100 99 100 100 100 100 100 100 100 100 100 100 77 8 47 8 5 0 0 0 0 0 0
31 39 100 88 99 99 85 69 23 25 99 96 89 21 5 6 96 100 54 100 100 100 100 100 100 100 100 100 100 100 100 100 100 100 86 36 18 59 5 0 0 0 0 0 0
100 100 100 100 100 22 22 100 10 7 9 10 67 100 90 5 5 7 100 100 100 100 100 100 100 100 100 100 97 99 100 100 100 64 100 74 13 7 5 2 0 0 0 0 0
100 100 100 61 94 48 7 96 100 92 40 7 100 100 100 100 97 6 74 100 100 100 100 100 100 100 100 100 94 100 100 100 100 100 100 74 63 5 55 0 0 0 0 0 0
100 100 95 100 81 68 73 60 17 5 0 0 1 26 62 100 100 100 8 100 100 100 100 100 100 100 100 100 100 100 100 100 100 100 100 99 18 5 82 0 5 0 3 0 1
100 100 100 20 84 67 73 18 7 2 0 1 0 0 0 1 42 37 100 100 100 100 100 100 100 100 100 100 100 100 100 100 100 100 72 16 38 80 4 4 3 47 8 0 28
100 100 17 99 98 26 5 3 0 0 0 0 0 0 0 0 1 0 11 100 100 51 100 100 100 100 100 100 100 100 100 100 100 98 93 7 33 61 6 17 66 100 95 34 100
66 99 100 100 5 5 2 0 0 5 4 0 0 5 5 5 5 4 7 46 100 100 100 100 100 100 100 100 100 100 100 99 73 42 94 81 100 8 17 97 71 100 100 100 100
68 97 94 14 6 1 4 1 1 2 0 1 1 4 1 0 1 83 70 75 52 100 100 100 100 100 100 100 100 100 100 100 98 73 86 88 99 30 69 100 99 100 100 100 100
87 6 5 3 0 4 5 1 0 0 0 2 3 0 0 2 5 5 70 97 86 84 100 100 100 100 100 100 100 100 100 99 97 95 70 91 74 99 100 100 100 100 100 100 100
19 5 36 5 12 8 5 5 5 1 3 3 5 5 5 56 90 80 5 100 100 100 97 100 100 100 100 100 100 100 100 100 100 95 91 98 21 97 100 100 100 100 100 100 100
14 26 4 5 48 83 54 23 5 1 0 5 5 5 5 5 5 76 62 100 100 100 100 86 100 100 100 100 100 100 100 100 100 100 99 87 42 100 100 100 100 100 100 100 100
14 5 29 33 51 82 40 20 7 4 0 5 5 5 24 7 5 22 67 100 100 100 100 93 99 100 100 100 100 100 100 100 95 92 94 94 30 94 100 100 100 100 100 100 100
22 42 13 26 97 91 61 5 5 5 5 5 42 98 100 93 24 5 98 100 100 100 100 100 100 100 100 100 100 100 100 100 98 27 55 86 42 100 100 100 100 100 100 100 100
39 50 42 6 5 5 3 3 0 5 43 2 5 92 75 65 94 100 100 100 100 100 100 100 100 100 98 100 100 100 100 100 100 100 98 18 99 100 100 100 100 100 100 100 100
93 76 40 5 6 5 4 0 3 5 5 32 32 5 5 30 80 100 100 100 100 100 100 100 100 100 100 100 100 50 5 64 100 100 86 76 100 100 100 100 100 100 100 100 100

GFSSW_prec_cloud_084.txt.gz
Cloud_Cover
5 7 5 6 32 11 8 7 5 7 17 9 74 64 86 2 1 46 5 4 1 5 26 79 30 3 0 2 3 29 29 100 100 100 100 100 100 86 39 43 35 75 100 100 57
6 26 6 16 16 10 8 34 19 55 45 100 100 100 100 99 58 25 5 50 26 1 5 5 6 5 3 5 1 1 79 100 100 100 100 100 100 99 96 100 100 100 90 98 67
76 99 94 100 100 100 61 6 100 100 99 100 100 100 100 100 100 100 94 5 5 25 6 5 5 5 98 36 0 3 5 26 100 100 100 100 100 100 100 100 100 99 86 14 6
100 100 100 100 100 100 100 100 100 100 100 100 100 100 100 100 9 16 59 5 60 100 100 100 100 34 10 16 78 4 4 5 42 100 100 100 100 100 100 98 100 82 70 6 5
100 100 100 100 100 100 100 100 100 100 100 100 100 100 98 100 51 49 8 25 18 99 100 100 100 100 82 50 28 12 5 5 0 5 90 100 100 100 100 100 100 56 4 16 36
100 100 100 100 100 100 100 100 100 100 100 100 100 100 76 75 40 28 17 100 100 99 97 85 93 100 80 100 49 100 5 6 5 59 99 52 95 6 100 76 76 30 84 100 97
99 100 100 100 100 100 100 100 100 11 53 50 100 95 65 8 99 47 15 5 5 5 5 93 48 100 100 100 98 98 100 99 99 100 100 100 97 100 100 98 100 100 100 86 96
100 100 100 100 100 100 100 43 44 75 5 12 93 30 73 100 98 91 98 41 6 97 61 89 77 99 100 100 100 100 100 100 100 100 100 76 98 100 100 100 100 100 100 91 36
100 62 90 100 100 100 99 5 5 53 5 9 25 100 100 100 100 100 44 4 5 36 92 56 77 79 100 100 100 100 100 100 100 100 100 100 100 98 100 100 100 100 83 33 28
100 100 100 100 100 100 92 5 32 28 10 81 100 100 100 91 86 51 32 3 4 41 90 99 100 100 98 100 100 100 88 74 100 100 100 100 100 100 100 100 100 94 29 75 8
100 100 100 100 64 31 5 4 5 4 71 100 100 54 6 72 100 38 5 5 5 52 100 100 51 99 100 100 100 100 94 100 100 100 100 100 100 100 100 100 52 18 65 23 5
100 100 21 49 92 5 49 13 16 100 100 100 62 42 16 5 5 0 4 71 27 71 87 100 100 100 100 100 100 100 100 97 100 100 100 100 100 100 100 98 100 100 68 10 0
100 100 95 85 90 5 84 9 32 94 93 41 84 4 5 4 0 4 10 29 100 56 90 69 98 100 100 100 100 100 100 100 100 100 100 100 100 100 100 100 90 93 7 0 0
100 100 100 17 98 56 58 99 99 77 66 26 30 5 2 5 34 26 5 51 69 100 61 18 99 100 100 100 100 100 100 100 100 100 100 100 100 100 100 100 100 5 28 4 0
100 100 100 100 64 46 96 45 92 99 14 4 4 3 4 5 5 4 17 99 92 100 39 38 100 100 100 100 100 100 100 100 100 100 100 100 100 100 100 97 7 5 5 0 0
100 100 100 85 85 70 100 37 7 6 41 5 5 5 5 5 0 0 0 65 100 99 100 92 100 100 100 100 100 100 100 100 100 100 100 100 100 100 100 98 7 3 3 0 0
100 100 96 100 98 76 50 5 6 10 2 4 5 3 0 1 0 0 0 3 88 99 100 84 100 100 100 100 100 100 100 100 100 100 100 100 87 100 100 58 6 1 3 0 0
100 100 100 73 61 72 46 91 5 5 5 3 0 0 0 2 0 0 5 6 7 13 85 99 95 100 100 100 100 100 100 100 100 100 100 100 100 99 58 88 63 18 0 0 0
100 68 100 100 78 36 6 5 5 4 1 0 0 0 0 2 0 0 5 22 97 72 100 100 98 100 100 100 100 100 100 100 100 100 100 100 99 100 99 99 8 5 2 2 41
75 67 53 63 58 24 6 15 5 0 0 0 0 0 0 0 0 0 2 16 98 100 39 79 95 100 100 100 97 100 100 100 100 100 100 100 100 100 85 68 26 5 8 21 95
44 61 80 95 42 39 30 5 5 2 3 2 1 1 0 0 1 1 1 30 100 100 48 23 67 96 100 100 100 100 100 100 100 100 100 99 91 14 100 53 63 5 50 81 94
82 74 93 30 59 6 5 5 2 5 5 6 9 97 79 92 70 94 44 32 44 97 100 64 83 100 100 100 100 100 100 100 100 100 100 99 50 21 36 68 45 98 59 95 100
100 89 100 94 30 5 28 9 5 5 5 52 56 62 71 100 87 14 92 84 56 95 100 100 64 99 100 100 100 100 100 100 100 100 100 99 99 43 92 96 98 82 100 100 100
100 83 59 51 12 36 10 14 77 5 5 28 6 72 99 98 100 90 94 35 52 99 100 100 100 90 100 100 100 100 100 100 100 100 100 100 100 97 86 15 100 100 100 100 100
34 31 8 92 91 66 5 5 5 9 24 7 68 98 99 93 97 49 92 90 63 100 100 100 100 100 94 100 100 100 100 100 100 100 100 100 100 100 18 60 100 100 100 100 100
41 31 5 5 5 5 5 5 5 10 94 74 16 90 100 99 100 81 74 100 100 100 100 100 100 100 100 100 100 100 100 100 100 100 100 99 40 86 75 35 100 100 100 100 100
64 16 47 3 16 20 9 5 5 5 8 32 76 82 42 5 24 84 70 100 100 100 100 100 100 100 100 100 100 100 100 100 100 99 64 68 62 25 46 80 100 100 100 100 100

GFSSW_prec_cloud_087.txt.gz
Cloud_Cover
54 5 5 4 4 5 5 4 5 5 5 5 5 5 6 6 5 84 96 100 100 100 100 72 6 67 31 5 6 41 0 0 0 3 8 97 100 100 100 100 100 100 100 100 100
5 5 5 14 32 6 14 11 5 24 5 72 9 34 21 41 79 51 100 100 100 100 100 100 90 36 4 5 5 4 1 21 6 4 0 11 21 100 100 100 100 100 100 100 100
5 5 5 66 14 5 94 98 95 100 75 65 61 100 100 97 100 100 100 100 100 100 39 34 41 0 46 80 100 99 18 89 96 36 4 0 9 100 100 97 100 100 100 100 100
15 25 48 100 100 100 100 100 100 100 100 100 100 100 100 100 78 100 100 100 100 100 83 12 78 5 5 6 93 100 100 100 97 27 28 9 5 54 67 100 100 100 100 100 100
100 100 100 100 100 100 100 100 100 99 100 100 100 100 100 100 98 100 52 98 96 95 96 95 97 98 25 24 10 28 56 93 100 97 5 78 10 95 14 3 100 100 100 100 100
100 100 100 100 100 100 100 100 100 100 100 100 100 100 100 100 100 98 100 100 95 7 82 82 61 100 100 16 6 72 100 58 85 100 60 8 16 1 4 5 6 61 100 100 100
100 100 100 76 100 100 100 66 98 99 100 100 100 100 100 100 100 100 100 66 20 96 100 100 100 100 28 5 5 5 20 80 100 100 100 100 6 5 17 5 2 5 13 8 32
16 8 35 100 20 100 100 100 51 58 51 32 94 99 94 100 87 17 33 18 67 98 100 100 80 17 92 84 15 99 19 5 71 100 100 100 100 100 76 100 100 100 100 99 100
16 5 17 95 100 52 100 100 100 100 100 90 52 100 100 93 20 27 20 5 28 100 97 92 13 5 77 82 83 86 35 100 100 100 100 100 100 100 100 100 100 100 100 100 100
97 61 95 83 27 98 100 100 82 99 64 34 11 64 67 79 5 5 13 80 100 80 32 1 4 5 17 94 41 100 79 80 100 100 98 100 100 100 100 100 100 100 100 100 100
100 100 93 100 99 100 39 71 37 35 38 5 59 100 66 5 0 20 100 92 45 5 4 38 0 1 77 49 82 100 100 100 100 95 99 97 77 36 100 100 100 100 100 100 100
100 100 100 100 92 96 43 5 5 7 82 100 100 81 68 10 5 12 5 0 0 71 40 0 0 5 14 61 100 100 100 100 100 100 71 94 20 98 100 100 100 100 100 100 100
100 100 100 100 100 100 100 100 100 100 100 100 100 24 5 5 3 0 1 79 94 14 0 5 31 81 67 41 100 100 100 100 96 100 100 98 44 100 97 100 100 100 100 100 100
100 100 100 100 100 100 100 100 100 100 100 100 10 9 5 0 1 0 5 26 3 0 2 1 62 63 99 46 92 100 100 100 100 100 100 77 80 100 100 100 100 100 100 100 100
100 100 100 100 100 100 100 100 99 95 31 4 5 5 0 0 0 35 2 0 0 0 2 8 26 95 19 89 98 96 100 100 100 100 100 100 100 100 100 100 100 100 100 100 100
100 100 100 100 100 100 100 98 60 14 7 5 5 5 0 0 2 0 0 0 0 0 0 0 8 40 93 83 100 100 100 100 100 100 100 100 81 100 100 93 100 100 100 100 100
100 100 97 100 100 100 100 26 13 15 5 4 0 1 4 2 4 0 0 4 8 76 18 55 0 3 100 83 100 100 100 100 100 100 100 100 100 100 100 100 100 100 100 100 100
100 100 100 100 82 29 8 26 76 31 5 5 5 2 5 0 0 0 0 0 6 98 99 100 100 88 12 60 100 100 100 100 100 100 100 100 100 100 100 100 100 100 100 100 100
100 100 100 77 99 14 5 78 5 5 5 5 35 10 5 0 0 0 0 3 29 30 96 85 95 4 84 67 78 100 100 100 100 100 100 100 100 100 100 100 100 100 100 10 18
100 100 99 100 69 27 34 56 22 5 5 5 13 5 5 0 0 0 0 14 14 22 32 4 24 97 81 6 94 100 100 100 100 100 100 100 100 100 100 100 100 100 69 13 3
100 100 100 94 100 100 58 6 5 5 5 5 5 5 2 4 8 4 4 9 5 31 98 82 64 78 97 5 98 100 100 100 100 100 100 100 100 100 100 100 100 100 65 5 0
100 100 100 80 100 78 98 32 5 5 5 3 4 8 70 84 100 100 95 100 45 60 24 100 82 27 100 91 82 100 100 100 100 100 100 100 100 100 100 100 100 100 6 4 5
100 100 90 97 90 63 6 5 5 5 5 5 5 5 16 100 98 100 100 79 84 57 50 83 100 56 100 100 99 100 100 100 100 100 100 100 100 100 100 100 86 68 77 5 1
100 100 94 42 6 21 5 5 5 5 4 6 5 20 100 100 100 70 100 99 54 82 36 100 75 97 100 100 93 100 100 100 100 100 100 100 100 100 100 90 83 6 27 18 24
97 82 23 94 40 5 5 2 5 5 5 41 77 82 80 99 100 100 100 98 100 38 92 100 96 95 71 100 100 100 100 100 100 100 100 100 100 100 100 69 14 11 20 51 46
98 96 14 10 5 5 3 5 2 5 34 30 100 100 100 100 100 100 100 100 90 100 96 100 100 84 100 100 100 100 100 100 100 100 100 64 96 9 84 54 98 90 80 97 86
88 94 31 9 73 70 51 5 5 5 6 5 27 91 98 100 100 100 95 88 98 100 100 100 100 100 100 99 100 100 100 100 100 100 100 100 97 99 100 100 100 100 100 100 100

GFSSW_prec_cloud_090.txt.gz
Cloud_Cover
33 5 5 5 16 5 5 5 5 5 2 2 5 5 10 31 5 1 4 5 5 5 5 75 100 100 100 100 100 97 52 25 2 0 0 0 0 0 39 95 100 100 100 100 100
100 70 94 5 5 10 16 6 5 5 5 5 18 54 13 95 14 5 16 5 45 30 82 100 100 100 100 100 100 100 100 87 48 49 1 0 0 0 0 1 25 94 59 100 100
100 100 100 100 65 6 59 5 25 92 80 95 35 76 78 67 18 5 79 46 95 100 97 31 100 100 70 100 96 45 4 3 86 100 100 99 2 3 4 4 4 2 32 73 100
100 100 100 100 100 100 60 100 96 91 100 100 100 96 97 100 99 59 73 99 99 100 90 100 99 21 37 4 27 97 9 7 5 27 68 50 100 100 81 55 5 5 0 3 88
100 100 39 98 100 100 100 89 100 100 100 100 100 81 78 100 80 88 28 61 83 100 100 100 100 80 3 1 1 6 5 6 8 31 18 5 52 100 100 84 71 5 2 4 5
100 99 100 100 100 100 100 100 100 100 100 63 24 84 61 94 76 100 100 100 90 99 100 100 31 32 3 9 94 84 35 96 100 100 21 5 3 1 90 100 98 40 3 4 2
100 100 96 100 100 100 100 100 100 100 98 36 32 68 97 60 94 100 100 99 96 89 100 100 100 5 5 12 15 100 100 100 100 67 5 100 6 0 7 100 100 15 5 4 5
100 100 100 100 100 96 100 100 100 100 88 54 10 28 64 100 100 100 100 100 100 98 92 38 39 5 5 1 36 39 42 79 100 6 5 98 0 5 94 100 100 5 5 5 41
100 100 100 100 100 100 84 56 79 15 5 5 9 5 5 94 92 100 97 100 57 7 37 91 42 5 10 49 100 99 1 5 2 53 93 100 0 2 100 96 3 99 100 100 54
100 100 100 100 100 100 100 100 40 76 88 86 5 11 5 10 96 100 100 98 27 100 100 72 33 1 24 48 4 13 5 3 0 50 100 30 9 5 82 69 9 95 100 100 91
100 100 100 100 100 100 100 100 100 100 10 12 26 21 19 5 6 91 92 100 100 8 5 19 4 0 0 0 2 5 5 5 5 35 100 5 12 95 100 88 100 100 100 100 100
100 100 100 100 100 100 100 100 65 100 99 88 28 95 98 100 97 55 84 96 87 99 5 1 0 0 0 1 6 61 5 0 1 10 100 100 50 100 49 100 100 100 100 100 100
100 100 100 100 100 100 100 100 100 100 100 100 90 100 100 96 98 48 6 5 5 1 4 4 0 3 18 5 13 4 4 4 3 100 100 100 93 100 100 100 99 98 100 100 97
100 100 100 100 100 100 100 100 100 100 100 100 100 100 100 100 22 5 5 4 0 0 0 0 0 2 53 27 60 5 67 80 77 95 95 100 7 98 100 100 100 85 92 97 74
100 100 100 100 100 100 100 100 100 100 100 13 94 100 100 100 100 69 5 0 1 0 0 0 0 5 5 5 100 2 33 26 36 91 14 100 29 96 100 100 100 88 85 100 99
100 100 100 100 100 100 100 100 100 97 96 100 65 87 100 65 4 3 2 0 0 0 0 0 5 4 4 14 24 57 20 100 82 77 5 100 99 97 100 100 100 15 100 100 100
100 100 98 100 100 100 100 100 100 78 89 39 6 0 5 5 2 11 5 21 4 46 30 59 18 0 0 3 4 90 32 91 85 100 83 100 100 100 100 100 99 100 100 100 100
100 100 100 100 100 100 99 100 100 6 5 23 3 3 5 5 5 5 5 5 52 2 5 7 4 95 98 40 74 76 62 37 100 100 100 100 100 100 100 100 100 100 100 100 100
100 100 100 100 100 100 100 100 100 86 98 5 5 5 6 5 5 9 12 5 4 4 4 11 58 6 3 100 68 5 12 100 100 100 100 100 100 100 100 100 100 100 100 100 100
100 100 100 100 100 100 100 100 98 100 100 70 17 8 11 8 5 5 4 0 67 71 28 4 45 28 76 95 96 7 42 67 100 100 100 100 100 100 100 100 100 100 100 100 100
100 100 100 100 100 100 100 100 99 95 92 23 22 24 5 5 5 5 5 54 42 58 5 5 60 0 32 51 88 96 10 65 100 99 100 100 100 100 100 100 100 100 100 100 100
100 100 100 100 100 100 100 100 100 97 56 25 31 5 5 54 76 64 96 100 76 100 78 37 9 16 0 47 100 100 74 86 100 100 100 100 100 100 100 100 100 100 100 100 100
100 100 100 100 100 100 100 100 100 54 5 5 5 5 5 12 58 79 72 91 81 66 41 37 11 65 2 1 100 100 11 100 100 100 100 100 100 100 100 100 99 100 100 100 100
100 100 100 100 100 100 100 100 58 5 5 4 3 4 42 98 81 77 81 52 83 91 2 46 15 6 81 64 100 100 99 100 100 100 100 100 100 100 100 100 100 100 100 100 100
100 100 100 100 100 100 96 5 5 5 12 5 22 76 50 69 91 74 92 90 64 19 24 81 88 80 87 87 89 100 100 100 100 100 100 100 100 100 100 100 100 100 100 100 100
100 100 100 100 100 57 12 41 5 26 4 3 75 98 95 89 100 100 90 37 77 41 67 100 67 54 71 65 100 89 100 100 100 100 100 100 100 100 100 100 100 100 100 100 100
100 100 100 100 99 47 53 36 5 5 5 5 7 24 40 70 45 52 16 5 6 36 56 87 93 97 19 69 100 100 100 100 100 100 100 100 100 96 100 100 100 100 100 100 100

GFSSW_prec_cloud_093.txt.gz
Cloud_Cover
100 94 38 100 100 100 98 14 6 3 0 1 5 5 5 5 0 0 47 90 75 54 21 4 0 5 6 97 99 100 100 100 100 100 100 100 100 38 0 5 0 7 53 1 0
40 6 68 100 100 100 100 100 48 5 5 5 5 5 5 5 36 5 5 5 8 5 51 14 6 30 20 100 100 100 99 68 100 100 100 100 100 96 37 23 4 5 19 41 0
29 5 5 82 100 100 100 100 100 100 97 99 55 5 5 5 16 5 5 5 7 12 7 13 19 5 97 100 100 100 99 37 4 5 4 7 7 10 5 100 95 86 91 27 5
100 55 80 100 99 100 100 100 100 100 100 100 100 100 100 39 96 10 95 5 5 45 100 100 100 97 23 11 21 30 100 70 28 0 0 0 0 0 14 100 100 100 90 68 5
100 100 100 100 100 100 100 100 99 67 100 100 100 100 100 100 97 84 60 20 19 8 90 100 100 100 94 55 99 100 100 46 4 3 0 1 7 2 5 79 63 72 5 56 8
100 100 100 100 100 100 100 100 100 98 100 44 23 98 64 94 100 89 79 36 9 37 65 100 100 100 100 100 100 100 100 30 5 0 3 38 100 26 34 5 91 29 5 45 49
100 100 100 100 100 100 100 100 100 100 100 77 51 95 85 83 42 36 22 37 43 76 31 40 97 98 100 98 22 9 10 3 5 3 0 4 0 66 100 91 9 4 5 5 21
100 100 100 100 100 100 100 100 100 100 100 100 100 100 99 27 5 6 5 5 51 60 62 19 5 52 11 62 63 90 92 60 10 0 0 11 0 99 100 100 100 30 5 1 41
100 100 100 100 100 100 100 100 98 100 100 100 74 90 53 52 14 10 5 5 5 5 5 5 5 22 5 5 49 12 95 4 5 5 3 96 1 33 13 3 0 0 0 0 0
82 100 100 100 100 100 95 82 100 100 100 93 100 68 38 74 100 100 100 100 90 5 5 69 24 74 33 14 66 68 11 5 1 3 1 0 0 1 0 0 0 0 3 10 53
100 100 100 100 100 100 100 100 100 100 100 100 100 83 13 6 100 76 5 5 5 5 89 67 99 100 39 5 5 5 0 0 0 0 0 0 0 0 0 0 0 5 21 100 14
100 100 100 100 100 100 100 100 100 90 100 100 99 80 14 6 14 15 9 68 89 100 100 100 100 100 52 19 5 5 0 0 0 0 0 0 0 0 2 0 3 100 100 84 6
100 100 100 100 100 100 100 100 100 100 100 100 100 94 85 70 75 98 100 100 100 100 100 100 100 95 100 97 8 0 0 1 0 1 0 0 0 0 0 29 87 100 72 89 100
100 100 100 100 100 100 100 100 100 100 100 100 100 100 100 100 100 100 100 100 98 99 100 99 100 100 92 66 86 4 0 0 3 89 14 4 1 0 1 99 100 100 37 86 9
100 100 100 100 98 100 100 100 100 100 100 100 100 100 100 98 64 98 100 100 100 100 97 92 32 0 0 0 5 3 100 6 5 54 5 0 3 0 5 84 100 67 63 100 7
100 100 100 100 100 100 98 100 100 100 100 100 100 100 100 100 100 42 56 79 18 3 1 0 0 2 5 0 0 0 5 26 7 5 2 0 3 0 87 100 96 95 100 100 100
100 100 100 100 100 100 100 97 100 100 78 20 96 47 30 11 85 60 8 5 1 12 0 1 1 5 4 4 0 5 12 34 13 5 2 1 16 62 16 100 98 100 100 100 100
100 100 100 100 100 100 100 100 100 100 86 98 100 11 33 69 6 5 5 5 5 0 0 0 0 9 68 58 85 52 98 32 25 0 18 72 61 100 100 100 100 48 100 100 100
100 100 99 100 100 100 100 100 100 100 100 100 100 72 100 45 80 9 46 98 14 5 4 4 0 0 2 59 80 39 4 21 100 12 5 24 97 100 99 100 100 100 100 100 100
100 100 100 100 100 100 100 94 100 100 100 100 100 100 100 100 93 5 5 22 4 5 5 30 6 0 1 44 24 76 40 4 34 100 96 100 100 70 100 100 100 100 100 100 100
100 100 100 100 100 100 100 72 93 100 100 100 100 100 100 100 87 5 5 2 0 0 2 5 17 2 0 0 3 98 100 98 84 90 40 100 100 100 100 100 100 100 100 100 100
100 100 100 100 100 100 100 100 91 100 100 100 100 100 100 81 5 5 2 5 5 0 1 27 77 5 0 0 0 6 100 100 100 33 97 100 100 100 100 100 100 100 100 100 100
100 100 100 100 100 100 100 100 100 100 100 100 100 99 100 38 5 0 34 57 6 9 5 3 4 2 0 0 3 6 100 100 100 100 100 100 100 100 100 100 100 100 83 100 100
100 100 100 100 100 100 100 100 100 100 68 39 12 6 22 5 76 78 26 61 4 21 5 2 4 0 0 21 98 38 59 100 100 100 100 100 100 100 100 100 100 100 68 80 100
100 100 100 100 100 100 100 99 48 99 100 34 5 81 14 4 4 0 4 7 60 5 5 6 76 5 5 14 93 10 97 100 96 100 100 100 100 100 100 100 100 100 100 96 100
100 100 100 100 69 99 98 100 39 5 12 5 5 5 5 16 16 15 5 0 4 1 5 73 84 31 5 0 12 98 100 100 100 100 100 100 100 100 100 100 100 100 100 91 100
100 100 100 100 100 100 100 98 96 46 5 4 3 0 0 0 0 0 0 0 0 0 0 59 97 90 7 19 58 100 100 100 100 100 100 100 100 100 100 100 100 100 100 99 100

GFSSW_prec_cloud_096.txt.gz
Cloud_Cover
61 5 5 5 8 90 99 5 13 25 100 43 100 74 59 5 5 5 27 5 4 5 3 1 0 0 0 5 1 4 4 11 73 70 70 89 100 100 100 100 100 32 5 4 1
35 10 5 5 5 5 45 5 5 11 89 100 100 32 72 59 46 14 59 5 7 11 5 5 5 5 3 12 5 10 5 99 100 68 68 8 6 71 52 85 100 100 80 21 5
47 10 5 5 5 98 74 80 58 82 95 98 100 100 5 79 100 100 99 100 99 87 5 5 5 53 5 5 44 100 99 100 93 100 19 44 9 5 0 0 0 4 1 80 89
40 89 86 100 93 26 98 100 55 52 99 98 100 100 100 100 100 99 100 100 100 67 31 12 5 5 7 5 5 5 90 100 100 69 100 100 100 10 5 3 0 0 0 5 41
67 32 96 80 100 100 100 67 100 100 100 100 100 100 100 100 100 100 100 100 72 89 78 30 55 5 7 9 5 6 50 84 100 100 100 100 100 74 5 4 1 0 0 0 33
100 99 19 72 100 94 100 100 100 76 100 82 87 100 100 100 100 100 98 54 9 13 6 11 7 32 54 46 18 50 42 33 13 84 90 16 33 0 57 40 0 0 4 5 14
66 92 46 63 94 100 100 100 100 100 99 13 100 100 100 100 100 99 100 100 99 100 100 36 60 76 88 56 5 9 35 88 20 5 5 0 4 20 77 3 0 0 1 91 74
100 99 62 16 50 100 100 100 100 100 97 22 74 100 98 99 100 100 100 100 100 73 95 6 7 5 18 38 17 21 5 19 5 11 9 3 6 5 58 3 0 0 1 93 100
100 89 41 99 50 33 100 100 99 100 42 47 42 97 100 100 100 100 100 84 100 100 100 99 41 82 100 90 7 5 4 23 66 98 82 2 4 3 0 0 0 0 0 2 61
100 96 100 100 76 83 100 88 97 72 62 87 36 98 64 91 60 85 51 51 69 46 39 19 12 30 88 10 5 5 5 6 99 100 80 7 0 4 26 0 0 0 0 0 0
100 73 16 94 99 30 40 67 87 10 94 77 58 100 100 100 89 64 40 5 20 28 19 6 5 84 7 5 5 52 50 100 100 100 83 5 4 5 1 0 0 0 0 0 0
100 92 98 96 100 98 83 100 100 92 17 9 59 100 90 91 88 100 27 82 14 14 57 35 16 30 11 92 99 100 100 100 100 100 100 87 2 0 0 0 0 0 0 0 0
100 91 100 100 100 66 63 36 100 89 100 100 74 87 100 86 92 92 40 5 5 88 46 6 95 95 99 100 100 100 100 100 98 92 40 2 0 0 0 0 0 0 0 0 2
100 100 100 100 34 43 76 99 100 100 100 100 100 94 100 99 98 85 96 96 83 83 90 84 100 84 34 86 100 100 100 94 24 2 0 0 1 0 0 0 0 0 0 0 74
100 100 100 70 100 74 100 100 100 68 100 98 100 79 6 62 100 100 100 69 100 100 100 100 100 96 98 98 10 78 6 43 5 82 5 1 28 0 0 0 0 0 1 84 60
99 100 100 100 100 100 95 100 98 99 100 15 96 96 93 100 100 100 78 95 100 100 100 100 100 98 98 28 3 5 3 5 5 56 63 0 3 0 0 0 4 2 75 100 100
100 99 100 100 100 100 100 100 100 100 69 7 16 100 100 82 97 100 77 99 94 38 45 6 95 91 5 0 5 5 32 5 6 3 0 0 1 0 0 16 38 57 100 100 100
100 100 100 100 100 100 100 100 100 100 60 74 100 100 96 46 100 98 29 12 32 37 14 5 5 5 14 5 5 37 26 88 90 5 4 0 2 0 2 79 100 100 100 100 100
100 100 100 100 100 100 100 100 100 100 100 100 96 100 67 49 100 100 98 20 12 15 5 5 5 4 5 5 78 6 67 89 100 51 81 4 1 1 66 88 100 100 100 100 100
100 100 100 100 100 100 100 100 100 100 100 100 100 82 75 32 50 99 100 64 34 52 79 17 0 0 1 0 21 94 91 50 90 100 95 2 32 96 100 100 100 100 100 100 100
100 100 100 100 100 100 100 100 100 100 100 97 99 69 85 91 84 26 53 70 73 79 17 3 2 0 1 0 0 62 67 100 100 88 92 70 58 100 100 100 100 100 100 100 100
100 100 100 100 100 100 100 100 100 100 100 100 92 100 99 100 100 100 86 5 2 0 0 0 0 5 0 0 0 0 3 97 100 100 30 72 100 100 100 100 100 100 100 100 100
100 100 100 100 100 100 100 100 100 100 100 96 52 87 100 100 100 95 77 25 5 3 1 2 3 4 0 7 94 74 100 72 88 100 100 100 100 100 100 100 100 100 100 100 100
100 100 100 100 100 100 100 100 100 100 100 100 100 100 100 59 5 7 5 18 54 5 5 5 5 5 18 3 4 100 100 99 94 88 87 99 100 100 100 100 100 100 100 100 100
100 100 100 100 100 100 100 100 100 100 100 100 100 100 72 5 5 17 6 0 2 5 5 5 12 5 5 5 5 26 60 100 36 38 100 100 100 100 100 100 100 100 100 100 100
100 100 100 100 100 100 100 100 100 100 100 100 71 11 5 5 14 5 0 0 0 0 5 68 5 15 4 0 0 80 5 91 100 85 93 100 100 100 100 100 100 100 100 100 100
100 100 100 100 100 100 100 100 100 100 100 70 6 5 8 45 3 0 0 0 0 0 0 22 5 5 4 1 5 12 2 77 95 100 100 100 100 100 100 100 100 100 100 100 100

GFSSW_prec_cloud_099.txt.gz
Cloud_Cover
100 100 100 100 100 100 78 5 5 2 5 3 5 18 5 32 82 98 80 79 54 89 76 5 4 2 5 5 4 3 2 5 6 5 50 45 3 5 5 32 4 2 10 68 87
100 100 100 100 100 100 100 82 56 22 5 6 4 28 7 5 97 23 99 74 6 71 85 45 33 23 39 13 5 5 5 5 5 5 42 100 98 100 82 9 9 10 13 0 0
100 68 100 24 18 16 34 32 6 5 5 8 18 7 5 5 98 92 46 100 100 24 66 95 88 97 100 100 21 5 6 24 6 12 5 5 40 100 99 100 100 97 6 3 4
100 100 100 94 55 65 36 5 13 12 5 5 60 100 47 100 100 58 100 100 100 95 79 100 100 100 100 100 99 6 43 6 5 5 5 5 5 91 61 98 100 100 98 24 0
81 100 100 28 88 41 5 5 5 7 44 17 97 100 49 96 98 5 100 100 100 100 100 73 100 100 100 100 31 34 28 23 97 10 5 5 5 3 5 44 40 5 2 4 89
100 100 100 100 22 5 61 48 6 5 26 11 21 100 100 99 83 98 93 81 100 100 100 100 100 74 36 95 100 100 100 61 5 5 5 5 5 5 96 5 8 5 1 2 12
100 100 100 94 10 5 8 5 5 72 100 68 12 100 100 98 6 99 100 99 38 49 99 100 100 100 6 100 100 100 82 9 26 5 5 20 87 31 20 23 5 5 5 3 7
100 100 100 67 32 5 14 5 6 5 59 92 31 95 100 97 100 95 92 99 80 67 100 98 88 76 97 93 100 100 30 74 19 5 5 5 81 5 5 5 33 100 96 14 4
100 100 100 36 100 84 5 5 5 5 5 8 55 70 74 100 100 84 40 87 80 21 100 21 5 5 52 83 31 40 5 24 47 5 16 2 78 5 26 5 76 100 100 42 5
100 100 100 51 100 100 32 7 5 10 5 33 59 36 44 13 50 10 5 54 91 65 20 38 5 34 94 15 5 5 13 43 8 45 0 0 31 5 5 48 87 100 100 6 5
100 100 100 100 100 100 51 33 29 40 5 5 5 5 5 51 100 45 5 5 100 100 82 68 58 98 7 5 32 5 14 5 5 4 0 1 5 5 100 100 100 100 17 5 0
100 100 100 100 100 100 94 42 52 64 8 5 5 16 92 97 57 31 80 13 5 12 65 77 100 100 99 11 5 27 5 10 10 79 10 4 2 100 98 100 100 100 83 0 0
100 100 60 100 100 99 99 99 73 100 23 5 5 31 96 21 100 100 73 27 65 62 22 90 96 30 5 5 5 49 11 99 67 95 5 27 5 5 100 100 73 39 0 0 0
99 100 100 100 100 12 21 97 100 100 69 1 4 5 9 10 5 20 100 100 99 78 26 5 5 5 5 5 27 17 99 100 97 77 22 75 3 5 88 5 4 0 0 0 0
100 100 100 100 100 100 100 100 100 72 37 0 0 4 1 5 4 5 24 12 100 100 100 100 99 100 100 100 99 44 100 100 100 100 98 87 0 0 100 2 2 5 0 0 0
100 100 100 100 100 100 100 100 100 98 34 4 30 94 4 6 35 14 5 19 12 67 99 100 100 100 100 100 100 100 100 100 100 100 55 37 3 0 2 0 0 1 4 5 0
100 100 100 100 98 79 100 100 100 85 2 0 42 82 100 98 10 5 5 27 95 100 100 100 100 100 100 100 100 100 100 62 46 8 0 0 0 0 6 28 59 85 20 72 5
100 100 100 100 100 100 96 100 87 8 100 30 97 100 100 98 65 96 100 98 100 100 100 100 100 100 100 100 100 100 100 84 43 5 0 0 1 0 0 0 29 17 13 72 55
100 100 100 100 100 100 100 83 98 100 100 100 100 100 100 71 100 100 100 100 100 100 100 100 100 100 100 100 99 44 15 7 58 0 4 0 0 0 0 4 5 16 38 100 100
100 100 100 100 100 100 100 100 100 100 100 100 100 100 100 100 92 100 100 93 63 74 93 74 91 91 96 98 89 40 5 22 74 88 78 1 0 0 1 30 52 100 100 100 100
100 100 100 100 100 100 100 100 100 100 100 100 100 100 100 100 100 100 99 41 5 7 80 95 24 6 5 57 10 2 0 1 8 61 97 38 9 68 95 98 100 100 100 100 100
100 100 100 100 100 100 100 100 100 100 100 100 100 100 100 100 100 100 98 99 100 100 100 100 24 8 5 4 2 0 0 8 67 6 100 100 21 100 100 100 100 100 100 100 100
100 100 100 100 100 100 100 100 100 100 100 100 100 100 100 100 100 100 89 49 63 99 91 51 3 2 0 3 0 0 71 66 94 84 63 100 97 97 100 100 100 100 100 100 100
100 100 100 100 100 100 100 100 100 100 100 100 100 100 100 100 100 90 97 100 100 100 3 0 2 0 0 0 2 5 0 2 95 94 12 21 2 91 100 100 100 100 100 100 100
100 100 100 100 100 100 100 100 100 100 100 100 100 100 96 26 22 99 100 100 72 7 5 4 5 5 0 3 5 5 0 0 16 4 38 32 4 100 100 100 100 100 100 100 100
100 100 100 100 100 100 100 100 100 100 100 100 100 85 81 100 93 9 5 9 5 2 2 5 5 5 68 4 0 0 0 0 0 5 59 77 55 100 100 100 100 100 100 100 100
100 100 100 100 100 100 100 100 100 100 100 100 100 98 40 5 5 5 4 2 0 0 5 39 14 5 4 0 0 0 27 49 0 41 100 100 100 100 100 100 100 100 100 100 100

GFSSW_prec_cloud_102.txt.gz
Cloud_Cover
100 100 99 100 100 100 100 100 100 100 100 86 100 99 94 100 92 100 22 37 8 63 90 63 98 45 54 91 5 5 5 13 86 10 29 23 5 5 1 6 16 33 84 96 8
100 100 100 100 100 100 100 100 100 100 100 100 72 100 95 100 100 65 46 48 58 42 93 94 81 100 28 98 18 5 7 49 73 94 100 7 5 5 5 4 52 76 5 1 5
100 100 100 100 100 100 100 100 99 96 43 5 6 78 14 40 91 67 9 27 100 100 44 65 98 91 91 52 72 82 100 100 100 100 98 6 17 5 4 4 5 4 0 0 5
100 100 100 100 100 100 93 5 59 91 3 0 43 50 6 11 64 30 24 90 59 94 56 10 88 100 100 89 84 91 100 100 100 100 97 49 8 18 5 5 5 5 5 5 12
94 94 100 78 97 70 5 5 3 0 5 5 2 5 4 79 100 1 12 100 99 69 49 54 92 26 94 100 100 100 100 100 100 100 100 100 100 100 5 5 5 5 5 3 1
100 100 100 100 100 100 99 26 5 3 2 5 5 5 4 41 10 5 26 22 71 100 100 98 29 49 96 100 100 100 80 100 100 87 100 100 94 32 100 34 14 5 5 5 5
100 100 100 100 100 100 98 42 38 5 5 1 2 22 69 6 4 5 55 84 97 39 59 62 66 99 74 100 100 100 74 70 100 100 58 14 57 100 100 89 5 21 65 5 5
100 100 100 100 100 100 100 63 99 14 5 5 33 66 52 8 5 5 12 97 8 62 100 100 100 99 78 91 100 100 51 96 63 26 14 47 96 100 51 97 100 75 10 6 5
100 100 100 100 100 100 100 100 100 32 5 7 82 58 22 19 13 5 15 5 11 86 77 34 76 35 37 100 86 54 27 5 84 87 19 4 5 79 84 63 25 67 69 5 5
100 100 100 100 100 100 100 99 73 8 6 30 46 13 1 5 12 5 2 2 3 5 80 53 62 71 100 99 51 64 11 58 87 73 5 5 18 16 81 67 61 37 5 5 5
100 100 100 100 100 100 85 100 100 96 38 17 5 5 5 5 5 5 5 3 0 5 72 8 5 35 14 53 99 100 100 100 100 100 44 65 100 18 12 10 6 5 5 4 0
100 100 100 100 100 77 100 100 100 100 36 45 72 5 5 10 5 5 4 8 37 41 6 35 93 100 30 5 5 28 78 94 93 100 82 88 90 20 32 60 5 3 4 0 3
100 100 100 100 100 98 98 100 92 100 98 3 0 3 92 7 4 5 1 4 18 10 30 14 76 96 63 84 73 25 5 7 15 5 3 3 5 5 34 82 99 50 0 0 0
100 100 100 100 100 100 100 97 45 100 100 0 0 0 0 5 0 69 5 16 5 6 5 3 60 17 9 17 51 11 44 78 7 5 5 73 1 2 14 100 100 30 4 1 0
100 100 100 100 100 100 100 93 100 100 100 29 0 0 0 0 0 0 23 2 0 5 5 7 5 34 98 100 84 9 83 85 46 39 49 84 100 5 16 100 100 33 22 51 45
100 100 100 100 100 100 100 88 100 100 62 97 5 0 0 0 0 0 1 3 3 5 12 100 100 100 94 100 98 100 99 100 100 100 32 56 100 8 100 100 100 100 100 61 0
100 100 100 100 100 100 100 100 100 74 88 100 60 95 34 4 6 40 93 69 68 98 100 100 100 100 100 100 100 100 100 100 100 100 88 100 100 100 100 100 100 47 0 0 0
100 100 100 100 100 100 100 100 95 15 100 100 45 100 87 85 89 100 100 100 100 100 100 100 100 100 100 100 100 100 100 100 100 100 99 96 32 12 14 26 5 0 1 4 5
100 100 100 100 100 100 100 100 100 100 100 100 100 100 97 100 100 100 90 100 100 100 100 100 100 100 100 100 100 100 100 100 97 92 100 91 73 29 6 2 29 73 62 47 30
100 100 100 100 100 99 100 56 100 100 100 100 99 98 100 100 100 100 100 100 100 100 100 100 100 100 100 100 56 35 47 80 54 12 4 0 0 1 59 100 100 100 100 98 100
100 100 100 100 100 100 100 100 100 100 100 100 100 100 100 100 100 100 100 100 100 100 100 100 100 100 100 100 99 56 22 38 43 33 34 5 11 97 100 100 100 100 100 100 100
100 100 100 100 100 100 100 100 100 100 100 100 100 100 100 100 100 100 100 100 100 100 100 100 100 100 100 100 100 100 100 69 5 16 79 76 14 61 45 100 100 100 100 100 100
100 100 100 100 100 100 100 100 100 100 100 100 100 100 100 100 100 100 100 100 100 100 100 100 100 78 37 36 85 6 2 2 5 79 6 68 8 54 100 100 100 100 100 100 100
100 100 100 100 100 100 100 100 100 100 100 100 100 100 100 100 100 100 100 100 100 100 100 100 89 5 8 27 8 30 1 0 4 61 3 4 2 2 70 100 97 100 100 100 100
100 100 100 100 100 100 100 100 100 100 100 100 100 100 100 100 100 100 100 100 100 31 5 5 5 5 4 2 2 5 5 2 1 0 20 0 0 0 93 100 100 100 100 100 100
100 100 100 100 100 100 100 100 100 100 100 100 100 100 100 100 100 100 100 90 5 5 5 5 2 5 4 1 5 2 0 0 0 0 5 1 0 5 100 100 100 100 100 100 100
100 100 100 100 100 100 100 100 100 100 100 100 100 100 100 100 100 100 99 23 6 5 5 13 5 23 16 0 0 0 8 25 18 54 94 5 2 92 96 100 100 100 100 100 100

GFSSW_prec_cloud_108.txt.gz
Cloud_Cover
100 100 100 100 100 100 100 100 97 92 100 36 61 66 44 50 11 52 100 100 77 100 100 100 100 100 100 100 99 100 100 100 100 100 100 100 100 100 99 14 5 5 5 6 94
100 100 100 100 100 76 100 100 100 54 100 100 100 98 100 99 100 100 100 100 100 100 100 100 100 100 100 100 100 100 100 100 100 100 99 100 100 100 100 100 92 7 5 83 100
100 100 100 100 100 100 100 100 100 100 100 100 100 100 100 100 100 100 100 77 13 14 60 76 84 99 98 100 100 100 100 100 100 100 98 100 100 100 100 100 100 100 100 100 100
100 100 100 100 100 100 100 100 100 100 100 100 100 100 100 100 100 100 95 26 5 6 10 38 3 5 5 58 74 100 100 65 52 100 100 100 100 100 100 100 100 100 100 100 100
100 100 100 100 100 100 100 100 98 100 100 99 53 35 100 83 41 90 100 44 5 5 5 0 2 4 6 14 34 73 55 98 77 86 100 89 99 100 100 100 100 100 100 100 100
100 100 100 100 100 100 100 100 99 100 100 98 100 94 53 61 5 4 3 2 0 7 4 0 1 3 5 10 24 20 53 40 26 12 65 90 36 37 100 100 100 100 100 100 100
100 100 100 100 100 100 100 100 100 100 100 100 100 100 100 100 94 51 5 5 0 0 0 0 0 0 0 5 5 10 8 6 63 95 50 6 30 88 100 100 100 100 100 100 100
100 100 100 100 100 100 100 100 100 100 100 100 100 100 100 100 50 21 5 0 0 0 0 0 1 3 4 4 3 5 5 5 25 97 71 58 97 65 100 100 100 100 100 100 100
100 100 100 100 99 100 100 100 100 100 92 100 100 71 78 100 43 5 2 0 0 0 0 0 0 0 0 0 0 0 1 3 4 35 100 78 6 5 26 71 95 100 100 96 92
100 100 100 100 100 100 100 100 100 100 100 96 100 100 3 5 5 5 5 3 0 0 0 0 0 0 0 0 0 4 0 1 3 3 6 14 100 98 98 99 100 100 98 56 88
100 100 100 100 100 100 100 100 100 100 87 6 42 11 41 26 5 5 21 5 5 0 0 0 0 0 0 0 0 0 0 4 5 1 0 5 5 13 100 59 95 63 48 84 5
5 51 100 81 100 100 100 100 39 77 28 39 78 4 16 5 9 2 4 3 5 4 5 27 3 0 0 0 0 0 0 0 5 5 0 4 5 5 34 5 14 15 5 5 23
11 61 100 99 100 100 100 100 24 84 98 15 1 0 0 1 0 0 4 7 14 31 27 72 64 9 38 0 0 0 0 0 0 0 0 0 27 88 54 10 6 7 5 5 5
35 43 100 100 100 100 100 100 100 100 100 45 0 0 0 0 2 0 2 35 91 80 100 98 46 46 68 92 5 4 0 0 0 4 0 0 5 5 28 16 5 5 5 1 1
60 100 100 100 99 100 98 100 100 100 100 45 2 0 0 0 0 0 0 3 5 60 99 77 100 100 91 52 100 53 6 5 5 1 0 0 0 5 3 6 5 3 3 0 0
73 100 100 100 100 91 99 100 100 100 89 2 2 0 1 3 6 0 8 38 79 100 88 100 100 100 98 46 100 100 100 100 100 100 38 2 2 0 0 0 5 5 79 32 5
100 100 100 65 100 100 100 100 100 100 27 26 5 23 6 3 12 83 91 57 37 98 98 100 100 100 100 100 100 100 100 100 99 85 18 2 5 10 0 0 9 65 97 96 84
100 100 100 100 100 43 100 100 98 25 94 11 35 98 80 36 5 62 79 99 100 100 100 100 100 100 100 100 100 100 100 100 100 100 100 30 24 72 6 97 28 43 4 5 91
100 100 100 100 100 100 100 100 24 68 22 70 100 99 88 90 98 8 99 100 100 100 100 100 100 100 100 100 100 91 100 100 100 100 100 100 100 100 72 100 100 79 9 23 6
100 100 100 100 100 100 100 100 100 100 49 6 30 29 88 54 100 100 100 100 100 100 100 100 100 100 100 100 100 100 100 100 100 100 100 100 100 100 97 100 98 92 62 52 28
100 100 100 100 100 100 100 100 100 88 96 14 93 68 51 88 100 94 91 100 100 100 100 100 100 100 100 100 100 100 100 100 100 100 100 100 100 100 100 90 68 11 5 7 5
100 100 100 100 100 100 97 82 100 100 100 77 100 100 100 100 100 100 100 100 100 100 100 100 100 100 100 100 100 100 100 100 100 100 100 100 100 100 100 100 43 5 5 5 15
100 100 100 100 100 100 100 100 100 100 99 100 100 100 100 100 100 100 100 100 100 100 100 100 100 100 100 100 100 100 100 100 100 100 100 100 100 95 23 5 12 7 5 22 55
100 100 100 100 100 100 100 100 100 100 100 100 100 100 100 100 100 100 100 100 100 100 100 100 100 100 100 100 100 100 100 100 99 47 98 99 49 6 13 4 14 62 14 52 72
100 100 100 100 100 100 100 100 100 100 100 100 100 100 100 100 100 100 100 100 100 100 100 100 100 100 100 100 100 100 100 100 100 100 51 6 0 5 0 0 26 64 14 52 66
100 96 97 99 99 100 100 100 100 100 100 100 100 100 100 100 100 100 100 100 100 100 100 100 100 100 100 100 100 100 99 16 5 5 0 0 0 0 4 9 98 85 60 66 95
100 90 100 100 98 100 100 100 100 100 100 100 80 100 100 100 100 100 100 100 100 100 100 100 100 100 100 100 68 7 56 5 3 24 62 70 17 100 92 85 100 100 86 98 100

GFSSW_prec_cloud_111.txt.gz
Cloud_Cover
97 100 100 97 98 100 100 100 100 100 100 100 92 53 100 98 5 45 89 17 15 28 5 60 100 100 100 100 100 100 100 100 100 100 100 100 100 100 100 98 65 100 100 100 100
100 100 100 100 100 100 100 100 100 100 99 100 100 99 100 100 98 99 100 100 100 100 80 78 100 100 100 100 100 98 100 100 100 100 100 100 100 100 100 100 10 43 100 100 100
100 100 97 100 100 100 100 100 100 100 100 92 100 100 100 100 100 100 100 100 100 100 100 100 72 88 58 63 93 100 100 98 26 65 100 100 100 100 100 96 85 59 80 100 100
100 100 100 100 100 91 100 100 100 100 100 100 100 100 100 100 100 100 100 98 95 100 99 99 99 84 10 5 6 5 5 5 5 5 98 36 89 97 100 92 88 100 52 70 100
100 100 100 100 100 100 100 100 100 100 100 100 100 100 100 100 100 100 100 12 13 11 26 5 5 4 5 2 2 5 0 0 5 5 5 25 66 80 53 99 100 100 100 100 100
100 100 100 100 100 100 100 100 100 100 100 100 100 100 100 100 99 100 100 100 100 100 100 100 72 4 5 0 4 5 2 1 5 74 37 5 44 64 100 100 47 100 100 100 100
100 100 100 100 100 100 100 100 100 100 100 100 100 100 100 100 100 98 100 75 26 72 72 82 6 5 5 4 5 5 0 0 5 5 8 5 79 100 98 75 100 100 100 97 100
100 100 100 100 100 100 100 100 100 100 100 100 100 100 100 100 100 100 100 100 100 64 2 1 27 1 5 4 0 1 4 4 2 1 5 5 18 12 5 79 100 100 100 91 98
100 100 100 100 100 100 100 100 100 100 100 100 100 100 100 63 76 96 100 99 14 6 0 4 2 0 0 1 1 3 4 0 0 1 4 5 5 19 7 50 96 100 100 99 92
100 100 100 100 100 100 100 100 100 100 100 100 100 57 93 86 70 99 76 57 69 12 7 3 0 2 0 0 5 66 4 3 2 1 4 4 0 5 5 5 8 100 60 11 11
100 100 100 100 100 100 100 100 100 100 96 75 17 100 100 54 5 5 5 8 57 94 93 3 2 0 0 0 0 4 6 9 5 5 2 0 0 0 0 5 5 5 96 100 60
99 100 87 28 100 100 94 100 100 85 12 5 4 0 3 0 6 18 65 16 5 5 5 31 8 0 0 1 5 0 2 7 5 2 3 0 0 0 0 0 5 5 5 6 46
100 100 100 96 100 100 100 100 57 100 78 3 0 3 1 3 0 4 17 7 5 5 11 22 6 1 2 1 4 5 5 4 4 5 89 4 0 0 0 0 0 5 86 6 5
86 52 100 100 100 100 100 100 100 98 100 2 4 1 3 0 16 0 1 4 5 6 29 100 69 100 98 90 33 97 33 88 91 80 48 35 18 36 4 0 0 0 5 11 89
100 100 100 100 100 100 100 100 100 100 100 2 2 5 5 2 0 0 0 3 5 5 96 8 56 9 95 7 97 100 100 100 100 100 98 5 64 0 22 96 4 78 83 38 3
96 100 100 100 100 100 100 100 97 100 89 84 5 5 5 5 5 1 0 0 48 99 100 81 100 100 100 98 100 100 100 100 100 100 100 21 95 32 100 60 90 70 55 46 0
100 100 100 100 100 100 100 87 100 99 9 45 18 99 71 8 4 0 4 84 54 89 86 98 99 100 97 86 99 100 100 100 100 100 100 100 100 94 100 97 98 36 95 28 50
100 100 100 100 100 100 96 100 100 6 9 8 69 16 8 6 3 3 5 5 18 100 100 100 100 99 100 100 100 100 100 100 100 100 100 100 100 100 44 17 83 67 57 100 96
100 100 100 100 100 100 100 100 60 1 14 68 88 4 40 84 43 22 42 100 100 100 94 100 100 100 56 83 96 100 100 100 100 100 100 100 100 91 98 100 100 100 100 100 100
100 100 100 100 100 100 100 100 41 89 88 98 100 48 87 100 60 42 94 90 100 100 100 100 100 100 95 98 100 100 100 100 100 100 100 100 100 100 86 100 100 100 100 100 100
100 100 100 100 100 100 100 100 100 94 46 96 100 100 100 85 100 82 100 96 97 100 100 100 100 100 96 95 100 100 100 100 100 100 100 100 100 100 100 100 100 100 100 100 99
100 100 100 100 100 100 100 100 99 100 57 60 100 100 100 100 100 100 100 100 100 100 100 100 100 99 100 91 100 100 100 100 100 100 100 100 100 100 100 100 100 100 100 100 100
100 100 100 100 100 100 100 100 100 100 41 100 98 100 96 100 98 100 100 100 100 98 100 100 100 100 100 100 100 100 100 100 100 100 100 100 100 100 100 100 94 71 99 95 89
100 100 100 100 100 100 100 100 100 100 100 100 88 97 100 100 100 98 100 100 100 100 100 100 100 100 100 100 100 100 100 100 100 100 100 100 100 100 100 100 100 90 100 82 6
100 100 100 94 94 100 100 100 100 99 100 100 100 100 100 100 100 100 100 100 100 100 100 100 100 100 100 100 100 100 100 100 100 100 79 100 92 100 100 78 16 32 13 6 58
100 100 100 100 100 100 100 100 100 100 100 100 100 100 100 100 100 100 100 97 100 100 100 100 100 100 100 100 100 100 100 100 100 100 100 100 100 99 5 4 4 6 12 95 100
100 100 100 100 100 100 100 100 100 100 97 100 100 100 100 100 98 100 100 100 99 100 100 100 100 100 100 100 99 98 100 100 100 52 8 4 4 100 58 82 87 100 100 100 100

GFSSW_prec_cloud_114.txt.gz
Cloud_Cover
100 100 100 100 100 100 100 100 100 100 100 100 100 100 69 91 95 38 100 84 66 10 11 23 100 6 5 26 28 53 100 100 100 100 100 100 100 100 100 100 100 100 100 100 100
100 100 100 100 100 100 100 100 100 100 100 100 100 100 100 100 95 76 72 100 100 100 100 92 12 5 9 6 100 100 100 100 100 100 100 94 18 32 75 100 100 100 100 100 100
100 100 100 100 100 100 100 100 100 100 100 100 100 100 100 100 88 100 100 100 100 100 100 100 48 21 10 20 25 47 99 13 5 5 14 83 5 6 4 43 40 81 100 100 100
100 100 100 100 100 100 100 100 100 100 100 100 100 100 100 100 100 84 100 100 100 100 100 100 95 82 5 5 5 5 3 55 76 73 48 19 30 4 0 1 5 5 69 78 11
100 89 98 100 76 100 100 100 100 100 100 100 100 100 100 100 100 86 100 100 100 100 100 100 100 100 100 100 84 5 5 15 10 5 8 7 4 35 4 2 5 2 5 20 92
100 100 95 100 81 100 100 100 100 100 100 100 100 100 96 100 100 100 100 99 100 100 99 100 100 12 12 67 50 76 97 96 28 6 18 2 3 1 5 5 4 3 6 44 35
100 99 100 100 82 75 100 100 100 100 100 100 100 100 100 100 100 100 100 100 100 94 100 83 100 100 100 100 100 100 56 5 5 1 0 0 2 5 5 5 38 17 5 8 6
100 100 100 100 98 91 72 100 100 100 100 100 100 100 100 100 100 100 100 100 100 83 84 94 51 95 99 98 74 4 4 3 3 0 0 0 1 4 5 4 7 5 9 5 5
100 100 100 100 100 96 100 100 100 100 100 100 100 100 100 100 100 100 100 98 94 100 100 100 97 91 38 1 1 3 1 0 0 5 3 1 0 0 3 2 1 25 53 5 5
100 100 100 100 100 100 100 100 100 100 100 100 98 100 100 84 79 100 100 100 100 100 83 39 54 6 6 5 0 0 2 0 0 8 99 92 0 0 0 0 0 5 5 5 1
100 100 100 100 100 100 99 100 100 66 100 24 8 63 59 31 55 5 5 37 52 16 5 0 0 5 0 5 7 4 5 1 0 5 21 80 46 36 8 5 0 5 5 3 0
100 100 100 82 12 100 91 100 100 95 12 4 5 4 24 87 2 5 41 3 8 4 5 7 2 2 5 5 37 42 25 22 53 5 5 1 58 0 0 0 0 0 4 4 5
100 100 100 100 27 100 100 100 100 100 29 5 4 16 8 1 13 16 25 4 20 6 27 70 4 5 50 45 74 24 47 4 15 5 39 94 78 5 0 0 0 0 14 94 99
100 100 100 96 93 100 100 100 100 100 100 3 1 3 11 5 9 43 89 90 57 58 95 18 4 28 73 14 43 98 12 82 99 100 88 44 96 96 2 1 11 0 96 19 2
100 100 100 99 97 100 97 100 100 100 42 0 0 0 0 2 5 4 3 5 5 4 68 4 36 12 48 7 58 97 99 93 5 9 85 46 93 23 98 78 88 100 8 0 0
100 100 100 100 100 99 100 100 100 100 51 0 1 2 5 5 7 5 5 5 5 5 5 25 8 90 93 27 97 94 7 8 46 78 88 12 100 38 100 100 100 100 30 0 0
100 100 100 100 100 100 100 100 100 73 15 4 14 5 5 5 5 5 4 4 3 70 38 23 19 6 100 79 69 16 53 87 50 94 84 98 100 84 100 100 100 100 100 54 9
100 100 100 100 100 100 100 100 99 11 51 100 98 84 15 52 5 57 70 6 73 80 88 100 23 87 100 61 48 99 100 100 100 100 100 100 100 100 99 100 100 100 100 100 100
100 100 100 100 100 100 100 100 97 78 90 90 100 100 100 100 64 44 45 28 44 96 96 98 96 22 100 97 100 100 92 100 100 95 91 100 100 100 100 100 100 100 100 100 100
98 100 100 100 100 100 100 100 55 100 100 100 100 100 100 100 100 97 87 38 5 21 99 82 88 100 99 82 70 100 95 92 100 100 97 86 100 100 100 100 100 100 100 100 100
100 100 100 100 100 100 100 100 100 75 70 65 87 100 100 100 100 60 85 70 5 44 100 100 93 63 92 71 100 100 100 76 100 100 100 100 100 100 100 100 100 100 100 100 100
100 100 100 100 100 100 100 100 30 68 10 46 10 100 100 64 68 100 86 100 12 100 89 79 100 100 78 100 79 100 56 87 100 100 100 100 100 100 100 100 100 100 100 100 100
100 100 100 100 100 100 89 100 98 99 13 98 54 98 97 100 86 100 96 12 100 100 97 75 100 98 100 100 97 42 98 100 100 100 100 100 100 100 100 100 100 100 100 100 100
100 100 100 100 100 74 89 96 100 69 14 100 100 100 100 86 89 46 84 53 100 100 88 100 99 99 100 100 100 100 100 100 100 100 100 100 100 100 100 100 100 100 100 100 100
100 100 46 95 100 100 100 97 96 98 28 100 100 100 100 95 95 100 100 88 100 100 100 100 100 100 100 100 100 100 100 100 98 100 96 100 100 100 100 100 99 100 100 15 36
100 100 100 100 100 100 100 92 100 98 100 100 100 100 100 100 100 100 100 100 100 100 100 100 100 100 100 100 100 89 100 100 100 100 100 100 100 100 100 100 100 100 100 100 100
100 100 100 33 69 100 98 100 96 100 98 100 100 100 100 100 100 100 100 100 97 92 83 100 73 93 100 99 100 75 93 71 100 100 99 100 100 100 100 99 85 74 59 71 100

GFSSW_prec_cloud_117.txt.gz
Cloud_Cover
100 100 100 100 100 100 100 100 100 100 100 100 100 100 100 100 88 100 98 99 58 40 78 70 60 38 11 7 6 5 13 40 5 5 78 32 100 100 100 100 100 100 35 5 18
100 100 100 100 100 100 100 100 100 100 100 100 100 100 100 100 92 100 100 100 100 92 42 100 100 100 64 18 90 80 68 6 5 5 34 63 76 100 61 50 85 18 7 5 4
100 100 100 100 100 100 100 100 100 100 100 100 100 100 100 100 99 100 100 100 100 99 86 96 62 43 100 77 96 16 54 20 5 3 28 14 5 8 99 56 8 5 5 9 8
100 100 100 100 100 100 100 100 100 100 100 96 100 100 100 100 100 100 100 100 100 100 100 100 63 42 99 100 100 15 39 5 99 100 96 42 6 1 4 9 14 30 44 5 5
100 100 98 100 100 100 100 89 100 100 100 100 100 100 100 100 100 100 100 100 100 100 100 83 90 98 51 100 100 100 98 100 100 98 100 100 90 6 5 5 3 5 5 5 5
100 100 89 82 93 76 100 90 56 100 100 100 97 100 100 100 100 100 100 100 100 100 100 100 100 100 100 100 100 92 97 100 100 100 100 94 51 0 5 0 3 2 4 4 5
100 100 96 24 24 56 58 98 64 100 100 100 31 90 67 100 98 100 100 100 100 100 100 100 100 100 100 100 100 100 93 99 74 10 9 29 4 0 0 0 2 0 0 4 0
100 100 100 100 42 33 100 100 96 96 100 82 100 96 65 100 100 100 100 100 100 100 100 100 100 62 79 15 95 100 100 97 100 98 96 32 1 5 0 0 0 0 0 0 0
100 100 100 100 100 100 100 91 100 100 100 100 100 100 100 100 100 100 100 34 76 100 100 100 100 100 98 82 92 81 52 17 4 5 6 37 0 0 2 5 2 0 0 5 5
100 100 100 100 100 100 100 100 100 100 100 100 100 85 78 95 100 100 100 100 100 100 84 100 54 5 6 5 0 0 0 0 1 5 5 4 4 3 4 54 6 0 0 5 5
100 100 100 100 83 100 100 100 100 36 100 80 74 100 100 100 100 68 95 100 100 100 100 99 16 11 100 64 1 4 0 0 0 3 11 5 0 2 5 5 62 62 5 4 18
94 100 100 100 100 100 100 100 100 98 32 59 5 26 100 50 10 79 2 3 10 28 91 26 5 8 22 71 5 5 3 0 0 0 0 0 0 0 3 5 31 100 91 36 100
100 99 100 100 100 100 100 100 100 44 23 27 5 4 0 5 32 37 0 1 4 71 29 2 0 5 5 16 98 80 100 41 44 36 4 0 0 0 0 0 4 3 9 22 100
100 100 65 100 100 93 100 100 100 67 58 71 5 35 5 5 4 5 9 4 0 2 5 5 5 25 14 62 13 4 35 100 69 56 5 0 3 0 0 0 0 73 98 100 100
100 100 100 96 95 100 98 100 99 65 2 37 4 5 5 5 5 5 5 5 5 0 2 0 0 0 69 10 4 7 99 6 13 95 100 5 18 0 0 0 88 100 100 100 95
100 100 30 100 83 91 100 100 100 42 58 37 2 0 3 5 5 5 5 1 0 3 5 1 2 3 0 5 5 7 100 9 72 66 3 0 22 0 3 8 100 92 98 100 100
100 100 91 100 100 100 100 100 100 100 5 23 5 2 3 4 2 2 31 5 5 5 5 5 2 5 97 78 67 98 92 39 13 22 0 3 31 3 4 24 90 70 59 96 100
100 100 100 73 100 100 100 100 98 5 35 93 38 5 4 5 5 5 5 35 98 92 11 5 5 22 6 9 64 100 100 74 33 5 3 2 5 88 99 100 82 100 100 70 100
100 100 99 66 99 100 100 100 5 11 23 76 100 72 26 85 58 52 5 5 30 96 10 55 5 0 5 5 10 16 99 100 33 100 33 57 75 98 100 100 100 100 100 100 100
100 100 100 100 100 100 100 73 6 13 76 100 45 15 72 88 63 54 20 12 100 82 100 62 80 4 5 0 4 56 92 79 92 100 64 6 25 100 100 100 100 100 100 100 100
100 100 98 99 100 100 100 60 5 87 100 100 100 100 70 6 38 48 51 6 100 88 36 49 6 23 52 49 10 64 78 96 100 100 100 35 49 5 100 100 100 100 100 100 68
100 100 100 100 100 100 100 84 97 100 100 100 100 100 100 100 91 21 5 99 100 60 5 42 4 47 100 22 5 10 19 100 100 98 87 9 31 45 100 100 97 98 5 38 100
100 82 100 100 100 96 38 59 99 100 99 100 98 100 100 98 26 5 21 4 7 52 5 48 32 61 21 33 84 39 74 100 100 100 100 98 40 100 100 92 92 88 68 100 100
100 83 100 100 100 100 86 46 33 74 100 100 100 100 86 67 25 35 31 4 39 100 5 47 80 100 100 100 92 63 100 100 100 100 100 100 100 100 100 67 99 98 98 100 100
100 96 23 99 100 100 100 47 99 100 96 100 100 100 100 14 12 96 99 12 100 73 87 83 100 100 100 100 100 100 100 100 100 100 100 100 100 100 100 99 100 100 100 100 100
100 100 100 41 93 100 100 100 64 9 77 95 60 100 100 5 99 100 100 97 100 100 100 98 100 100 100 100 100 100 100 100 100 100 100 100 100 100 42 17 63 100 39 21 100
100 100 100 61 96 99 75 98 14 100 53 60 71 100 95 100 100 100 100 100 96 100 100 82 100 94 87 85 25 34 86 97 100 100 61 23 68 99 100 100 100 55 33 60 100

GFSSW_prec_cloud_120.txt.gz
Cloud_Cover
100 100 100 100 100 100 99 100 100 100 100 100 100 100 100 100 100 100 99 94 96 97 24 2 18 98 91 92 19 5 81 64 5 71 56 0 4 4 5 5 5 4 4 10 99
100 100 100 100 100 100 100 100 100 100 98 100 96 100 100 100 100 100 96 100 65 100 50 93 6 5 87 5 12 7 100 83 5 3 5 59 5 2 4 41 26 5 1 3 5
100 100 99 100 100 100 100 100 100 100 100 100 100 97 100 100 100 100 80 52 48 29 91 99 65 100 50 56 19 47 95 33 77 5 31 100 100 65 11 85 58 5 3 0 0
100 100 84 100 100 100 100 100 100 100 100 100 100 99 100 100 98 52 100 87 98 97 68 100 94 29 79 100 33 11 65 78 100 100 100 100 99 100 60 24 99 16 5 5 5
100 100 100 96 100 100 98 100 100 100 100 100 100 100 100 100 100 75 92 99 20 100 91 95 99 59 100 100 87 18 53 58 100 100 100 100 100 6 81 99 4 5 7 5 5
100 100 100 100 100 100 75 70 100 100 99 82 100 98 100 100 95 15 88 100 46 18 83 100 88 54 100 100 95 98 98 100 100 100 100 100 93 11 73 9 40 86 52 4 1
100 77 100 94 52 96 81 42 65 54 98 85 89 92 100 99 100 5 6 100 94 26 75 100 100 99 25 100 64 98 100 100 100 100 100 22 5 98 100 100 96 13 4 0 5
93 91 66 98 81 69 41 5 31 92 93 57 87 93 99 90 22 79 91 100 100 100 98 71 100 100 100 79 100 100 100 90 96 82 100 100 16 59 65 10 5 5 0 1 8
100 100 89 59 92 98 46 44 83 49 100 100 64 89 100 100 100 100 87 100 100 100 100 100 100 100 90 100 100 80 2 6 6 66 65 22 2 0 1 5 5 2 5 5 4
100 100 100 93 100 100 100 100 99 100 99 100 96 100 49 100 100 100 100 100 100 100 100 100 100 100 100 100 100 40 14 55 35 15 4 0 0 0 0 2 0 5 5 5 5
97 17 40 6 5 55 18 70 49 39 98 70 26 68 100 96 82 100 100 100 100 100 100 72 91 100 100 47 65 5 5 2 5 0 0 0 0 0 0 0 0 5 5 83 100
62 100 19 99 73 46 99 20 100 68 46 80 98 72 100 37 69 100 75 94 100 98 73 95 5 6 5 5 6 2 5 5 4 3 3 1 0 0 0 0 2 2 100 100 100
91 100 100 93 82 95 95 97 12 23 27 100 100 49 100 100 100 100 100 92 100 100 100 45 42 10 5 5 5 5 10 5 3 3 5 5 1 0 2 0 0 0 11 100 100
100 100 100 100 98 82 100 100 90 100 96 100 97 93 100 100 100 100 76 20 5 13 44 29 78 6 9 5 7 5 11 5 5 5 4 2 56 0 0 0 0 0 0 9 87
100 100 42 100 100 100 100 100 100 85 7 48 74 7 98 98 60 100 100 83 35 5 5 5 3 2 5 10 5 5 13 97 7 5 23 0 70 0 0 0 0 0 0 0 0
100 100 100 100 91 100 100 100 100 59 31 41 20 5 5 65 100 100 100 100 100 100 7 5 2 1 0 1 4 34 93 96 23 31 28 0 17 0 64 38 2 5 81 85 32
100 100 100 100 100 100 100 100 100 34 41 100 54 5 60 94 70 87 87 100 100 100 100 28 22 18 5 5 18 86 82 92 65 86 44 0 0 59 100 90 77 80 41 100 100
100 100 100 100 100 100 100 100 86 37 78 100 51 76 95 27 17 22 77 53 99 19 5 4 5 5 5 0 5 5 96 96 95 59 1 0 0 34 100 100 94 100 99 90 100
100 100 100 100 100 100 100 100 20 100 100 100 100 99 63 78 6 5 25 82 15 5 12 8 3 0 0 0 0 0 4 5 66 24 55 0 62 100 100 97 100 100 100 100 100
100 100 100 100 100 100 100 79 64 100 100 100 100 100 98 100 54 6 2 5 5 5 92 5 8 1 2 0 0 1 4 6 78 71 72 4 55 31 100 100 100 100 100 100 100
100 100 100 100 100 100 100 100 100 100 90 85 45 79 92 100 98 100 33 5 6 76 16 99 72 3 0 0 0 4 5 5 13 88 72 8 12 42 4 100 100 100 100 100 100
98 96 11 100 100 100 100 99 98 98 100 100 16 8 68 85 100 77 5 9 92 78 69 99 100 39 3 5 0 4 7 45 39 45 46 86 5 73 46 5 100 100 96 51 66
98 59 35 100 94 93 47 15 18 8 40 32 67 100 100 12 38 23 12 47 99 83 42 100 100 21 50 20 5 19 81 100 100 100 100 99 27 100 32 10 9 100 100 100 46
94 100 100 100 100 27 38 20 38 40 68 89 70 39 100 79 36 100 38 48 30 63 92 100 99 95 64 53 59 75 100 100 100 100 99 57 99 100 94 47 5 40 95 100 100
100 100 25 92 100 100 99 58 98 95 53 62 27 5 14 5 5 22 77 81 56 87 98 100 100 100 100 92 88 95 100 100 100 100 65 94 46 14 39 5 74 83 51 43 52
100 100 100 88 5 44 100 5 84 5 93 73 5 5 5 5 5 12 100 6 100 100 100 100 100 90 99 100 55 99 100 99 94 82 100 93 92 100 81 59 49 100 100 91 100
79 66 100 100 88 94 100 82 38 61 67 5 35 78 5 2 68 21 100 99 93 100 99 100 100 100 16 100 62 100 100 100 97 90 28 50 79 57 77 85 87 76 76 100 100

GFSSW_prec_cloud_126.txt.gz
Cloud_Cover
100 100 100 100 100 100 100 100 100 100 100 47 100 100 100 96 65 5 100 48 74 64 38 48 91 6 5 5 14 6 7 2 2 2 3 1 3 4 5 5 5 0 0 5 5
100 100 100 100 100 100 89 100 100 100 100 12 22 99 100 98 45 5 53 60 6 66 9 4 11 7 43 19 5 5 5 2 5 4 5 3 2 3 5 5 3 1 4 0 5
100 100 100 99 47 28 98 100 85 24 29 100 93 93 100 100 14 7 5 60 5 32 31 5 5 60 6 29 38 5 5 5 5 5 5 5 5 5 7 95 6 5 0 0 0
91 82 100 100 14 30 85 82 35 16 41 100 96 96 98 65 7 72 67 60 61 37 27 40 32 5 5 4 10 14 5 6 12 60 67 67 6 5 20 100 8 0 3 6 5
100 100 100 100 100 100 64 4 55 39 77 100 97 85 67 76 5 20 93 88 59 51 15 57 75 56 25 4 4 5 5 10 63 100 48 8 90 18 100 96 16 2 0 2 0
100 76 95 92 96 97 53 18 5 5 94 100 100 94 99 100 48 13 99 90 94 99 26 13 17 26 38 24 4 5 5 5 36 5 30 6 100 100 100 100 98 4 5 66 99
100 100 60 71 97 91 95 53 33 44 100 100 70 93 100 84 48 99 100 97 100 93 50 5 5 9 14 48 5 5 47 42 5 5 44 38 91 100 100 100 100 99 82 94 98
100 95 100 100 100 64 12 29 70 94 100 100 51 47 99 6 100 100 100 100 58 85 34 5 5 5 5 5 5 5 1 5 5 17 100 95 88 100 100 100 100 100 100 100 99
100 100 100 100 100 98 93 100 100 100 99 82 76 11 64 91 29 95 97 97 74 58 75 58 8 11 14 7 5 5 2 4 11 100 100 100 93 90 100 100 100 100 100 100 100
100 100 100 100 100 100 51 12 95 86 100 93 31 81 75 96 84 84 100 100 100 100 100 100 36 12 86 66 5 35 83 99 98 100 31 13 41 53 100 100 100 100 56 88 60
100 100 100 100 100 96 5 5 6 20 100 100 70 96 74 46 5 17 21 30 100 100 100 77 19 37 100 100 100 97 99 100 100 100 100 100 100 100 100 84 5 5 8 72 96
90 100 100 100 50 53 66 75 96 56 36 96 93 100 44 5 78 22 5 5 27 96 100 90 6 52 100 100 68 19 87 99 97 61 17 24 82 100 99 42 12 5 5 5 13
72 65 92 100 55 100 66 34 25 19 47 99 94 28 52 5 15 76 5 5 5 33 100 100 98 100 100 100 100 100 100 100 100 100 100 90 68 67 100 77 8 45 49 17 26
100 6 59 36 16 56 91 30 38 7 37 16 100 70 5 5 5 5 5 5 5 5 7 87 100 100 100 100 100 100 100 100 100 100 94 44 13 28 53 90 88 6 5 38 70
100 100 100 100 100 100 100 100 100 100 58 60 99 100 100 77 67 13 18 15 8 37 34 100 100 100 100 100 100 100 100 100 100 100 100 94 49 60 65 69 66 36 28 46 75
100 100 100 100 100 100 98 100 90 100 44 13 24 5 28 97 100 100 89 56 73 22 37 100 11 62 84 57 99 100 100 100 100 98 77 100 32 96 17 5 31 36 31 9 8
100 100 100 100 100 98 100 100 100 21 26 5 41 39 5 14 73 95 98 46 100 100 100 100 100 100 100 78 100 100 100 100 100 100 100 50 6 67 5 8 4 18 62 18 56
100 100 100 100 100 100 100 100 53 5 77 7 5 5 5 6 15 61 93 99 100 100 100 100 100 100 98 72 100 100 59 95 92 82 85 38 21 5 5 2 5 98 99 23 10
100 100 100 100 100 100 100 100 30 99 79 31 33 36 37 100 52 30 5 80 100 100 100 100 93 100 100 99 32 58 9 51 78 5 73 6 0 5 98 99 51 97 86 97 100
100 100 100 100 100 100 100 100 100 83 80 23 100 100 38 94 71 14 5 18 100 100 100 100 100 100 100 100 100 42 40 8 36 7 64 2 0 2 90 100 62 35 88 94 100
100 100 100 100 100 100 100 61 60 97 100 100 62 88 100 98 100 96 76 17 95 100 100 100 100 100 100 100 100 100 87 86 99 93 87 39 1 0 4 0 6 37 76 82 100
100 100 100 100 100 100 96 97 74 83 100 100 99 95 100 100 100 100 100 99 100 100 99 100 100 33 59 100 100 100 96 100 100 27 20 71 12 3 5 4 5 54 89 85 99
100 100 100 79 96 62 36 5 5 26 98 100 100 100 100 100 100 100 100 100 100 100 100 100 100 100 93 64 100 100 100 100 100 97 7 99 16 5 40 96 48 86 95 100 100
100 100 100 100 8 7 11 13 5 4 4 20 13 25 94 100 100 100 100 100 100 100 100 100 100 100 100 100 99 34 5 70 100 99 100 28 32 33 82 90 99 100 94 96 100
100 99 34 94 100 94 100 98 26 14 5 4 4 1 10 71 8 5 14 78 44 100 100 100 84 100 100 100 97 5 6 91 100 100 99 65 10 43 52 100 100 100 99 76 59
100 98 100 71 6 100 100 29 100 7 48 25 6 5 5 5 1 0 2 0 5 29 99 100 100 100 100 100 100 39 5 57 100 100 63 58 5 5 50 83 34 25 94 77 100
100 100 100 98 98 100 76 87 74 73 25 15 85 26 5 37 5 0 4 5 6 93 80 98 98 100 100 100 100 30 65 98 100 100 100 15 9 8 58 99 76 55 57 100 100

GFSSW_prec_cloud_129.txt.gz
Cloud_Cover
100 100 100 100 100 100 100 100 95 32 15 7 100 99 100 100 83 17 20 76 97 71 14 23 6 5 32 16 8 5 5 1 4 5 5 5 2 5 0 2 5 5 20 5 5
100 100 100 100 100 100 92 66 86 100 72 46 84 84 44 94 86 84 57 61 62 78 48 12 5 7 25 27 16 12 5 4 3 4 5 5 4 5 5 5 4 5 5 5 5
100 100 100 100 100 100 100 15 100 94 100 86 59 43 23 100 10 47 20 39 29 5 14 28 5 52 38 20 88 33 26 18 5 5 4 5 5 3 5 5 75 5 5 11 5
100 100 100 100 100 100 100 55 96 80 100 81 82 36 99 73 44 6 16 68 14 37 11 13 5 5 13 62 96 85 82 32 24 6 4 3 0 1 5 5 5 46 97 9 5
100 100 100 100 100 100 68 81 8 54 93 100 100 100 70 26 13 27 28 94 86 33 5 5 7 33 58 88 88 96 41 25 5 11 5 5 5 5 5 3 3 5 5 17 73
100 100 100 100 100 98 100 78 95 93 100 100 100 78 33 27 6 5 87 70 84 46 5 4 14 5 8 5 14 29 97 67 9 21 18 5 5 5 4 5 5 4 3 4 5
100 100 100 100 100 100 98 97 97 98 95 100 100 100 97 53 6 5 100 100 91 15 5 0 12 44 5 5 5 15 37 5 5 17 45 5 5 5 5 5 60 90 5 4 4
100 100 100 100 100 100 100 91 97 100 99 99 97 100 100 14 100 100 100 100 39 6 5 5 1 2 5 5 5 5 6 27 6 5 5 5 5 5 49 7 97 100 96 30 97
100 100 99 100 71 100 100 72 18 100 100 100 100 100 100 18 51 100 100 87 58 52 6 4 5 2 13 13 10 5 25 100 100 37 22 5 5 5 92 90 100 100 100 100 100
100 100 100 100 100 100 98 100 98 62 100 100 100 100 100 94 5 32 71 5 6 6 5 5 5 5 37 19 4 37 29 13 19 33 5 5 6 30 97 100 100 99 66 65 71
100 100 65 100 100 100 45 100 100 100 100 100 100 100 100 60 15 100 79 100 98 26 28 22 11 5 5 30 49 5 8 5 59 60 9 36 90 100 100 100 100 100 100 100 100
98 91 100 80 100 100 100 100 90 100 100 100 100 100 100 99 96 55 78 6 51 83 100 82 5 5 5 5 5 5 5 5 5 6 10 20 52 51 100 100 100 100 100 100 100
100 100 100 100 100 100 82 85 100 80 58 100 100 100 84 8 74 81 66 100 86 87 33 7 50 38 5 5 5 4 4 5 5 13 29 5 15 79 100 100 100 100 100 100 100
100 95 100 100 94 51 94 72 19 64 70 100 100 100 91 70 8 96 90 65 100 100 100 100 100 32 10 84 23 5 56 12 5 5 60 100 92 100 100 100 100 100 100 100 100
100 100 100 100 100 100 100 72 40 79 43 66 100 64 99 100 99 98 77 67 100 100 100 74 96 98 100 100 100 100 100 100 100 84 33 98 100 98 100 100 100 100 93 66 71
100 100 100 100 100 100 100 100 97 84 81 70 88 47 73 94 100 100 100 100 100 100 100 100 92 75 99 100 100 100 100 100 100 74 31 58 5 76 34 35 8 9 16 28 5
100 100 100 100 100 100 100 100 96 17 93 6 100 100 100 100 100 100 62 98 100 100 100 100 100 100 100 63 77 97 100 100 100 98 82 57 80 100 22 5 5 5 5 5 16
100 100 100 100 100 100 100 100 87 100 100 100 100 60 99 33 99 100 66 50 72 77 97 100 100 100 100 99 100 100 100 100 100 47 37 38 98 100 96 82 10 6 5 5 63
100 100 100 100 100 100 100 99 30 97 86 95 52 88 100 100 66 66 5 5 53 52 88 87 89 100 100 100 99 100 100 100 100 100 95 26 25 58 66 77 44 5 12 35 100
100 100 100 100 100 100 100 100 95 95 45 8 99 100 100 100 100 100 100 12 78 47 100 88 21 96 100 99 100 100 100 100 100 100 84 82 76 78 32 47 96 39 18 37 94
100 100 100 100 100 100 100 100 100 100 100 100 100 100 100 100 100 100 100 100 85 94 100 100 96 76 97 100 100 100 100 100 100 100 100 66 11 23 5 2 4 6 5 34 77
92 100 100 100 100 100 100 100 100 100 100 100 100 100 100 100 100 100 94 100 100 100 100 100 100 14 95 100 100 100 100 100 100 100 54 100 11 0 5 5 5 5 12 32 69
100 100 100 100 100 97 100 100 100 100 100 100 100 100 100 100 94 78 100 100 100 100 100 100 91 9 100 78 100 100 100 100 100 100 32 100 11 6 5 6 39 87 68 87 99
100 100 100 100 41 33 83 67 100 100 100 57 60 90 100 100 48 69 100 100 100 100 100 100 44 98 57 91 100 100 100 100 100 94 87 18 98 52 8 50 79 95 46 94 100
100 100 80 100 100 70 8 19 46 20 12 5 5 12 13 5 6 10 98 100 100 100 100 100 98 100 29 86 100 88 52 100 100 100 100 36 77 99 100 95 9 46 50 36 99
100 100 88 18 24 84 34 5 6 42 94 30 6 1 0 1 1 0 3 5 4 6 8 94 100 100 31 100 100 100 100 100 100 100 92 76 8 100 100 57 5 6 26 81 100
100 100 97 100 98 92 78 100 86 35 42 83 50 20 9 67 41 26 16 22 5 5 5 90 100 98 14 82 84 96 86 100 90 91 78 53 5 47 74 8 8 32 60 96 100